GFSNGP_prec_cthk_000.txt.gz
RH
52 46 42 38 35 32 34 30 38 28 32 30 33 38 44 47 47 48 48 47 47 48 48 49 49 50 48 48 49 50 50 49 48 49 49 48 47 47 47 46 46 45 43 42
37 32 30 30 26 28 32 35 38 41 42 43 44 46 45 44 43 43 44 44 45 46 48 50 50 50 49 50 52 52 55 54 54 52 51 50 49 48 48 49 48 47 46 46
33 32 37 41 41 43 44 44 43 43 41 41 41 40 38 39 41 43 43 44 45 48 50 49 50 51 53 55 58 58 58 57 56 54 52 51 52 51 50 48 47 48 49 49
48 48 57 43 42 37 33 31 33 35 36 37 38 39 41 42 43 46 49 50 53 54 52 53 56 60 63 63 61 59 57 55 54 54 53 51 49 46 45 44 43 42 42 45
63 63 52 41 34 36 36 37 35 36 37 39 40 41 42 45 46 51 55 59 59 59 61 64 64 64 62 61 59 57 54 52 49 46 43 37 32 31 31 33 37 38 40 42
68 63 63 36 37 35 37 42 40 42 43 46 48 52 52 53 56 58 61 63 64 67 70 70 67 63 60 58 55 53 49 46 41 38 32 28 28 28 27 28 26 26 25 30
51 57 49 36 40 39 46 47 44 46 49 51 53 52 53 55 57 61 63 65 69 73 73 71 65 62 58 54 51 47 44 40 34 31 29 26 24 23 24 22 23 21 22 22
53 55 56 39 41 47 48 48 48 50 50 50 52 55 58 61 63 65 72 76 76 74 73 71 68 62 56 50 47 41 35 32 31 28 25 23 23 22 20 19 19 21 22 21
52 50 41 44 48 48 47 48 50 51 52 53 55 58 61 66 67 70 76 76 77 77 75 70 64 55 50 46 39 34 33 30 25 22 20 20 20 18 17 16 16 20 20 20
45 36 39 41 42 45 47 47 49 54 54 55 58 61 68 73 76 80 81 81 80 73 66 59 53 48 40 35 33 30 27 24 22 21 21 20 18 18 18 17 20 21 20 17
47 44 43 43 47 46 48 51 53 53 56 58 61 66 71 75 79 83 84 80 71 60 55 50 43 38 34 31 28 26 25 24 23 22 20 19 19 20 21 22 24 26 26 26
46 41 43 42 44 46 46 47 52 53 55 58 62 67 72 77 82 82 76 68 62 53 45 39 38 33 28 26 27 28 27 25 23 23 23 23 23 21 21 25 26 28 30 34
44 42 42 43 46 47 48 50 50 52 54 59 67 73 76 79 77 74 64 58 52 44 41 37 30 24 23 27 30 31 30 28 28 28 27 27 27 28 29 23 29 32 36 37
41 42 42 43 46 48 50 53 53 53 59 66 71 75 77 70 69 63 55 49 43 38 35 28 25 26 30 33 34 34 34 33 31 29 30 30 31 33 34 36 37 33 36 40
42 43 45 47 47 48 50 52 56 60 64 69 70 70 69 63 56 49 44 37 31 27 27 28 32 34 37 38 38 37 35 33 32 32 33 35 36 36 38 41 41 41 40 39
45 45 45 45 46 48 52 54 56 60 66 70 69 62 53 45 40 33 29 28 29 29 32 37 38 38 38 40 40 38 35 34 36 37 38 38 39 42 44 43 43 44 43 43
44 42 43 45 47 49 51 56 61 63 68 61 52 42 37 33 32 32 31 31 34 39 43 42 38 38 40 43 41 38 37 37 39 40 40 42 44 47 49 50 48 46 46 47
41 42 44 46 50 53 57 60 65 60 51 44 38 36 35 34 32 32 36 41 44 43 41 39 41 41 41 43 45 45 44 42 43 43 44 48 51 52 53 55 56 55 53 53
44 47 49 52 53 55 58 62 49 44 41 38 38 36 34 33 38 43 44 42 41 40 37 41 42 45 47 45 44 43 44 46 45 46 52 54 53 54 60 63 64 63 61 59
51 52 51 53 57 56 45 38 39 39 39 40 36 34 38 42 43 43 44 40 42 44 42 44 44 42 42 41 44 47 48 46 51 54 56 56 59 60 63 65 66 66 64 63
54 54 57 55 48 40 39 41 42 44 41 36 39 43 43 41 41 44 45 43 42 44 46 45 42 41 42 44 47 48 48 51 56 57 58 60 62 64 66 66 67 66 67 66
55 57 54 47 43 44 46 47 46 40 41 43 43 41 40 42 45 44 45 47 44 45 43 42 44 44 45 48 48 51 55 57 58 60 64 66 67 67 68 68 67 66 67 68
58 55 55 55 51 52 54 47 42 47 47 42 40 42 47 48 47 46 42 43 43 44 47 45 41 43 47 51 54 55 57 59 63 68 70 70 71 72 73 72 71 68 69 69
60 63 67 66 63 61 49 47 51 49 45 42 45 51 50 46 44 45 45 44 44 43 42 40 42 47 55 56 56 58 62 66 70 72 73 74 76 78 80 80 78 75 74 70
67 70 72 74 74 59 56 57 52 48 46 48 49 48 46 45 45 43 43 39 36 38 39 42 48 51 53 56 60 64 69 72 75 77 79 80 82 87 87 85 83 81 80 74
73 74 78 77 71 68 63 58 52 50 50 48 45 42 40 42 43 38 34 34 36 41 46 47 50 54 59 63 67 71 74 76 79 81 81 84 88 89 88 86 88 89 86 76
75 78 77 72 71 65 59 55 52 51 48 44 41 41 40 36 34 35 35 38 42 44 48 52 56 60 68 73 75 77 79 80 82 85 85 86 90 89 86 86 88 87 82 74

GFSNGP_prec_cthk_006.txt.gz
RH
46 44 46 49 51 52 52 48 42 34 34 33 35 35 36 37 38 42 46 47 46 45 44 45 46 45 43 44 47 49 50 48 45 41 37 32 29 26 24 23 23 23 21 22
53 48 47 45 44 41 39 38 37 37 36 42 45 42 39 40 42 44 45 44 44 45 46 47 46 46 50 52 53 53 50 45 40 37 35 30 28 25 24 23 23 23 23 23
52 55 51 46 38 35 32 31 35 42 41 33 30 34 38 39 40 42 43 45 45 48 49 49 51 52 51 51 52 49 44 41 39 33 30 28 26 26 26 25 25 27 28 27
52 46 49 35 36 43 46 46 45 42 33 34 35 37 37 39 41 43 45 48 50 51 50 51 54 55 57 54 49 44 43 41 35 31 30 29 29 28 28 28 28 27 24 23
47 46 40 42 44 45 47 45 39 37 37 38 38 38 39 41 43 45 47 48 47 49 54 60 63 62 57 52 47 46 44 40 34 31 31 32 31 31 30 29 27 24 22 20
63 62 57 47 45 40 36 39 39 40 40 42 42 46 43 42 43 44 45 49 56 60 63 66 65 60 53 48 47 45 40 36 35 36 35 33 33 33 30 26 24 24 23 24
70 65 52 41 40 37 39 36 42 43 43 42 46 47 46 46 46 47 51 58 61 66 67 64 57 55 53 49 42 39 37 39 41 40 39 39 38 32 28 28 27 27 27 25
58 58 53 40 40 41 42 44 43 44 45 45 46 46 46 47 48 49 53 56 60 62 59 60 56 54 49 44 42 42 41 43 43 41 41 35 30 30 30 29 28 28 28 28
46 45 41 42 42 44 46 48 48 48 48 47 46 46 47 48 51 54 57 61 63 63 63 61 53 47 43 42 42 42 43 42 37 30 30 32 33 31 29 29 29 30 32 32
44 44 47 48 49 49 49 50 49 46 45 44 46 45 45 45 47 52 56 60 61 63 60 55 50 46 42 38 39 38 30 28 30 33 35 33 30 28 27 28 33 37 42 43
47 46 47 50 50 50 49 47 45 44 47 47 44 41 43 47 52 54 56 59 59 57 51 45 41 37 35 32 28 29 31 34 35 34 30 27 26 28 30 33 41 47 46 46
49 45 45 46 46 45 46 48 50 49 47 45 45 47 49 52 56 57 57 57 55 44 39 35 30 26 26 29 32 36 38 36 31 28 28 29 29 27 28 32 36 42 46 50
46 47 47 47 48 49 48 46 45 47 48 49 50 52 53 53 54 56 56 46 38 35 28 24 24 27 30 35 39 38 32 28 28 30 31 31 32 33 33 27 35 39 41 47
49 49 50 48 48 47 47 48 48 48 51 52 53 53 52 54 55 52 41 34 29 26 24 26 29 33 39 39 34 30 29 30 32 32 32 33 35 37 40 38 36 34 37 46
49 50 51 52 52 50 49 48 49 50 51 53 54 54 56 57 47 36 32 28 26 27 28 30 35 39 38 33 30 30 31 32 33 34 34 37 39 38 39 39 42 42 44 45
53 55 56 54 49 48 46 45 47 49 51 51 53 55 51 39 35 31 29 28 29 28 33 37 39 38 34 32 31 32 32 33 35 36 38 39 38 39 41 45 48 48 49 50
58 58 54 49 47 46 46 47 49 47 52 52 54 44 35 31 29 30 31 30 30 35 40 40 38 36 34 34 32 31 30 32 36 35 35 36 40 46 48 51 52 53 52 53
54 49 49 48 48 49 49 49 50 53 53 50 36 32 30 30 32 33 31 33 38 41 44 41 38 34 33 31 30 30 31 29 30 35 38 43 47 50 52 54 58 59 59 58
48 49 50 50 50 49 49 49 50 47 39 34 33 33 36 38 38 36 36 39 43 43 41 38 35 32 30 30 29 28 28 31 35 40 44 47 49 52 57 60 62 63 66 66
53 51 48 47 47 48 50 49 46 37 35 37 37 40 44 44 40 39 41 46 49 44 40 35 32 31 29 25 26 31 35 39 41 43 46 51 56 58 61 63 66 69 70 71
51 48 45 44 45 48 50 46 41 40 40 41 44 48 49 49 45 46 50 49 47 44 37 34 33 27 25 27 33 37 40 41 43 46 51 55 59 62 65 67 70 72 74 74
51 51 49 49 50 51 50 49 48 45 45 48 52 54 56 52 52 56 57 52 46 41 37 32 29 27 30 34 35 38 41 43 46 50 54 59 64 67 69 71 72 73 75 76
55 58 55 52 51 51 53 53 52 53 55 57 59 64 61 57 59 57 52 49 44 40 34 31 30 30 35 37 39 41 42 44 49 54 60 65 69 73 74 74 74 76 77 79
54 59 58 58 59 57 56 56 58 61 62 65 71 69 64 62 59 59 51 47 42 36 33 32 31 32 37 37 39 41 43 48 55 61 67 69 74 76 76 75 75 77 80 78
56 62 60 60 60 59 60 61 64 67 70 76 77 70 66 62 56 50 49 44 38 34 33 33 33 35 36 39 43 44 48 54 62 68 72 75 78 80 79 79 79 81 82 79
59 58 58 60 61 65 70 73 74 78 81 77 70 66 62 56 53 51 46 40 35 35 36 35 35 36 39 43 45 48 54 61 68 72 76 79 83 83 85 87 85 85 83 81
57 58 60 65 72 78 77 78 82 82 73 66 64 59 56 54 52 46 41 36 37 38 37 37 37 40 44 47 49 53 60 68 74 77 78 81 85 88 90 90 88 87 82 82

GFSNGP_prec_cthk_009.txt.gz
RH
50 38 42 38 40 43 44 44 48 49 53 45 39 38 36 36 41 41 40 43 47 49 50 49 48 47 45 47 48 48 45 44 39 34 33 31 30 29 27 26 24 23 22 22
46 41 43 42 44 50 52 53 54 53 46 40 32 36 47 49 40 41 42 45 46 47 48 49 48 47 47 47 50 49 48 45 37 35 35 34 30 28 27 26 25 25 26 27
50 50 47 47 46 46 49 47 40 36 31 34 47 54 42 36 36 38 41 43 44 47 49 49 48 47 48 51 56 58 51 42 39 38 38 33 30 28 28 28 28 30 33 33
60 58 59 48 53 48 43 40 36 41 45 53 54 40 39 38 38 38 40 43 47 48 48 46 49 53 59 62 58 52 42 42 42 38 33 32 31 31 31 32 35 37 35 32
67 64 51 53 46 42 42 49 51 53 52 44 39 39 40 40 39 41 43 43 44 43 44 50 55 59 62 59 48 44 45 44 38 35 33 32 33 33 35 35 31 30 30 29
62 58 53 43 41 40 44 56 55 51 43 41 41 44 43 40 40 39 40 43 46 48 53 57 59 58 54 49 48 46 43 41 37 34 33 33 32 30 29 30 31 30 28 26
50 51 47 45 45 48 53 43 41 40 41 41 43 44 41 39 40 42 43 46 49 52 55 57 57 54 52 50 49 44 39 36 35 31 28 26 28 30 31 30 27 23 21 20
74 73 68 52 46 43 41 41 41 43 43 43 43 41 40 39 40 43 46 48 50 55 56 57 55 55 53 49 42 38 34 29 26 23 26 29 31 30 25 22 22 22 22 22
56 52 42 40 40 41 42 43 45 45 46 46 43 41 41 41 43 45 48 52 55 58 56 54 54 51 47 40 34 28 23 21 23 28 31 31 26 22 22 23 25 25 28 28
51 49 45 43 44 45 47 48 48 49 47 43 43 43 42 42 44 49 54 56 55 55 57 55 51 42 32 26 22 21 22 24 30 32 29 24 24 24 25 26 27 30 33 39
51 49 49 47 47 47 48 47 46 45 44 45 45 45 44 46 50 52 57 59 58 56 53 47 36 29 23 21 22 23 26 33 33 30 25 25 24 24 26 26 34 41 43 42
49 44 46 47 47 47 47 45 44 43 43 44 47 48 48 50 52 54 57 59 57 53 41 32 27 23 23 25 24 30 34 34 31 27 26 26 24 22 24 29 33 35 40 43
45 45 46 47 47 47 45 43 41 42 44 47 47 48 51 54 55 55 57 58 48 35 31 27 25 26 26 27 32 36 35 32 29 28 27 26 25 26 27 26 30 27 35 40
44 46 49 50 50 48 45 44 43 46 47 46 47 51 54 55 56 58 55 40 35 32 28 26 27 27 29 34 37 36 34 33 30 28 27 26 27 27 28 31 32 33 33 40
46 47 47 48 48 47 43 45 46 43 43 44 49 52 54 58 59 47 36 35 31 28 28 29 30 31 36 39 37 36 35 31 29 28 27 27 27 28 31 34 38 40 39 41
49 48 48 48 45 45 48 46 43 43 45 47 51 53 55 54 40 35 32 31 30 30 33 33 33 38 41 38 37 36 32 30 29 27 27 28 30 32 36 38 41 45 47 49
50 51 51 49 50 50 48 47 47 48 48 49 51 53 49 37 34 32 33 33 34 35 36 36 39 42 41 38 35 33 31 28 26 28 29 32 34 38 41 45 48 50 50 51
50 49 50 51 50 48 46 46 48 49 48 49 50 44 36 34 34 36 38 39 40 40 40 42 45 44 40 38 36 32 28 29 31 33 34 36 39 44 48 51 53 58 57 57
51 54 54 50 46 45 45 46 47 48 49 49 43 38 37 37 39 42 43 45 45 40 43 48 49 44 41 38 33 30 31 35 34 35 37 40 42 45 49 51 56 61 63 63
55 51 49 47 44 44 44 45 48 49 50 45 40 40 41 43 45 47 51 52 48 47 49 52 47 43 39 34 31 34 38 38 38 38 41 43 45 46 50 54 60 64 65 65
48 47 45 44 45 44 45 47 49 49 47 42 42 44 46 48 51 56 59 54 56 57 57 51 46 39 36 33 37 40 41 40 39 40 41 43 45 49 54 60 64 66 66 66
42 42 44 46 48 48 48 49 51 49 47 48 49 51 53 55 59 65 65 61 59 57 50 46 41 38 35 40 40 41 39 39 38 40 43 46 50 55 59 64 67 66 66 66
44 43 44 46 48 52 55 57 55 53 54 55 56 57 58 62 68 70 63 62 59 52 47 43 40 38 35 41 40 39 39 39 40 43 48 51 55 60 65 68 69 70 69 68
43 43 44 47 54 56 58 58 57 57 57 57 60 66 69 71 74 70 63 58 52 48 44 41 38 35 40 40 39 40 39 39 43 48 52 56 62 68 72 72 72 71 71 71
44 44 47 52 56 56 57 59 61 61 62 68 75 77 77 74 63 60 57 53 50 44 39 38 36 38 39 39 40 39 40 45 49 55 58 65 71 73 73 75 77 78 76 76
47 51 54 55 55 56 58 63 66 69 72 75 79 77 72 67 63 59 56 50 43 41 39 38 39 40 39 40 39 41 46 50 55 59 65 72 74 74 73 77 82 82 80 79
50 54 57 58 60 61 65 70 73 74 75 73 71 72 67 64 62 57 49 44 41 40 39 38 37 38 38 39 43 47 51 56 61 66 72 75 76 75 73 79 83 79 81 77

GFSNGP_prec_cthk_012.txt.gz
RH
66 64 65 65 68 61 51 36 40 35 44 47 45 49 48 42 38 39 48 48 46 46 48 50 50 50 49 49 50 49 48 45 41 40 38 32 31 32 30 27 25 24 23 24
67 61 54 50 53 45 37 37 39 43 47 50 52 49 45 37 42 51 45 39 42 45 47 48 50 50 50 50 50 49 50 47 43 38 34 33 32 29 27 25 24 24 24 23
69 64 57 44 40 51 49 48 49 54 53 54 51 43 40 51 55 46 37 39 41 43 47 48 48 48 49 51 52 53 52 49 43 35 33 33 29 27 26 25 22 20 20 21
61 59 54 39 44 42 49 49 49 50 45 40 45 48 56 58 49 39 39 39 40 43 46 45 45 48 53 55 56 52 46 41 39 35 33 29 28 26 21 18 19 21 21 19
63 59 49 47 47 50 52 55 48 48 50 52 57 59 53 45 40 39 38 38 42 45 45 45 49 53 55 56 49 44 43 42 38 34 31 26 20 18 20 22 22 19 18 18
76 76 68 58 58 52 50 58 53 56 58 59 60 55 46 41 39 38 37 40 43 45 47 50 52 55 55 52 46 44 44 40 34 28 22 18 20 23 25 23 20 19 18 19
71 65 58 52 50 52 58 52 55 55 58 54 48 43 41 40 39 39 41 42 46 49 51 53 57 55 53 47 45 44 37 31 25 20 20 23 25 27 24 22 21 21 20 19
61 59 54 44 46 54 55 57 51 47 44 44 43 42 41 40 39 40 43 45 48 52 55 56 56 53 47 47 42 36 28 22 21 22 25 28 28 25 24 24 23 22 20 19
69 70 69 66 58 51 47 44 45 45 44 44 43 42 39 39 42 43 45 47 51 55 58 56 53 50 47 41 33 26 22 22 24 26 30 30 26 26 25 24 24 23 25 26
63 60 56 52 48 44 44 45 46 45 45 43 42 41 42 41 42 44 48 51 55 58 58 55 52 47 39 29 26 24 24 25 27 31 29 27 28 28 26 25 26 28 29 31
63 61 58 54 51 50 48 47 45 44 43 42 42 43 43 43 44 50 52 53 55 55 56 54 49 36 30 27 26 26 27 28 31 30 28 28 27 27 26 26 30 32 33 37
62 60 57 53 49 47 46 44 43 43 42 42 42 43 44 47 50 52 53 53 53 54 54 45 33 31 28 28 28 29 29 32 30 29 28 28 27 25 25 27 29 28 31 39
58 57 57 51 48 45 44 43 43 42 41 41 41 43 47 50 51 52 52 54 56 52 37 33 31 29 29 31 31 33 32 31 30 29 29 29 27 27 28 25 26 25 30 37
49 50 51 49 47 47 46 43 40 40 40 41 44 47 49 49 50 50 52 55 44 35 32 31 30 32 33 33 36 34 33 32 31 32 31 28 29 33 33 32 29 27 31 40
49 46 46 46 45 45 42 40 40 41 41 42 44 47 49 50 50 51 50 38 35 33 31 32 35 36 37 39 36 34 34 34 34 32 30 32 34 33 34 35 35 36 39 42
48 49 49 48 45 42 41 41 42 44 43 42 43 47 48 49 50 42 36 35 34 34 36 39 40 41 42 38 36 36 37 37 34 32 32 34 35 37 38 38 39 41 45 46
52 53 49 44 43 42 41 43 42 42 45 46 47 46 47 47 37 35 35 36 37 39 43 44 45 44 41 40 39 39 39 35 33 34 34 36 38 40 40 41 41 44 45 50
50 45 44 43 41 42 44 43 43 43 42 42 42 44 44 39 36 36 38 40 42 45 49 52 49 46 46 44 42 42 38 35 35 37 37 38 42 42 41 40 43 46 50 55
49 45 45 46 48 46 41 39 40 40 41 43 44 44 40 37 38 40 42 45 48 50 56 58 53 51 48 47 45 40 37 37 38 38 40 42 40 40 39 41 46 51 55 61
52 51 52 52 45 41 40 39 38 40 42 44 45 44 40 40 41 43 46 51 54 55 59 58 52 50 48 46 42 40 40 41 40 41 41 43 40 38 40 45 51 55 60 64
56 53 47 45 43 41 40 39 40 42 45 46 47 43 42 43 44 48 52 55 62 66 66 57 54 51 47 43 43 43 42 41 41 41 40 40 39 41 45 50 55 60 65 67
47 46 45 42 40 39 40 41 44 47 47 48 46 43 44 46 50 54 58 61 68 67 56 54 53 50 45 47 44 42 41 40 40 40 40 40 42 46 51 55 62 66 68 69
48 45 42 40 39 40 41 45 47 48 48 48 47 46 48 52 57 61 67 75 68 59 56 55 52 47 44 46 41 40 40 39 39 40 40 43 47 53 57 64 69 70 70 71
48 45 43 41 40 41 44 47 47 49 49 50 50 53 56 60 68 74 73 65 59 58 56 52 47 44 43 40 39 38 37 37 38 40 44 48 54 58 66 72 70 69 74 74
47 45 43 42 45 48 49 51 53 54 55 56 59 63 69 73 73 69 64 63 61 55 48 46 45 42 40 38 36 36 37 37 41 46 52 55 59 64 71 73 72 71 77 74
47 46 45 47 50 52 53 55 58 60 63 67 70 74 75 71 65 62 62 58 50 46 46 44 39 38 37 36 36 36 38 43 49 52 56 60 65 71 73 74 71 76 76 73
47 48 50 53 54 54 56 60 64 70 72 74 74 71 69 65 65 60 52 48 47 46 41 38 38 37 37 36 37 42 46 50 54 59 62 67 71 72 73 72 75 77 72 73

GFSNGP_prec_cthk_015.txt.gz
RH
62 60 58 59 59 58 59 57 61 58 60 35 34 38 43 47 52 54 51 46 54 52 47 49 52 50 49 50 50 49 48 50 50 45 39 33 30 29 28 26 24 22 19 17
67 67 65 65 65 62 63 66 65 55 39 30 36 41 47 53 55 51 42 53 56 50 52 50 49 49 49 50 50 51 51 49 40 41 36 31 30 29 26 23 20 18 18 18
74 71 69 64 59 60 59 63 50 42 28 39 45 51 57 56 48 43 50 61 54 49 46 46 47 49 50 51 52 51 48 43 40 38 36 31 29 25 21 19 20 20 19 17
75 70 70 59 55 46 47 48 47 42 43 50 56 58 52 50 48 54 59 51 42 41 42 46 49 50 52 54 52 50 48 43 40 39 33 28 23 20 21 22 22 20 18 18
75 69 57 52 50 44 44 49 48 50 51 51 54 52 52 55 60 56 46 39 36 40 46 48 50 52 55 55 53 50 44 42 39 32 26 22 21 23 24 22 20 19 19 19
77 67 58 56 58 50 46 48 51 57 59 57 58 63 63 61 57 45 36 33 37 42 46 49 52 53 54 54 50 46 43 40 31 24 22 23 24 25 23 21 20 20 19 19
74 71 66 62 58 54 59 55 57 55 54 55 57 59 60 52 43 35 34 38 43 46 50 53 55 55 55 53 50 45 40 30 25 24 24 25 26 25 22 22 21 20 19 20
78 75 66 57 56 54 53 54 57 58 60 58 56 50 46 41 36 36 39 43 47 49 52 55 56 56 54 51 47 40 29 26 25 25 27 28 26 23 24 22 22 22 20 21
58 52 53 56 61 63 60 57 64 55 51 49 47 44 39 36 37 41 44 47 49 50 53 58 56 51 50 48 39 30 27 26 26 28 29 27 23 23 23 23 24 23 25 29
68 66 64 62 60 58 56 53 46 45 45 44 42 39 38 39 41 44 46 47 49 52 57 55 53 52 48 36 30 28 27 27 30 30 27 24 24 25 25 25 26 30 33 36
62 62 62 63 61 58 55 53 51 49 45 42 39 39 41 43 44 45 47 48 50 54 53 53 51 46 33 30 28 28 29 32 32 29 26 24 25 27 26 29 33 37 38 43
60 54 55 58 62 64 60 55 52 46 40 38 40 41 42 44 44 44 46 49 53 53 55 52 41 32 30 28 29 31 34 33 30 27 25 27 27 25 29 31 37 39 40 45
53 49 52 56 62 65 60 52 45 40 38 38 39 41 41 42 43 47 52 53 55 57 47 33 31 29 30 32 34 37 35 32 30 28 29 29 28 30 31 33 35 37 40 40
54 50 52 54 61 62 53 44 40 38 39 38 39 40 40 42 47 52 53 53 51 36 31 30 31 33 35 37 38 37 35 34 32 33 31 30 33 37 37 37 37 38 36 38
62 60 52 52 51 47 42 39 38 38 39 39 34 36 44 48 51 49 49 44 32 30 31 33 35 37 39 41 41 38 37 36 36 33 32 36 39 38 38 41 41 39 37 36
65 61 52 45 43 41 38 42 43 42 36 34 37 43 46 46 46 45 39 32 31 32 34 36 38 40 44 47 43 42 40 39 35 34 36 39 39 38 40 43 42 41 39 39
50 53 52 50 46 46 45 42 39 35 35 41 43 41 42 43 44 39 33 32 33 35 37 39 41 46 51 52 45 41 39 37 36 40 40 39 38 40 43 44 43 41 40 41
56 54 51 46 43 41 40 38 36 41 44 42 41 41 42 42 41 34 33 34 36 38 41 43 47 53 56 50 44 42 39 38 41 42 41 40 42 44 42 43 42 41 42 46
46 45 45 42 42 41 41 43 44 42 41 42 41 41 43 42 36 34 36 37 38 42 46 50 56 59 55 48 44 42 41 42 41 40 40 41 40 40 40 41 41 44 49 54
49 49 45 45 47 48 49 46 43 41 39 39 40 41 43 40 35 36 38 40 43 46 51 58 60 57 50 46 44 44 43 43 41 40 39 40 39 38 39 41 46 51 54 61
52 50 50 49 52 52 49 46 42 39 39 39 41 43 44 38 37 39 41 44 49 53 60 64 59 52 47 47 45 43 42 41 38 38 37 37 36 36 41 46 50 54 61 63
51 51 53 51 49 47 44 41 39 39 41 42 43 43 43 40 40 44 47 51 57 64 63 60 54 51 49 44 41 40 39 37 36 36 35 35 36 42 47 51 53 60 65 62
50 51 50 47 44 43 42 42 41 42 43 44 45 44 45 46 47 50 56 62 65 62 59 55 53 48 43 41 39 37 36 35 35 34 33 37 42 47 51 54 60 67 64 61
53 51 48 47 46 45 44 43 44 44 45 47 48 49 51 53 58 62 67 65 61 58 54 52 46 43 41 38 37 36 35 33 32 34 38 42 46 51 55 60 65 66 63 64
53 51 51 50 49 49 48 47 47 48 49 50 53 57 61 66 68 66 63 62 58 54 50 47 44 41 40 39 37 35 33 33 36 39 43 47 51 56 60 65 66 65 65 67
52 50 50 50 50 50 48 49 50 52 54 57 63 66 66 63 60 59 57 54 48 47 47 44 42 41 39 38 35 32 34 39 42 46 51 56 59 62 65 65 64 64 67 65
52 53 52 52 52 52 52 53 56 59 62 64 65 62 59 59 55 54 49 45 49 48 46 44 42 40 38 35 33 37 41 46 53 59 64 66 66 64 64 63 63 65 64 64

GFSNGP_prec_cthk_018.txt.gz
RH
59 59 55 56 61 60 60 53 59 52 58 51 53 54 40 36 39 43 48 54 58 56 54 62 57 54 55 52 51 53 51 48 47 47 43 38 34 32 30 26 25 24 23 23
63 61 59 57 55 57 58 58 52 51 50 50 56 47 37 40 44 48 55 61 60 52 61 65 60 57 50 51 53 52 50 50 49 44 40 37 33 29 27 25 25 25 24 20
72 67 65 62 54 53 51 52 50 49 48 57 47 38 35 39 46 55 58 55 52 59 68 60 55 49 49 52 53 53 53 52 47 43 38 34 30 27 26 26 26 25 21 18
72 67 83 57 54 51 52 47 48 50 52 46 43 41 42 48 53 55 54 53 57 62 59 49 45 46 50 54 56 55 53 50 43 39 35 31 28 26 26 28 26 22 20 18
74 67 59 54 53 54 53 42 44 47 49 49 50 51 54 55 57 55 54 59 62 53 46 42 45 50 54 56 55 51 51 45 41 36 32 29 26 27 29 27 23 20 19 20
80 72 65 53 54 51 48 41 39 44 48 52 53 54 56 59 58 60 63 60 47 40 38 44 50 53 55 55 52 52 49 43 38 33 29 27 28 30 28 23 21 20 20 20
89 94 57 58 62 57 56 56 56 53 51 53 56 56 59 62 63 61 55 44 36 37 43 47 52 55 54 52 53 52 47 39 33 29 27 29 31 29 23 21 20 21 21 23
88 79 68 62 64 61 55 55 55 54 53 57 62 64 64 61 56 48 38 34 37 43 47 50 53 54 52 53 51 48 39 32 29 27 30 32 28 24 22 23 22 23 24 26
69 66 66 63 59 56 55 61 61 60 64 64 61 59 55 46 38 33 34 39 43 46 49 51 54 52 51 50 49 37 31 28 28 31 32 30 26 23 25 25 26 27 28 31
67 62 60 66 67 63 63 60 62 60 57 52 48 44 40 35 34 37 40 42 44 47 50 51 53 51 50 49 33 29 27 30 33 34 31 28 25 27 28 29 29 30 32 36
61 64 66 61 62 62 62 60 56 54 51 49 44 38 35 38 39 39 41 43 45 47 51 53 50 50 44 29 27 28 32 35 36 33 30 27 28 30 30 30 31 36 37 39
60 58 57 56 54 53 55 58 61 60 55 46 38 38 39 39 39 40 41 43 47 53 52 51 47 34 27 27 29 33 36 38 35 32 30 30 30 30 31 33 37 40 41 41
58 59 58 56 52 52 56 58 61 58 48 40 38 38 37 38 38 39 43 50 53 50 48 42 29 27 28 30 33 37 40 39 36 34 33 33 31 32 32 34 38 40 41 43
51 51 54 53 52 53 56 59 56 45 40 39 37 36 33 36 40 43 49 49 47 46 35 29 28 29 31 34 38 42 44 41 37 34 34 34 35 35 36 37 39 41 41 44
51 52 55 54 55 58 61 59 42 39 38 36 33 34 38 38 45 47 44 44 42 31 29 29 30 31 34 38 43 46 47 41 36 34 35 36 37 38 39 41 45 44 43 42
63 60 61 62 62 59 51 40 37 38 38 38 37 34 37 44 43 42 43 41 31 29 29 30 32 35 39 43 47 49 46 39 36 35 38 39 39 40 40 44 44 44 43 42
59 61 55 56 49 44 40 43 46 44 39 35 35 42 44 42 43 43 41 31 29 30 31 33 36 40 44 48 50 50 43 38 37 37 39 40 40 41 44 44 43 42 40 41
66 63 61 62 58 51 49 44 40 36 35 39 45 43 42 42 43 43 34 31 31 32 34 37 40 43 49 53 53 48 42 40 37 39 40 40 40 40 40 40 38 39 40 43
72 63 53 47 45 43 40 38 36 38 46 46 43 43 43 43 43 40 33 32 32 35 37 40 43 49 56 56 51 45 42 38 40 41 41 40 38 38 37 35 37 42 46 50
59 52 48 44 42 40 38 40 48 49 46 43 42 43 43 44 43 38 34 34 36 38 42 46 52 59 58 53 47 44 41 42 43 42 39 38 36 33 34 37 42 46 50 55
55 53 49 43 42 47 51 51 49 46 43 42 42 43 43 42 41 39 37 39 40 44 49 56 62 58 52 48 44 44 43 43 41 39 36 35 32 34 38 41 45 49 54 60
62 60 55 54 52 51 50 48 47 47 45 44 43 43 44 44 43 42 42 45 49 54 60 62 57 53 48 42 43 41 39 38 35 33 33 31 33 37 40 44 49 54 60 62
57 54 52 50 51 50 50 50 49 48 47 47 46 45 44 44 44 47 50 56 61 63 59 56 52 44 40 41 40 39 38 36 34 33 30 32 36 39 45 49 54 59 61 59
55 54 54 53 52 51 51 51 51 50 49 47 47 46 46 48 52 57 61 63 58 56 54 46 40 40 40 40 39 38 36 34 33 30 33 37 43 49 52 55 58 61 59 59
56 57 56 54 53 53 53 53 51 50 49 48 49 50 54 58 61 60 57 56 54 48 42 40 40 40 41 39 38 37 35 33 32 35 41 46 52 56 57 58 59 59 58 58
59 57 55 53 53 54 54 53 52 52 52 53 55 58 60 59 56 58 57 50 45 41 40 40 41 41 40 39 37 35 33 33 37 42 49 56 60 61 59 57 57 56 56 56
56 55 55 55 56 55 55 55 54 55 57 59 59 59 58 57 57 55 51 44 43 42 41 42 41 40 39 36 35 34 36 40 46 54 60 61 60 58 56 54 54 56 54 55

GFSNGP_prec_cthk_021.txt.gz
RH
60 63 64 70 72 73 74 68 61 57 56 54 54 55 50 51 49 43 42 44 47 49 53 57 58 55 62 62 59 57 54 52 53 53 48 43 38 33 31 29 27 27 28 30
64 59 58 58 56 59 58 59 55 54 52 57 51 51 54 52 50 42 43 47 50 55 61 62 57 60 67 60 57 54 53 55 55 51 45 39 34 32 30 29 28 30 30 26
71 62 60 60 51 48 48 48 51 50 48 52 48 51 53 49 45 41 42 48 56 62 63 59 59 64 62 56 53 52 55 56 53 48 40 36 33 31 30 30 30 29 25 20
79 68 78 55 51 49 48 47 49 49 50 50 48 51 55 49 46 41 45 54 60 61 61 60 65 61 53 50 51 55 56 53 49 43 38 34 31 31 29 30 29 24 21 19
77 70 62 57 54 53 53 50 48 48 47 48 53 56 53 49 47 49 55 57 60 60 62 67 58 50 50 52 55 56 53 49 45 40 35 32 29 28 30 28 23 21 20 20
77 73 71 57 54 52 52 52 45 41 46 50 55 55 52 51 53 53 55 59 61 63 64 56 46 46 51 55 55 52 50 46 42 37 32 27 27 29 28 24 21 21 21 22
91 84 70 58 58 56 56 55 48 42 43 48 51 53 56 59 62 64 62 63 64 55 50 42 42 48 52 54 51 47 46 46 38 30 25 27 30 28 24 22 23 23 23 23
96 95 85 63 59 60 61 60 53 53 56 57 61 62 61 58 58 60 59 56 50 43 38 42 47 50 50 47 45 48 48 36 27 25 28 30 29 26 24 25 25 24 24 25
77 75 69 65 66 64 62 60 57 57 58 56 56 58 59 59 58 54 48 40 36 39 42 45 48 49 44 46 51 47 31 25 26 29 31 31 28 27 27 27 26 25 26 28
70 68 70 69 66 59 61 59 58 59 59 64 60 61 56 49 41 36 34 37 40 41 43 45 46 46 49 50 44 28 25 27 30 33 33 31 30 29 28 27 28 29 30 32
71 72 62 60 64 64 63 63 61 61 57 55 51 48 44 39 36 37 40 40 40 41 43 44 49 50 47 36 26 26 28 31 35 36 35 33 31 30 29 30 33 35 36 37
56 56 54 54 59 60 56 51 51 52 53 55 53 47 42 39 40 40 38 39 41 43 47 50 47 43 31 26 26 29 32 36 38 39 37 33 31 30 31 33 33 34 36 43
53 56 59 61 62 60 57 54 55 52 52 50 45 39 42 43 39 37 38 40 42 49 47 44 41 29 26 27 30 32 36 39 40 41 37 34 34 32 31 28 31 33 38 43
56 54 53 51 52 53 53 52 55 52 49 45 39 39 38 35 35 37 39 44 47 46 44 40 28 27 28 31 32 35 39 43 44 42 37 37 35 34 33 31 31 33 36 40
45 46 47 49 50 53 55 56 58 55 50 42 39 34 32 35 39 40 41 46 45 44 38 29 28 29 31 32 35 39 44 47 47 42 39 38 35 34 33 34 37 37 35 31
47 51 55 58 61 64 64 62 61 53 40 36 34 33 37 39 36 41 45 45 44 40 30 30 30 31 32 35 39 43 48 49 46 43 40 36 36 34 35 38 36 35 34 37
59 61 57 53 53 56 59 55 41 39 41 41 40 39 35 35 45 46 44 43 42 33 31 30 31 33 36 39 43 49 51 49 46 43 39 38 36 36 38 36 35 34 36 41
53 51 54 53 56 56 51 49 51 48 42 38 35 34 40 47 46 44 43 43 36 32 31 32 34 36 40 44 49 53 51 47 44 40 39 38 37 37 36 36 34 35 38 42
59 60 63 64 64 59 54 48 41 38 37 35 36 46 47 46 44 43 44 42 34 32 34 35 37 40 47 52 55 53 49 43 42 41 39 37 36 36 35 34 34 37 42 46
70 72 65 56 50 44 41 39 38 37 37 44 47 46 44 44 44 46 47 42 37 37 36 39 43 49 54 57 53 49 42 43 41 39 37 36 35 34 33 33 38 43 47 50
65 58 51 47 45 42 40 40 40 45 48 48 46 45 44 45 48 49 46 40 40 40 42 47 53 58 57 52 48 40 41 40 38 36 35 36 35 33 34 38 45 49 50 54
59 54 51 48 45 43 45 49 50 50 49 47 46 46 48 50 50 46 42 41 43 47 52 58 59 54 50 43 40 39 38 36 34 35 36 35 34 33 38 45 50 51 53 56
61 59 57 52 53 55 54 52 51 50 49 50 50 51 50 48 46 44 46 48 51 57 59 55 53 46 40 40 38 36 35 35 35 35 35 33 34 38 45 51 54 53 55 55
67 58 56 56 56 56 55 54 53 53 54 54 52 49 49 48 47 49 52 56 58 54 53 50 44 41 40 38 37 35 35 36 35 34 33 35 40 46 53 55 55 54 54 54
57 58 59 59 58 58 57 56 56 56 55 53 52 51 51 51 53 56 56 53 53 50 45 43 42 41 40 38 36 34 35 34 34 35 36 40 47 54 55 55 54 53 51 54
62 62 62 61 59 57 57 59 59 56 55 54 54 55 57 57 54 51 52 50 47 43 43 42 41 40 38 35 34 33 34 35 35 38 43 50 55 55 54 52 51 50 49 51
63 61 60 59 59 60 61 60 57 56 56 56 58 58 55 52 52 51 49 46 43 43 41 41 40 36 34 33 33 36 36 37 41 45 52 56 55 54 53 51 50 48 49 51

GFSNGP_prec_cthk_024.txt.gz
RH
84 80 79 76 74 74 69 62 63 62 55 55 55 49 45 45 47 49 49 48 49 50 52 51 50 51 56 61 58 63 68 60 56 56 54 50 44 35 30 29 30 28 28 26
70 76 77 76 75 73 68 67 63 63 59 57 55 56 53 57 54 53 53 51 50 50 51 52 53 58 61 61 60 67 63 57 56 54 52 48 38 31 30 30 28 27 24 22
77 65 67 68 60 62 66 62 60 64 57 61 60 60 56 52 52 52 53 54 51 54 55 56 61 63 61 59 68 64 57 57 55 52 49 40 32 32 31 28 27 24 21 18
84 70 79 57 54 51 50 48 51 54 54 57 56 55 53 53 52 55 53 49 48 52 55 61 64 61 62 69 63 57 56 53 53 50 41 33 33 31 28 27 24 21 19 19
84 76 70 62 58 56 56 51 47 47 51 57 55 54 58 55 58 58 51 49 52 56 62 62 62 64 66 60 56 54 52 52 49 41 36 34 29 27 28 25 22 20 20 19
87 84 79 66 58 53 51 59 52 50 51 52 53 58 59 59 59 58 58 57 58 59 62 66 68 65 55 52 51 51 50 48 42 38 34 28 28 29 26 23 22 21 20 20
90 87 77 67 61 56 60 60 52 49 46 46 50 52 56 58 59 56 57 62 66 64 63 62 55 51 47 48 49 48 46 44 41 33 27 29 30 29 26 23 22 21 21 21
93 91 88 68 64 64 65 62 58 54 54 55 55 55 56 59 60 60 60 58 59 60 55 49 44 44 47 47 46 45 47 41 31 27 30 31 31 29 25 24 23 23 23 23
84 80 72 69 68 64 63 62 62 60 56 56 57 58 60 60 57 56 60 61 56 48 39 40 44 46 47 45 45 48 38 28 26 30 32 33 32 28 25 26 26 26 26 26
75 73 72 73 69 67 65 60 60 58 58 56 59 63 63 62 61 56 50 39 35 37 40 43 45 46 44 46 46 36 27 27 30 32 33 34 32 28 28 28 28 28 29 30
75 74 74 72 71 67 62 64 63 61 59 57 56 55 51 48 46 43 40 39 41 41 41 43 44 44 47 45 33 26 28 30 32 34 35 35 32 30 30 30 32 32 33 35
77 74 72 67 63 62 61 57 53 50 49 49 46 47 47 46 42 41 43 44 41 41 41 42 46 46 43 32 27 28 30 32 35 37 38 37 32 30 31 31 31 33 34 39
68 58 58 57 55 59 60 61 59 53 52 51 50 48 46 42 40 41 40 40 40 40 43 47 46 44 30 28 29 30 31 34 37 40 40 37 35 32 29 28 31 32 31 34
58 59 62 61 59 57 54 51 51 50 52 50 47 48 41 37 39 39 38 38 40 45 47 46 43 31 29 30 31 32 34 37 40 44 42 38 36 34 34 33 31 26 27 32
54 50 47 47 47 48 49 51 52 54 55 53 50 46 40 35 34 36 40 43 43 46 46 43 33 30 30 31 32 34 37 41 46 46 43 40 35 36 35 33 30 29 30 30
52 50 47 47 48 52 57 61 60 61 58 53 46 38 31 34 41 44 39 41 47 46 44 34 31 31 31 33 35 37 43 47 48 45 42 36 37 35 34 31 30 32 33 31
50 54 55 59 59 60 59 59 55 53 52 43 37 39 44 45 39 36 41 48 47 45 37 33 32 33 34 34 37 44 48 50 47 42 37 37 36 36 32 30 32 33 32 37
59 61 60 58 57 55 55 56 53 50 44 45 46 42 39 37 36 42 48 48 47 42 36 36 35 33 34 38 44 50 51 48 42 37 38 37 37 33 29 32 32 32 35 41
56 56 58 58 58 59 58 57 51 50 48 42 39 39 38 37 44 49 49 48 45 41 40 36 35 37 41 47 51 52 47 40 37 38 38 36 31 29 31 33 33 36 41 46
69 68 66 68 69 68 62 55 49 42 39 39 39 38 39 47 52 51 50 48 45 44 39 39 40 43 50 52 50 46 38 37 36 37 35 31 29 31 33 32 35 39 46 49
73 73 71 67 59 54 50 46 41 41 40 40 40 43 50 52 51 51 50 48 45 42 41 43 48 54 52 47 42 37 37 36 36 35 31 29 31 33 32 33 38 46 50 50
67 63 60 55 51 49 44 43 44 44 44 45 49 53 53 52 51 51 48 45 44 44 48 54 53 49 45 39 38 37 36 36 35 31 29 31 33 33 34 38 45 50 50 50
62 60 57 52 50 46 47 48 48 50 55 55 55 55 53 53 51 47 47 48 49 54 54 49 46 41 38 37 36 36 35 33 30 29 31 34 34 35 41 46 51 51 49 48
62 61 60 57 53 51 52 57 58 58 58 57 56 55 54 51 49 50 51 54 54 49 46 42 38 37 36 36 36 34 32 30 30 32 34 34 37 42 47 51 50 49 47 45
66 62 60 59 59 61 60 62 60 59 58 58 57 54 52 52 54 56 54 49 47 43 40 38 37 36 36 35 32 30 30 31 33 34 34 38 43 47 50 49 48 47 46 45
62 59 59 60 62 62 62 62 61 60 60 58 56 55 57 58 55 50 49 46 42 40 39 37 37 36 34 31 30 31 32 33 32 34 39 44 48 51 49 48 47 45 44 48
60 61 62 64 64 64 63 62 62 60 58 58 58 59 56 51 50 49 45 42 40 39 37 37 36 33 31 31 31 31 30 32 37 41 45 50 51 49 48 47 46 45 45 54

GFSNGP_prec_cthk_027.txt.gz
RH
88 89 85 88 85 84 88 81 73 65 62 56 50 46 44 44 46 46 47 49 49 51 54 55 53 53 56 56 57 60 68 68 66 73 62 59 55 43 32 29 28 32 30 25
94 80 79 81 76 78 79 77 74 73 65 59 54 50 50 50 51 56 57 57 58 57 58 58 55 54 54 57 63 71 70 66 75 65 60 56 42 34 29 29 33 30 25 20
92 88 78 78 70 69 69 66 68 71 64 58 58 57 57 57 57 58 57 55 55 57 58 58 58 58 58 64 71 69 70 77 67 62 55 45 35 29 31 34 30 26 21 19
86 72 80 66 62 63 73 69 68 64 73 64 59 57 56 56 56 57 57 57 56 53 55 56 57 58 65 70 68 71 77 67 60 55 47 35 29 33 34 30 27 23 21 19
83 81 70 61 58 60 60 58 59 56 64 66 60 58 58 57 57 58 56 59 62 59 54 55 60 69 70 71 75 75 63 57 52 48 36 31 35 34 31 28 25 22 20 19
91 86 81 65 60 55 56 61 53 52 52 53 54 58 63 61 58 58 61 61 63 64 64 67 69 75 73 72 66 60 53 50 47 36 34 36 33 32 31 27 23 22 21 21
89 87 76 68 64 60 61 57 53 52 53 53 55 56 60 62 60 61 62 62 63 68 72 72 70 69 67 61 54 50 49 45 38 36 35 34 33 32 29 26 24 23 22 22
90 91 87 66 64 62 62 59 57 52 52 53 54 55 57 58 59 62 66 68 70 70 66 67 67 59 50 49 48 48 44 39 37 33 34 34 33 32 29 26 25 24 23 25
86 80 71 70 66 65 65 63 63 61 60 58 59 59 60 62 64 65 63 62 63 68 64 53 42 44 47 48 46 43 42 36 32 33 34 35 34 33 30 28 26 24 26 28
84 76 75 73 69 68 66 62 61 61 61 61 60 61 63 65 64 65 66 61 54 46 40 41 46 48 47 44 43 42 33 32 33 34 35 36 36 34 31 29 26 29 30 30
79 76 74 73 70 69 69 66 63 62 62 61 59 59 56 54 52 48 45 43 42 42 45 47 47 46 43 45 41 33 32 32 34 35 36 37 37 34 32 29 30 32 32 32
79 75 71 72 73 71 66 65 67 60 54 49 47 48 47 45 45 44 42 42 43 45 45 46 45 44 46 40 33 32 33 34 35 36 38 38 36 34 31 30 30 31 33 32
76 74 73 71 70 67 59 61 61 60 58 54 50 47 46 45 45 45 42 43 43 44 44 43 46 46 40 35 33 34 34 35 37 39 40 39 36 31 28 29 29 28 29 31
73 68 64 64 63 60 64 64 60 55 50 48 48 48 46 48 49 44 42 42 41 43 47 46 45 44 36 34 34 34 35 36 38 41 41 39 33 31 31 28 26 24 24 27
63 60 64 65 62 58 54 51 51 51 51 54 55 54 50 46 42 39 38 42 48 50 43 47 47 37 35 34 35 35 34 38 42 43 40 34 32 31 30 29 28 25 23 24
61 58 59 55 52 51 51 51 53 57 60 61 58 50 44 42 41 44 47 50 45 42 48 48 39 36 35 36 36 34 38 44 43 41 34 32 32 30 29 29 26 25 26 28
59 61 59 58 57 58 57 60 64 64 59 54 50 46 43 43 47 49 45 43 42 49 50 42 38 37 37 36 35 39 45 45 42 34 31 32 31 30 29 26 25 27 28 31
53 54 57 59 61 68 66 61 60 56 53 53 48 44 47 50 45 43 42 41 49 52 46 42 40 39 37 37 41 46 46 41 34 31 31 31 30 29 27 25 27 28 29 33
62 63 63 63 61 61 60 59 56 55 56 53 47 49 46 44 43 42 42 53 54 49 45 43 41 38 39 43 48 46 40 33 31 30 30 30 28 26 25 27 29 29 33 39
63 65 65 66 67 70 66 63 64 60 53 48 44 43 44 44 43 44 56 55 51 49 47 43 41 42 47 49 44 37 32 30 30 30 29 28 26 25 28 29 30 34 39 43
74 76 76 77 75 74 70 63 54 48 47 45 44 44 44 44 51 58 56 53 51 48 45 44 47 51 47 41 33 32 31 30 29 29 28 27 26 28 28 30 35 39 43 45
73 73 73 70 68 65 59 53 47 46 45 46 47 48 49 55 58 57 55 53 51 49 48 51 49 43 36 32 32 31 30 29 28 28 27 27 27 28 30 35 39 43 44 42
73 71 66 61 58 55 52 49 48 47 48 49 50 54 58 60 59 56 54 52 51 52 50 45 40 35 33 32 31 30 28 27 28 27 26 26 28 32 36 40 43 43 41 41
67 62 59 58 56 55 54 53 51 52 53 57 59 60 61 60 57 55 54 53 50 46 43 38 35 33 32 31 30 28 27 28 27 24 26 29 32 37 40 43 42 41 41 41
65 64 59 55 55 56 57 59 60 61 61 62 62 63 61 58 57 55 50 47 45 41 38 36 34 33 32 30 28 28 28 26 24 26 29 33 36 39 43 42 41 41 41 46
71 68 65 63 63 64 64 63 62 63 64 65 64 62 59 57 52 48 47 44 41 38 35 34 33 32 30 29 28 27 24 24 27 30 34 38 42 43 42 42 42 41 43 54
71 67 62 64 62 62 62 65 66 66 67 65 62 59 54 50 48 46 43 41 38 36 35 34 32 30 29 28 26 23 25 29 33 36 39 44 45 43 43 42 44 43 52 55

GFSNGP_prec_cthk_030.txt.gz
RH
97 96 98 89 91 90 83 81 84 76 90 67 55 50 47 48 50 50 50 50 49 49 50 51 53 54 56 58 59 61 62 62 66 75 77 71 75 58 47 36 33 32 31 33
99 94 97 96 94 92 93 94 97 86 74 61 56 50 49 50 50 50 53 55 56 56 57 58 61 63 62 62 63 61 63 67 76 79 75 77 63 48 37 33 33 34 34 27
94 92 96 98 96 95 97 94 89 80 65 58 54 52 54 54 55 57 62 61 60 59 62 63 65 66 63 63 64 64 66 79 81 79 80 65 49 38 36 33 37 34 28 25
97 76 79 70 66 73 75 75 71 74 65 60 60 62 61 61 61 62 64 65 63 59 60 62 66 66 66 64 62 70 80 81 82 81 65 50 38 34 33 39 35 30 26 23
95 86 74 69 64 64 70 72 72 68 65 66 64 62 64 62 63 63 62 62 62 64 68 70 64 61 61 67 78 79 82 82 76 63 46 36 34 35 40 36 31 28 26 24
89 84 79 66 62 59 63 71 63 62 59 60 65 68 65 62 61 62 63 63 67 68 69 71 69 70 76 79 80 78 78 69 55 45 37 33 36 41 37 33 30 28 26 24
87 87 75 68 65 60 62 61 58 57 55 54 57 59 61 60 62 62 65 68 69 69 69 71 76 79 76 73 76 71 56 50 45 36 33 38 40 37 34 33 30 28 25 23
87 87 77 66 66 62 60 58 56 55 55 56 58 60 62 63 61 62 63 66 69 73 74 76 76 73 74 69 53 49 49 44 36 33 39 40 38 37 35 33 30 26 24 23
76 78 71 71 66 66 65 64 63 59 57 56 58 60 63 64 66 68 70 73 73 72 70 72 74 62 49 48 51 49 45 35 33 38 40 38 38 37 35 32 28 26 24 25
77 73 74 73 70 69 67 66 65 64 64 64 65 66 68 68 69 70 70 69 70 68 62 52 46 47 50 49 48 43 34 34 38 39 38 39 39 37 34 30 27 26 26 26
80 77 75 74 74 72 71 70 67 66 65 65 64 65 65 64 62 58 56 54 50 46 43 43 46 49 49 45 40 37 35 37 38 37 39 39 37 35 33 29 27 28 28 28
82 76 76 73 74 75 72 70 69 66 67 66 61 54 51 52 50 46 45 44 43 42 45 48 50 47 42 42 38 35 38 37 37 38 39 38 37 36 32 28 27 26 25 27
82 82 79 77 77 79 74 72 69 66 60 56 57 52 47 46 46 42 42 45 46 47 49 48 45 44 47 36 36 38 38 37 37 39 39 38 37 33 27 26 26 25 24 23
81 80 81 79 79 77 74 64 64 64 61 55 48 45 44 44 45 44 46 46 45 44 45 47 50 48 35 38 38 38 37 37 38 40 40 39 34 29 27 25 24 24 23 23
82 75 72 70 71 70 68 68 64 56 51 48 46 46 50 50 47 43 46 45 46 49 52 52 44 38 40 39 39 38 37 37 41 42 40 34 29 28 26 25 24 23 21 21
75 72 70 74 69 65 60 54 52 51 51 52 55 58 54 47 41 43 46 49 51 54 47 44 40 42 41 40 38 38 38 42 43 41 34 30 28 27 25 24 24 23 22 23
70 67 64 66 61 59 58 55 54 56 58 61 58 52 46 45 44 46 49 55 49 46 43 43 45 43 42 41 40 41 44 45 42 34 29 28 27 25 24 24 25 23 23 25
62 63 61 60 61 63 63 64 64 64 61 56 51 48 47 45 46 53 50 46 45 44 46 48 46 44 43 43 44 46 45 40 32 28 27 27 25 24 24 25 24 23 25 28
61 57 60 61 62 65 68 65 62 56 53 52 50 49 51 52 51 47 47 47 45 51 51 50 48 46 46 48 49 45 37 30 28 28 27 25 24 24 24 23 24 26 30 34
69 69 70 72 72 68 64 64 62 58 58 57 55 49 47 48 49 48 47 47 55 54 53 50 48 48 50 48 42 35 30 28 28 27 25 24 24 23 22 24 27 31 34 38
66 67 70 68 70 69 72 72 70 67 59 53 48 46 47 48 49 50 54 60 58 55 52 50 51 51 45 39 33 30 29 28 27 25 24 23 22 22 24 27 31 34 37 39
70 73 72 71 74 71 70 69 62 53 49 48 48 49 51 52 53 58 61 59 55 53 52 53 48 42 37 33 31 29 28 27 25 24 22 21 22 25 28 31 34 37 38 38
69 73 75 73 68 68 65 58 54 51 49 49 49 51 53 58 61 62 59 56 55 56 51 45 40 36 33 31 29 28 27 25 24 21 21 23 26 29 33 37 38 38 37 37
68 74 71 66 62 57 55 55 54 53 52 52 55 59 61 64 62 59 58 58 54 48 42 39 36 33 31 30 29 27 25 24 21 22 24 28 31 34 37 38 38 38 38 40
74 72 63 60 56 53 53 54 57 58 60 62 63 64 64 63 62 60 56 50 45 41 38 36 33 31 31 29 27 26 24 22 23 25 29 32 35 39 39 39 39 39 40 50
69 67 66 59 56 57 58 61 62 64 64 64 66 66 64 61 57 52 48 43 40 38 36 33 32 32 30 28 26 24 23 25 27 31 34 38 41 42 41 41 39 41 49 52
69 66 65 66 64 64 64 65 65 64 66 68 66 64 60 54 50 46 43 40 38 36 33 33 32 30 28 26 24 24 26 28 32 36 39 43 44 45 45 40 39 47 54 54

GFSNGP_prec_cthk_033.txt.gz
RH
97 96 97 98 95 90 80 66 74 65 72 68 66 70 71 74 68 63 62 59 56 54 53 53 52 51 51 52 54 56 59 63 66 68 67 70 74 80 72 66 51 38 36 33
97 95 97 95 95 91 86 78 78 87 79 71 75 75 73 72 63 59 57 56 55 53 54 55 56 56 57 58 60 62 64 67 69 68 69 77 83 79 70 53 39 35 33 33
97 99 98 98 95 86 87 83 78 93 80 76 70 65 62 65 61 57 56 56 58 60 62 62 63 63 64 65 67 68 69 69 68 70 81 85 81 72 53 37 35 34 34 36
99 94 97 88 87 91 91 92 93 92 87 78 72 68 66 65 60 59 62 66 67 68 68 67 67 68 70 70 70 70 67 66 74 85 86 82 71 49 36 36 35 37 38 32
98 98 84 73 89 92 93 95 94 90 81 73 73 68 65 63 62 64 67 70 70 70 69 69 70 71 72 72 66 64 70 81 85 85 80 67 42 37 36 36 40 38 33 30
90 93 86 73 65 72 84 91 83 87 85 75 70 72 70 69 68 69 69 69 68 70 72 75 78 77 74 70 70 78 82 82 81 77 52 41 37 36 37 42 39 34 33 28
89 85 80 73 72 68 70 72 73 72 72 67 68 72 69 66 64 65 66 68 69 72 75 76 76 75 76 80 82 81 80 78 60 47 42 37 35 39 42 39 37 35 30 26
84 89 77 71 67 63 63 63 63 62 62 62 62 65 67 67 66 66 67 69 71 72 72 75 78 79 80 78 76 76 59 51 50 43 36 35 41 41 40 39 36 31 28 25
72 80 71 72 69 69 67 65 64 61 62 59 59 61 63 64 67 66 65 67 71 75 78 78 76 75 77 71 55 52 53 49 42 33 37 41 41 42 40 37 33 29 26 23
69 67 73 72 70 69 67 67 64 62 58 56 58 61 63 64 66 68 70 72 74 74 73 70 68 60 51 52 52 52 48 38 33 38 40 41 42 41 38 35 31 27 24 24
76 76 81 75 74 73 70 70 68 67 66 65 65 67 67 68 69 70 70 66 62 61 59 53 49 49 52 53 51 44 37 37 37 39 41 42 41 40 38 34 28 26 25 24
81 76 74 72 75 75 73 72 72 70 69 69 68 66 66 66 61 56 54 53 50 49 48 47 50 52 52 47 42 41 37 36 40 41 42 41 40 40 36 30 26 25 23 23
78 80 79 78 76 77 75 76 75 73 72 73 69 61 55 53 51 48 48 46 45 46 48 49 49 48 45 45 43 35 37 40 41 41 41 41 40 36 29 27 25 23 22 21
81 82 85 84 81 81 82 78 75 73 69 65 62 55 48 45 46 46 47 46 46 47 48 49 50 50 51 41 34 38 41 41 41 42 43 42 36 30 26 24 22 21 21 21
82 81 78 80 82 83 82 79 69 68 67 59 50 46 45 48 51 50 45 44 45 48 50 51 54 51 38 36 39 42 42 41 43 45 43 37 30 26 24 23 22 21 20 21
82 79 77 78 78 78 75 73 71 65 54 51 49 50 54 54 51 46 43 45 47 50 54 55 48 40 38 42 44 44 43 46 47 44 36 29 26 25 24 22 22 21 20 20
80 80 78 81 79 72 65 61 57 54 53 54 56 59 58 50 49 45 46 48 53 57 50 47 42 40 45 46 45 45 48 48 43 34 28 26 25 24 23 22 21 20 20 23
73 69 67 67 69 63 60 59 59 62 63 63 60 58 53 46 45 47 48 54 53 50 47 43 44 49 48 47 48 50 48 41 33 29 27 25 24 23 22 20 19 20 22 25
63 66 67 65 66 69 68 69 69 66 65 61 57 51 47 45 50 52 51 50 50 47 45 51 52 51 49 50 52 47 39 32 29 27 25 24 23 22 20 19 20 23 27 29
65 66 66 65 67 68 70 69 68 64 62 60 53 51 52 51 50 50 49 49 48 52 56 55 52 51 53 52 44 37 32 29 27 26 24 23 22 20 20 22 24 27 31 33
65 69 70 73 75 73 70 68 64 63 69 64 57 51 49 49 49 50 52 54 58 59 55 53 53 55 49 41 35 32 29 28 26 24 23 22 20 21 22 25 28 31 33 34
72 73 74 74 72 71 70 67 68 70 64 56 51 48 49 50 52 53 58 61 59 55 53 55 52 45 39 35 32 29 28 26 25 24 22 21 22 23 26 29 32 33 34 35
66 71 73 73 71 74 73 70 68 60 55 52 51 51 52 53 57 62 62 59 56 56 54 48 43 38 34 31 30 28 27 25 24 22 21 22 25 28 32 34 35 35 35 36
66 68 68 74 77 73 72 66 58 57 54 54 54 55 57 62 63 62 59 58 56 50 46 41 37 34 31 30 29 27 25 24 23 22 23 26 30 33 36 36 36 36 36 43
71 72 78 72 71 68 56 55 55 56 56 57 59 62 63 64 63 60 57 52 48 44 40 36 34 32 31 29 27 26 24 23 22 23 26 30 34 37 37 38 39 36 40 51
77 82 75 70 63 58 57 57 56 58 61 61 64 65 65 64 59 54 50 46 42 39 36 34 33 32 29 28 27 25 24 23 23 27 31 35 38 39 40 40 38 38 49 54
77 72 68 65 61 58 59 60 60 61 65 68 67 66 63 56 52 48 45 42 39 37 35 34 32 30 29 27 26 24 22 24 28 31 35 38 41 43 42 39 36 47 54 59

GFSNGP_prec_cthk_036.txt.gz
RH
92 93 96 98 97 98 98 86 80 54 52 53 60 56 56 55 71 78 76 69 67 66 64 64 65 63 60 57 55 53 54 57 59 62 68 71 74 73 69 74 77 69 58 43
94 93 97 98 97 95 95 86 66 57 57 53 52 58 59 68 79 81 79 74 69 63 59 58 58 56 56 56 55 56 58 62 65 69 74 77 74 70 77 80 71 58 42 35
90 95 97 99 98 96 95 89 80 80 76 78 74 68 69 74 75 78 78 71 69 66 61 61 60 59 58 57 59 62 66 69 72 75 77 72 72 82 82 72 56 38 36 36
94 97 95 86 92 96 91 84 78 82 81 85 81 77 75 66 69 72 72 70 67 64 62 62 63 64 64 65 67 70 72 74 76 74 72 79 86 81 73 50 37 38 37 38
98 96 89 73 80 93 93 85 77 80 81 83 84 79 73 69 66 67 68 66 66 69 70 71 70 68 69 71 74 75 76 74 71 77 86 85 80 67 42 39 39 38 40 38
95 96 94 76 66 81 85 89 79 80 81 81 81 76 71 69 69 69 70 74 77 78 79 78 75 75 76 77 80 78 74 75 85 86 83 75 54 42 40 37 40 41 40 37
98 97 87 78 72 72 77 72 81 81 79 81 78 75 77 73 70 70 72 76 77 78 76 77 80 82 82 82 79 80 86 85 82 78 62 49 43 39 37 42 42 41 38 33
89 96 87 81 73 68 64 68 70 71 76 81 82 80 81 75 73 73 73 74 75 75 78 81 83 82 81 84 85 83 79 77 62 54 49 42 35 38 43 42 42 39 34 29
76 77 77 81 77 74 69 65 64 64 64 67 71 74 83 82 79 78 76 75 75 75 75 79 85 85 81 80 79 70 56 56 53 48 38 35 41 41 43 43 40 35 29 27
74 65 69 76 76 76 72 72 68 65 66 68 69 74 73 75 76 76 74 73 76 79 81 80 79 77 71 63 53 55 56 54 44 36 39 40 41 43 44 42 37 31 28 25
76 72 73 74 75 77 74 74 74 70 69 69 69 70 72 73 74 75 77 79 80 78 71 67 63 58 55 55 56 56 51 40 38 39 38 41 43 44 43 39 33 29 26 23
76 75 78 79 79 76 75 74 73 72 71 73 74 74 74 75 76 76 74 67 63 61 56 53 52 53 53 54 52 46 42 41 38 39 41 43 45 45 42 35 30 26 24 22
75 76 80 80 79 79 76 77 77 76 74 72 74 74 72 67 62 61 60 56 53 51 50 51 52 52 52 50 48 46 39 36 39 42 44 46 46 42 34 30 26 24 21 20
79 79 83 84 82 81 82 82 83 81 78 78 74 70 63 56 51 49 48 50 50 48 47 48 49 49 49 49 45 37 37 40 43 45 48 48 41 33 29 26 23 20 20 19
83 82 81 84 85 84 85 86 80 77 76 72 67 55 47 44 46 51 52 50 46 45 46 48 48 49 50 42 38 38 42 44 46 50 48 39 32 28 26 24 22 20 18 16
83 84 82 81 85 84 85 86 79 74 70 65 53 48 48 52 54 54 51 48 45 45 46 47 53 49 42 40 40 44 46 48 52 48 38 31 28 26 24 21 21 18 17 18
83 87 81 81 81 82 82 78 73 67 61 55 54 55 58 56 51 50 49 47 48 47 51 54 49 43 41 43 49 48 51 53 47 36 31 28 26 23 22 21 19 18 19 20
79 79 79 80 79 75 68 64 61 60 60 60 61 62 59 53 50 49 46 50 52 54 52 48 44 44 49 51 50 53 53 44 35 31 28 26 23 22 22 20 19 20 21 23
72 73 74 71 71 72 68 67 67 68 66 69 68 64 59 53 47 48 53 53 53 52 48 47 50 53 51 51 54 50 41 34 30 28 26 24 22 21 20 20 21 22 25 27
67 69 70 71 71 72 72 73 73 72 72 71 66 62 54 52 54 54 53 53 51 50 50 55 53 51 53 53 46 38 33 30 28 26 24 23 22 20 21 23 24 26 28 30
66 68 70 71 72 74 74 76 73 72 70 69 63 59 56 55 54 53 53 52 52 55 56 54 52 54 50 43 36 32 30 28 26 24 23 22 21 22 23 25 27 29 30 31
66 71 71 70 72 76 75 71 66 68 74 72 63 56 53 52 53 52 53 55 58 57 54 54 53 47 40 35 32 30 28 26 25 24 23 23 22 24 25 28 30 31 32 32
65 71 75 79 81 79 77 76 70 74 68 60 56 53 53 52 53 55 59 60 57 55 54 49 44 38 34 32 30 29 27 25 24 24 23 23 25 26 29 32 33 34 34 33
66 69 72 72 70 69 72 71 72 64 60 57 55 54 54 55 59 63 61 57 55 52 47 41 37 33 32 31 29 28 25 25 25 23 23 25 27 31 33 35 35 35 33 40
69 70 71 69 68 76 71 74 64 57 57 55 55 56 60 64 63 60 57 54 50 44 39 36 34 32 32 30 28 26 25 24 22 21 24 28 31 34 36 38 37 34 35 49
71 72 72 78 79 77 71 58 56 57 57 57 59 63 66 64 61 57 52 47 42 40 37 35 33 32 30 28 27 25 23 20 22 25 29 32 34 36 39 39 35 33 46 55
74 78 83 76 75 65 60 59 57 58 60 62 64 67 65 61 56 51 46 43 41 39 36 34 32 31 29 27 25 21 20 23 26 29 31 35 37 40 39 36 35 43 54 62

GFSNGP_prec_cthk_039.txt.gz
RH
87 88 93 97 97 98 94 79 81 64 65 55 55 67 71 71 78 74 63 65 68 64 64 69 73 79 81 82 80 77 72 68 68 64 62 66 71 75 78 80 79 71 69 68
92 88 92 98 97 98 85 74 76 70 69 63 59 66 75 77 77 70 71 78 71 73 75 77 79 82 83 81 78 73 71 66 60 63 69 74 78 81 82 80 73 75 70 61
87 81 87 88 97 98 88 77 73 78 71 67 68 67 74 77 83 85 82 74 74 76 79 80 82 81 79 74 69 64 61 62 66 71 76 80 83 83 76 77 80 71 57 41
87 88 89 79 89 95 89 78 71 70 71 72 75 70 74 84 83 82 78 74 72 72 71 69 68 66 65 63 61 61 65 70 74 78 81 83 80 76 84 82 68 50 40 40
93 93 82 75 79 94 92 80 81 77 66 67 66 65 69 77 79 83 83 77 75 71 69 69 69 67 68 68 68 70 73 76 79 82 82 78 82 88 80 60 42 41 40 39
93 95 92 77 75 84 90 86 88 84 79 75 76 77 74 76 76 77 78 76 73 73 74 76 76 75 73 73 74 76 79 82 83 80 82 89 84 71 47 41 41 39 42 41
93 96 83 79 73 78 87 88 84 89 88 86 85 83 79 80 80 80 80 81 82 83 85 85 82 79 78 81 83 84 84 82 85 89 84 74 54 43 40 38 40 43 42 40
88 91 88 77 72 71 73 77 83 82 83 87 86 85 82 79 79 80 82 84 84 83 83 83 84 85 85 84 83 83 86 85 81 72 54 49 43 38 38 43 43 43 41 36
78 74 67 74 76 76 71 71 71 71 79 85 85 87 84 81 80 82 83 83 83 83 83 84 84 84 85 88 85 81 77 64 54 53 50 41 36 40 43 43 45 42 36 33
77 70 66 66 74 77 74 74 67 67 69 71 76 80 81 85 83 81 81 83 82 81 83 85 87 86 83 77 70 61 57 56 53 47 38 38 42 40 44 46 42 36 34 30
79 71 71 70 73 77 75 78 71 68 67 70 71 74 74 78 80 81 81 83 86 87 87 81 74 71 66 60 57 55 54 50 43 40 41 40 41 45 47 43 38 34 29 24
77 72 72 75 78 80 76 76 75 73 72 72 72 74 76 80 82 83 84 86 81 75 71 67 63 60 58 55 53 51 45 43 41 40 39 42 46 48 45 38 32 28 24 21
71 72 75 79 81 77 77 76 75 74 73 74 76 78 80 80 79 77 75 72 69 65 63 60 57 55 51 49 47 44 44 41 39 39 43 47 49 45 37 33 28 24 20 19
74 79 80 82 84 82 79 84 85 81 80 80 81 79 79 74 69 67 61 58 58 58 55 51 48 47 46 45 46 44 40 40 40 45 49 50 43 36 31 27 23 19 18 17
80 83 83 86 89 88 88 87 86 88 86 83 79 77 69 56 52 52 56 58 56 51 48 46 46 45 45 48 44 41 40 42 48 51 49 41 35 30 27 23 20 19 17 16
85 86 86 87 90 92 91 92 85 82 82 77 73 62 54 50 54 56 56 53 50 50 49 47 46 48 48 43 41 41 46 50 51 47 39 34 30 26 22 20 19 18 18 18
88 91 90 87 91 90 90 92 88 83 76 68 59 56 56 57 57 55 52 53 53 49 49 52 51 49 44 42 46 49 50 51 43 37 32 29 25 23 21 20 20 19 20 22
85 89 86 86 85 83 81 78 73 71 67 63 62 62 63 61 55 54 53 52 50 52 52 51 48 46 46 49 49 52 49 41 35 31 28 25 23 21 21 20 20 21 22 23
81 80 80 81 80 81 76 72 70 70 69 67 70 68 64 60 56 52 50 52 55 53 51 49 47 48 50 50 52 46 38 33 30 28 25 23 21 21 21 21 22 23 24 25
71 74 77 78 77 75 74 74 74 74 72 73 70 68 65 59 53 51 55 55 52 52 50 49 51 51 53 50 43 36 32 29 27 25 23 22 22 21 21 22 24 25 26 28
69 70 72 75 75 73 73 74 75 74 76 80 70 64 59 56 56 55 54 52 52 51 52 52 53 53 47 40 35 31 29 27 25 23 22 22 21 20 22 24 26 28 29 29
64 64 67 71 70 71 72 74 75 79 74 69 67 64 58 55 55 53 52 53 54 54 54 54 52 45 38 33 31 30 28 26 24 23 22 21 20 22 25 27 29 31 31 30
65 66 68 73 76 77 77 77 76 74 78 71 60 58 57 53 52 53 53 56 57 55 55 50 43 37 33 32 31 28 26 24 23 22 20 21 24 27 28 30 32 33 32 30
62 65 67 71 72 73 75 71 71 75 71 63 59 54 52 53 54 57 60 58 56 55 48 40 37 35 34 31 29 27 25 23 21 20 21 25 27 28 31 33 35 34 31 35
68 68 69 72 71 70 67 72 73 72 61 59 57 56 57 57 60 62 59 57 52 45 40 38 37 34 32 30 28 25 23 20 20 21 24 26 28 31 34 36 35 32 32 44
73 73 76 76 76 74 76 74 76 66 59 60 59 59 59 63 64 62 57 51 45 41 40 37 34 32 31 29 26 22 19 20 22 24 26 28 31 33 36 35 33 34 43 53
74 76 79 77 77 81 80 77 63 61 59 59 58 60 65 67 62 57 52 47 44 41 38 35 34 33 30 27 21 19 21 22 24 26 29 32 33 35 34 33 35 43 52 62

GFSNGP_prec_cthk_042.txt.gz
RH
74 78 80 88 92 96 98 94 83 53 62 57 54 55 59 66 74 76 80 77 71 67 62 60 60 63 65 71 75 80 82 83 79 73 70 72 72 75 70 72 76 79 80 78
86 76 81 88 93 97 96 91 82 73 67 61 60 64 73 80 81 83 77 76 71 71 63 65 70 71 73 77 82 83 86 82 78 73 76 74 75 70 74 78 81 83 80 66
84 77 80 88 93 97 93 82 72 77 70 72 76 83 86 82 78 74 75 75 78 71 70 76 78 79 82 85 86 88 87 82 77 78 76 71 73 77 81 83 85 77 69 72
88 82 81 74 87 93 90 77 72 71 70 75 76 76 78 79 76 84 89 85 82 81 83 87 90 91 91 91 91 87 81 80 74 70 73 78 82 83 85 84 76 76 67 52
91 86 70 74 81 88 91 83 75 72 69 75 72 82 97 93 95 93 90 88 90 92 93 92 93 91 89 86 83 77 71 70 72 80 83 84 85 87 84 82 73 57 42 41
87 89 79 73 77 83 89 94 84 76 73 71 72 75 90 92 93 88 85 85 84 83 83 84 81 78 76 73 72 72 77 80 82 84 88 88 87 89 81 62 43 40 41 39
89 91 77 73 74 81 86 94 89 91 87 81 83 80 82 87 88 88 86 84 82 81 81 80 79 78 78 79 80 81 83 86 89 88 88 92 85 68 44 40 41 39 41 42
89 92 86 75 77 76 76 82 85 92 91 93 91 86 86 91 90 88 89 88 88 88 88 89 88 84 83 85 87 88 88 87 90 90 83 66 48 42 41 39 41 44 42 38
72 66 61 72 77 79 79 77 76 78 89 93 92 92 88 88 88 89 89 90 91 89 88 84 84 86 88 87 86 88 88 83 75 61 51 50 42 38 40 43 43 42 38 36
75 66 66 63 73 76 80 76 73 72 75 84 89 91 89 87 90 89 89 87 84 83 82 83 85 87 87 85 80 75 70 59 53 51 45 38 39 43 42 43 41 38 38 37
73 68 65 68 74 75 76 79 74 70 70 72 78 85 87 88 86 88 85 85 86 85 86 86 82 74 71 69 64 58 56 53 48 41 38 42 41 41 44 43 38 36 33 27
68 72 69 72 80 79 78 78 77 75 75 76 77 79 82 84 83 85 87 88 88 85 77 72 69 66 65 61 57 54 50 43 39 41 42 40 42 46 44 38 35 31 25 21
65 70 72 76 80 80 79 79 78 80 80 79 79 80 82 82 84 85 84 80 78 74 70 69 68 63 59 54 50 45 42 42 42 40 40 44 48 43 37 34 29 24 20 18
68 71 77 79 81 80 82 84 86 81 80 81 82 80 81 81 80 79 76 72 71 71 70 63 57 55 49 46 43 44 44 42 40 42 48 47 40 36 32 27 23 20 18 17
71 80 81 83 83 87 87 87 87 84 83 84 83 82 81 72 66 63 65 68 66 62 57 54 50 47 45 45 45 44 42 41 46 50 45 39 34 30 26 22 20 18 18 17
81 81 85 85 88 93 92 90 91 91 92 85 82 77 67 59 56 60 61 61 57 53 53 51 48 49 48 47 45 42 44 50 49 43 37 33 29 25 22 20 19 19 19 19
80 85 88 89 93 93 94 95 89 86 82 78 72 63 58 59 59 60 60 57 55 53 51 51 51 49 47 45 43 46 50 48 40 35 31 28 25 22 20 20 20 19 18 19
84 92 92 88 92 91 91 92 88 84 77 70 64 62 61 61 60 60 58 56 54 52 52 52 49 47 45 45 49 51 46 39 34 30 27 24 22 21 20 20 18 19 20 21
84 89 88 86 87 86 85 82 79 73 72 70 70 69 67 64 62 61 57 56 54 54 52 50 48 46 47 50 51 43 37 32 29 27 25 23 21 21 19 18 19 21 23 24
81 82 82 84 82 83 84 82 78 76 75 73 73 71 68 64 62 58 56 56 56 54 51 49 48 49 53 49 42 36 31 29 28 25 23 22 21 18 19 20 23 24 26 26
74 74 76 80 81 81 79 78 76 76 75 72 72 69 66 62 59 56 56 55 54 52 50 50 52 54 47 40 34 32 30 29 26 23 22 20 18 19 21 23 25 27 28 28
70 69 70 73 76 77 74 73 73 73 73 81 78 68 64 61 57 57 57 54 53 52 53 55 53 46 39 34 33 31 29 26 24 23 19 19 21 22 24 25 27 29 30 30
70 73 70 71 72 74 75 74 73 74 86 81 73 65 61 56 55 53 52 54 54 56 56 52 45 38 35 34 31 29 27 25 22 19 20 21 22 24 26 28 31 32 32 29
64 67 68 71 73 71 73 74 73 82 72 72 67 60 56 53 53 55 56 57 58 58 52 45 39 37 35 33 31 28 26 21 19 20 21 22 25 28 29 31 34 33 31 31
67 70 70 70 72 72 72 71 77 75 79 73 67 61 58 57 58 58 59 62 59 53 46 41 39 37 35 32 29 26 21 19 20 21 22 25 28 30 31 33 33 32 32 42
68 72 71 75 77 74 76 80 73 82 75 66 61 62 60 61 61 62 64 60 54 49 44 41 39 36 33 30 27 21 20 20 20 22 26 27 28 30 33 32 32 34 44 53
73 74 74 76 78 78 81 80 85 81 73 66 63 62 61 63 65 65 62 57 52 47 44 42 38 35 32 27 22 20 19 20 22 25 26 27 29 31 31 32 36 47 54 57

GFSNGP_prec_cthk_048.txt.gz
RH
64 62 56 63 76 83 90 85 91 69 68 63 70 68 72 80 87 88 84 79 84 70 63 65 77 80 81 72 72 68 70 76 81 81 82 84 82 78 84 84 85 83 83 76
67 53 58 77 76 80 81 85 91 82 72 71 64 72 74 83 89 94 93 87 80 69 65 64 70 70 76 77 77 73 79 83 84 88 85 81 85 84 80 87 87 77 79 80
64 60 71 79 75 77 83 91 89 87 77 71 67 72 81 84 87 88 86 84 74 74 75 71 70 77 85 83 78 81 83 86 88 89 87 85 80 81 87 82 83 83 86 81
72 70 85 68 71 77 80 86 90 88 78 70 69 84 88 85 87 88 82 79 79 77 77 75 81 89 84 79 86 87 87 87 89 89 90 85 81 85 83 84 89 84 81 86
77 73 68 71 77 77 84 87 92 86 87 80 80 93 87 83 81 85 85 80 80 79 78 84 84 83 79 87 88 86 83 85 85 87 88 86 85 88 90 87 83 89 85 74
87 84 79 72 75 79 85 97 88 90 91 84 83 95 95 90 92 85 82 81 80 78 81 82 82 81 85 86 88 89 88 86 90 93 94 94 88 86 87 92 88 76 58 46
86 86 75 66 77 83 94 88 88 91 95 90 87 91 96 94 92 94 94 88 88 90 91 91 91 93 89 96 88 96 96 97 97 92 83 81 94 96 91 77 57 44 41 40
86 90 88 73 75 83 82 85 87 87 89 92 92 90 92 92 94 96 94 95 96 98 99 98 96 98 98 98 98 95 88 81 80 85 96 98 91 74 54 42 40 39 40 38
82 76 64 66 68 72 79 81 85 81 85 93 96 93 93 91 89 87 87 89 89 87 88 92 95 94 88 82 82 81 87 95 97 96 84 68 52 41 38 37 40 40 37 37
80 73 74 72 72 74 78 78 82 82 81 95 95 96 96 96 94 95 92 91 90 87 85 86 89 90 93 95 96 95 91 87 78 64 51 43 38 36 39 42 39 38 35 32
77 72 73 74 76 73 79 80 80 82 79 89 92 92 92 96 96 95 94 93 94 94 94 93 90 89 86 84 81 78 72 63 54 49 40 37 40 42 41 41 37 34 30 25
77 75 73 72 73 71 80 83 82 83 81 84 95 95 93 95 94 91 89 91 92 91 86 79 72 73 73 72 69 62 57 52 45 40 40 42 41 44 40 35 32 27 23 20
70 69 66 67 67 73 82 83 82 82 83 83 90 94 95 95 91 91 94 93 89 78 71 72 75 75 73 64 57 54 51 46 42 42 41 43 44 37 34 30 26 23 21 20
64 64 63 63 67 72 82 86 85 85 87 85 84 87 90 93 92 92 91 86 80 76 79 81 80 70 59 58 56 53 47 43 42 41 45 42 36 32 28 25 23 21 20 19
61 59 58 60 66 77 81 87 87 86 86 85 87 90 91 91 90 89 89 83 79 81 82 80 70 63 60 57 53 47 43 41 42 45 40 36 31 28 25 23 21 19 17 16
69 69 68 67 73 84 85 89 92 88 87 88 90 91 91 92 88 81 77 77 81 82 76 69 63 59 55 52 48 44 42 44 45 40 35 30 28 25 23 21 19 16 16 18
75 75 74 82 86 88 90 90 91 91 92 91 90 90 91 89 81 75 76 78 79 73 67 64 59 55 53 49 46 44 46 45 40 34 30 28 25 23 21 19 17 17 18 19
78 80 83 85 88 92 94 94 93 93 93 94 90 88 85 79 77 74 72 71 69 67 64 59 55 53 51 48 46 48 45 39 33 30 28 26 24 21 18 17 18 18 19 19
85 85 87 91 94 96 97 97 95 94 91 88 85 81 80 78 74 70 69 70 67 62 57 55 54 52 50 48 50 45 39 33 31 29 28 25 21 18 18 18 18 20 22 24
88 91 97 95 94 93 95 96 94 91 86 82 81 82 79 77 74 71 69 66 61 57 57 56 54 50 49 50 46 40 34 32 30 29 25 20 18 18 18 19 21 23 25 26
88 89 89 89 90 93 92 90 88 85 83 82 83 81 77 73 68 67 65 61 60 58 56 54 50 50 50 47 42 35 34 32 30 26 21 19 19 18 20 22 23 25 26 29
88 88 87 87 87 91 92 89 87 84 79 77 78 77 74 71 69 66 64 59 56 55 52 51 51 51 49 44 38 36 34 33 27 23 20 20 20 21 21 22 24 27 29 29
83 82 81 82 83 83 88 91 91 86 77 75 74 73 75 73 68 62 56 53 53 52 52 53 53 51 48 41 39 37 35 29 24 21 20 21 20 21 21 23 25 26 27 27
74 75 73 76 80 82 85 84 84 84 76 73 72 80 82 72 63 58 55 54 54 54 56 56 54 51 46 42 40 38 31 26 23 21 21 21 21 21 22 22 23 25 28 38
68 69 69 70 71 75 78 80 78 76 73 70 79 80 75 69 62 59 56 56 57 58 58 56 54 50 46 43 40 34 28 25 22 22 21 20 20 20 21 22 26 34 40 44
77 76 73 72 75 77 79 81 76 76 76 76 82 82 79 69 65 63 60 60 60 61 59 58 53 50 46 43 37 31 27 24 22 21 20 20 19 20 21 25 37 42 44 47
75 76 78 78 79 78 77 74 77 74 75 82 87 89 78 71 69 65 62 62 62 61 61 57 53 50 46 41 34 29 26 23 21 21 20 19 19 20 22 34 42 45 46 51

GFSNGP_prec_cthk_051.txt.gz
RH
64 64 63 67 65 69 77 76 84 63 72 59 63 68 64 70 78 82 87 92 94 94 86 75 60 62 67 77 80 78 79 75 68 82 86 86 84 85 80 89 90 85 82 85
66 57 59 60 61 76 77 79 76 78 74 78 75 70 79 84 82 84 92 82 89 86 81 71 67 69 79 88 94 91 82 71 79 87 90 88 85 84 90 86 82 84 85 92
67 57 58 69 78 78 80 79 79 88 80 76 75 78 84 84 82 83 83 76 74 73 72 70 71 73 86 94 93 88 80 73 83 81 84 81 85 96 87 80 85 86 85 87
70 66 71 64 71 76 80 81 85 88 82 81 82 87 87 83 82 81 79 77 68 66 67 70 70 75 85 91 88 84 81 81 78 82 91 96 94 83 85 88 87 92 87 90
74 73 66 74 76 78 82 87 87 86 83 84 86 89 92 88 90 85 80 85 80 78 76 78 81 89 91 88 86 86 86 84 91 98 92 85 86 89 92 91 94 94 90 87
77 85 84 78 73 80 85 92 84 85 90 87 84 88 92 92 89 87 79 76 74 79 83 86 89 90 87 87 86 95 96 98 95 88 88 90 91 96 98 94 91 88 77 62
76 86 76 67 75 81 88 81 81 83 86 90 89 90 91 93 95 90 86 87 84 84 82 81 85 85 90 95 98 97 94 92 97 98 98 98 98 97 95 89 76 58 48 40
82 88 86 75 75 78 76 79 78 80 82 87 89 88 88 92 91 95 96 91 97 96 96 92 98 95 98 98 95 98 96 96 98 97 96 94 93 86 69 50 39 39 38 35
82 79 71 67 72 72 72 76 76 79 79 88 91 88 89 89 90 90 92 90 91 95 98 98 98 98 97 98 98 98 96 91 92 97 97 82 59 42 37 37 38 39 36 36
86 79 75 75 75 76 73 74 75 76 81 89 91 92 89 89 90 90 92 93 95 94 93 92 93 93 94 92 90 91 96 94 89 70 52 42 38 36 37 42 38 37 36 32
82 80 76 77 78 77 71 75 80 79 80 85 96 93 91 90 92 89 89 90 93 95 95 95 95 96 96 94 90 83 71 58 53 48 41 36 37 42 42 39 38 34 29 25
81 81 80 78 73 68 69 76 81 81 82 85 92 97 94 97 94 91 89 89 90 92 92 89 83 82 79 74 67 63 61 54 45 39 39 42 44 42 39 35 31 27 23 21
70 74 76 74 70 67 68 76 82 84 84 84 92 95 96 96 95 94 94 96 95 87 82 79 76 78 70 64 61 60 55 47 42 42 43 43 42 37 33 29 25 22 21 20
71 72 72 68 65 63 66 74 83 86 86 89 89 94 97 98 93 94 95 91 84 76 75 79 80 71 64 62 59 54 48 43 43 42 44 40 35 32 28 24 22 20 19 17
66 66 65 65 63 61 64 75 81 86 86 88 87 90 94 95 97 95 92 88 80 78 83 83 79 68 64 58 53 50 45 44 44 44 39 35 31 27 24 22 21 18 15 16
72 70 71 71 70 69 70 81 85 86 88 87 87 91 93 95 94 93 85 80 80 85 85 81 71 66 58 53 51 48 46 45 44 39 34 30 26 24 23 20 17 16 17 17
78 77 76 75 74 75 85 89 88 89 90 91 92 93 93 93 92 87 81 81 83 85 77 72 68 61 54 51 50 48 46 43 40 34 30 27 25 24 20 18 17 18 18 18
78 79 77 77 80 88 90 92 92 93 93 93 95 94 93 92 88 85 83 80 77 74 70 66 61 56 51 51 49 46 43 41 36 31 29 27 24 21 20 19 18 18 18 19
76 80 81 82 86 90 92 95 95 94 94 96 94 91 89 86 82 81 79 75 72 71 64 60 55 52 52 51 47 44 42 38 33 31 29 25 23 21 20 19 19 19 20 21
89 87 91 94 94 95 97 97 97 94 92 90 88 86 83 84 83 79 73 70 70 67 60 55 54 53 52 47 44 44 40 36 34 31 27 25 23 20 19 19 18 19 21 23
93 93 98 95 94 93 94 97 95 90 87 87 85 85 82 81 78 73 69 67 62 58 57 55 54 51 49 46 45 43 40 37 34 30 27 24 22 20 19 19 19 21 21 22
95 93 93 93 92 95 93 93 92 90 86 83 88 85 79 76 72 69 68 63 57 55 54 53 51 51 48 47 45 43 41 37 32 29 25 23 21 19 19 19 20 20 20 23
93 92 92 92 92 91 94 96 94 91 86 82 77 81 77 75 71 67 64 59 55 52 52 51 53 52 50 48 47 45 41 35 32 28 26 23 21 19 19 19 19 19 26 31
84 88 88 85 83 84 87 90 92 91 86 80 80 77 76 80 79 72 63 57 53 54 54 56 56 54 52 50 48 46 40 35 31 28 25 23 20 19 19 19 19 25 34 36
71 70 70 71 72 74 77 83 88 88 84 80 78 71 74 84 75 66 62 59 57 57 59 59 57 55 53 52 50 45 38 33 29 26 24 22 20 19 19 19 22 33 37 39
77 77 77 78 77 78 78 80 82 85 84 81 79 75 83 85 78 73 65 63 61 61 61 59 58 57 55 53 50 42 37 32 29 26 23 21 19 18 19 20 25 38 39 42
74 76 79 81 82 82 83 83 81 83 83 80 79 81 84 88 84 73 67 66 64 63 62 61 59 58 57 53 46 40 35 32 28 24 22 20 19 19 20 21 27 42 42 46

GFSNGP_prec_cthk_054.txt.gz
RH
66 64 63 61 62 62 64 68 77 67 67 64 66 66 68 71 76 75 70 75 73 62 66 84 95 88 77 66 63 69 78 73 71 82 83 73 64 68 89 86 82 81 82 81
67 60 61 64 62 60 67 73 73 71 74 69 68 71 78 82 78 77 76 75 66 61 63 73 86 84 67 62 64 79 85 85 78 79 76 65 66 80 86 83 78 84 84 97
68 62 59 66 58 68 74 77 75 81 76 73 74 81 86 82 82 79 75 76 68 61 62 65 64 65 66 71 80 84 88 84 85 87 69 75 81 86 83 85 90 91 98 94
74 66 71 52 60 71 78 78 83 84 83 77 82 87 83 83 82 79 75 75 75 65 60 63 63 69 77 90 95 97 91 95 89 74 81 89 90 86 95 95 93 93 88 91
73 75 59 61 76 80 83 84 86 86 86 85 83 85 85 85 83 79 74 78 75 78 75 70 72 74 81 89 95 98 93 86 75 84 90 90 92 98 95 98 95 96 94 91
77 79 73 75 76 77 83 92 84 85 86 87 86 86 86 85 86 81 77 77 78 79 82 85 82 86 84 82 82 79 76 80 89 98 98 98 97 98 97 98 98 97 86 77
78 76 72 71 72 80 86 80 81 82 84 84 87 85 85 86 84 86 81 83 80 78 78 78 84 88 90 90 93 97 98 97 98 98 98 96 98 98 98 95 85 71 57 52
77 81 84 74 79 78 73 77 79 79 83 84 86 85 85 87 83 84 82 82 87 86 89 90 92 90 97 97 96 97 97 98 98 98 97 97 97 93 78 61 54 46 40 38
74 77 72 78 70 73 74 75 76 77 80 83 90 90 88 88 89 86 86 84 86 89 90 93 96 95 97 95 96 97 97 97 97 97 96 83 63 50 42 40 41 39 35 33
78 81 80 74 74 74 78 74 76 82 82 85 90 92 90 90 91 90 89 89 89 89 89 92 94 94 96 95 95 96 97 97 90 67 53 44 39 38 37 38 38 36 35 31
77 81 80 78 78 80 74 69 75 82 83 85 92 94 92 93 94 91 90 90 91 92 93 93 94 95 94 91 86 77 65 53 48 45 40 37 38 41 41 37 35 31 28 26
78 81 83 83 79 76 69 70 77 83 86 87 92 96 94 94 94 94 93 93 92 91 91 87 79 74 70 67 66 65 55 50 46 43 41 41 40 39 36 33 30 27 23 21
74 72 75 78 76 73 69 68 75 84 86 89 93 97 94 96 95 91 91 92 90 85 84 77 75 71 66 63 59 55 54 49 43 41 40 41 39 35 32 30 26 23 22 20
75 72 75 75 74 69 66 63 69 80 89 91 95 95 96 96 96 93 94 90 88 85 79 77 74 66 62 60 58 55 49 44 42 42 43 39 35 32 28 25 23 22 19 18
73 71 72 71 69 66 64 63 67 77 85 91 93 93 95 97 96 96 95 93 90 85 80 81 73 67 63 60 56 49 45 45 44 43 39 36 32 28 26 24 22 20 19 19
79 75 71 71 69 70 70 69 69 82 87 89 90 92 94 97 98 96 94 91 82 79 82 81 71 68 62 56 51 47 48 47 44 40 37 33 30 27 25 23 21 20 19 17
79 76 75 74 75 74 72 73 84 91 91 90 91 92 95 97 97 94 90 83 82 81 83 75 70 65 58 53 49 50 50 44 40 38 35 32 29 26 25 23 21 20 18 17
74 76 79 78 78 76 79 85 91 93 92 92 94 95 96 98 96 93 89 85 82 81 74 71 68 61 54 51 52 52 45 41 39 37 35 31 27 27 24 23 20 18 17 18
78 74 77 79 79 80 83 88 92 93 94 94 95 97 97 96 93 91 88 84 81 80 76 69 61 57 54 53 53 46 41 41 40 38 34 30 29 26 24 22 20 19 17 17
86 85 86 84 83 87 89 92 95 96 96 97 97 96 93 91 89 87 83 82 83 78 69 63 58 56 54 53 48 43 42 42 41 39 33 31 28 26 24 22 19 17 17 17
95 96 96 94 91 90 93 96 98 97 96 95 92 89 86 87 89 88 84 76 72 70 64 59 57 55 53 50 45 44 45 44 42 37 34 31 28 26 23 20 18 16 16 18
97 96 97 96 96 96 95 96 96 90 89 88 89 88 86 85 81 76 74 71 67 63 58 55 53 51 51 48 47 47 47 45 41 38 34 31 28 24 21 19 17 16 16 24
97 95 96 96 94 95 97 98 96 94 90 87 89 89 83 79 75 72 69 68 66 59 54 53 52 52 52 51 49 49 48 45 41 38 34 30 27 23 20 18 16 16 20 29
82 89 94 92 92 93 92 96 98 96 97 93 84 82 84 80 78 76 74 70 63 58 55 55 55 55 54 53 53 52 49 44 41 37 33 31 25 21 19 17 16 17 24 33
79 78 76 75 77 80 82 84 89 94 95 90 82 77 86 79 77 78 74 66 62 59 58 59 58 57 56 56 55 52 48 45 42 38 33 29 24 20 19 16 17 18 27 36
79 80 79 79 79 79 80 80 82 86 89 88 84 77 79 77 78 82 77 70 66 63 62 61 59 58 57 57 56 53 49 45 42 38 33 28 22 20 18 17 18 18 29 39
75 74 76 80 82 82 83 85 87 86 86 85 88 83 80 76 84 86 81 75 68 66 66 64 62 60 59 58 57 53 49 45 42 37 31 25 21 20 18 18 18 19 31 44

GFSNGP_prec_cthk_060.txt.gz
RH
58 61 63 63 63 64 62 59 61 54 61 62 61 62 65 65 69 68 67 66 62 59 55 50 45 45 46 50 53 57 61 66 70 71 71 79 80 78 77 82 83 84 82 79
64 62 65 66 63 62 61 61 59 62 72 66 69 69 68 73 72 68 69 65 63 59 54 52 46 46 48 50 56 61 62 63 69 76 79 90 88 80 87 91 81 92 92 85
71 68 65 63 57 56 58 56 60 79 72 70 72 74 74 73 72 71 69 66 63 62 58 57 54 53 54 60 64 67 73 70 71 81 91 94 90 92 92 92 96 98 95 92
71 66 69 50 51 54 59 66 74 75 75 75 76 77 75 76 75 73 71 70 67 65 64 64 63 65 65 67 76 81 87 85 79 86 90 90 94 93 90 93 94 94 94 85
71 68 60 58 63 66 72 80 81 80 80 80 79 80 80 78 77 76 75 72 73 67 68 68 69 73 74 74 75 78 85 86 84 83 82 90 98 91 92 94 90 91 83 97
71 67 69 57 63 71 80 93 85 84 82 82 83 87 80 79 78 75 74 73 71 69 72 73 75 76 77 80 80 80 80 81 87 90 90 96 94 94 98 95 96 98 98 96
69 70 60 57 69 76 94 88 85 85 83 80 83 85 83 81 79 75 74 74 72 75 77 76 75 77 80 82 84 86 81 87 81 81 83 91 93 96 98 98 97 90 78 68
75 76 72 58 75 89 86 81 79 81 79 80 81 84 86 84 80 78 76 74 76 77 76 77 77 77 80 83 87 89 92 93 96 97 98 97 97 97 86 67 58 52 46 41
69 70 60 67 79 84 80 74 78 75 76 83 82 86 90 87 84 81 78 78 76 77 78 79 80 80 81 85 86 89 91 92 94 95 94 77 55 47 44 42 40 37 33 30
72 70 73 70 84 85 79 78 76 74 77 81 85 87 94 90 86 82 80 78 79 80 81 82 83 83 83 84 85 85 85 81 65 48 43 41 41 41 41 38 34 32 29 28
69 69 72 78 85 88 82 80 77 75 80 84 86 89 94 94 87 84 83 82 82 82 83 83 81 78 76 77 73 66 56 47 44 43 43 42 42 39 36 33 30 29 27 23
69 65 68 77 86 85 82 79 77 72 79 87 89 93 94 96 92 88 84 83 83 81 78 76 72 72 67 65 62 54 48 44 43 42 42 41 39 36 34 31 29 26 22 20
68 68 68 70 79 80 77 77 76 70 73 84 89 95 95 97 95 92 89 85 83 81 78 70 66 64 63 63 56 52 48 44 43 43 42 40 37 34 31 30 28 24 22 21
68 67 70 72 76 80 79 78 77 71 67 72 85 93 98 97 96 96 95 91 89 87 81 71 67 64 64 59 56 54 48 44 44 44 42 38 34 33 31 30 26 24 23 22
70 69 72 77 78 78 81 80 77 72 69 68 73 87 97 98 98 97 95 94 94 95 88 75 67 64 61 58 57 54 48 46 46 45 39 36 34 33 31 29 27 25 24 24
70 71 72 74 76 78 76 77 77 71 69 70 71 82 93 99 98 98 97 95 96 95 90 77 70 64 60 59 57 53 49 48 48 43 38 35 34 33 31 30 28 27 26 24
75 72 70 71 72 74 74 76 74 71 71 75 74 84 93 98 98 98 97 98 96 96 91 86 76 66 62 60 58 53 51 52 48 40 36 36 35 33 33 32 31 28 26 25
78 75 72 70 72 73 72 73 72 71 73 75 86 92 95 97 98 98 99 98 96 98 98 92 85 73 67 65 58 53 53 51 44 38 38 39 36 35 34 34 32 29 27 24
86 83 78 73 73 72 70 71 73 76 74 82 91 93 93 97 99 99 99 97 96 98 98 93 86 73 68 64 57 54 54 48 41 40 41 40 38 37 37 36 32 29 27 25
91 91 88 86 81 76 76 79 80 78 79 86 93 93 95 96 97 99 99 98 98 98 98 89 81 74 69 61 57 55 51 45 42 43 44 42 40 40 39 37 34 31 28 25
96 97 95 92 89 88 87 86 83 82 86 92 94 94 96 96 97 98 98 99 98 98 89 84 80 74 65 58 55 52 47 45 46 47 46 44 42 42 40 37 35 32 28 25
97 98 99 99 99 98 95 91 89 91 96 98 97 96 97 98 98 99 98 98 93 86 88 80 74 68 60 55 53 50 48 49 50 50 48 45 44 43 41 39 35 31 28 24
98 98 98 99 99 99 98 98 97 98 97 98 97 98 98 97 97 94 91 90 87 83 80 76 70 63 55 54 54 52 51 51 52 51 48 46 45 44 42 39 35 31 29 24
97 96 94 94 95 97 97 97 98 98 96 94 92 91 90 89 87 85 84 83 81 78 75 73 68 61 57 58 57 55 53 53 52 51 48 47 46 45 43 40 35 31 28 24
87 88 90 90 88 87 85 89 94 97 98 98 95 92 92 88 85 83 84 83 80 75 72 72 67 62 61 62 59 56 54 54 55 52 49 49 49 46 43 39 34 31 28 25
70 76 78 80 83 85 85 84 84 85 87 91 94 97 98 97 93 87 86 82 81 81 79 76 70 66 64 64 63 59 57 58 57 54 53 52 51 47 43 39 33 31 28 26
50 55 60 69 76 78 80 83 85 86 87 90 93 96 96 95 92 87 94 91 86 86 85 82 76 71 70 69 67 63 61 68 61 58 57 56 52 48 43 38 34 31 30 32

GFSNGP_prec_cthk_066.txt.gz
RH
61 63 64 65 66 63 63 53 54 41 43 42 42 45 49 52 57 60 62 60 57 56 56 53 49 46 44 42 39 38 38 38 40 41 40 40 42 47 53 58 61 67 72 77
67 61 65 67 63 62 61 56 52 50 48 41 47 53 58 62 66 65 63 62 61 59 59 54 52 52 48 46 45 44 43 43 42 45 45 46 48 58 65 74 76 77 83 85
61 60 62 60 56 56 56 54 52 55 48 50 53 57 63 67 70 70 65 64 62 63 60 58 57 56 53 51 48 50 47 48 48 48 46 52 59 65 72 79 87 90 94 95
62 60 63 52 53 53 53 51 51 50 52 57 63 67 70 72 73 70 66 66 66 64 63 62 60 59 57 58 55 54 51 55 51 53 55 59 64 69 73 81 86 92 97 97
67 63 56 63 61 58 59 63 53 60 66 69 73 75 74 77 76 72 72 70 68 66 65 63 62 61 63 63 62 62 58 57 57 59 61 64 68 72 80 84 85 92 95 96
69 66 57 59 68 65 67 79 71 73 76 79 80 81 80 81 77 75 72 71 69 68 64 63 63 63 63 65 65 65 63 63 66 63 66 68 70 75 82 86 88 92 96 97
63 62 51 56 60 63 76 79 76 82 81 82 82 81 80 81 81 76 73 70 70 69 66 67 66 67 67 66 70 69 70 67 66 72 75 77 79 80 83 87 88 80 64 54
65 63 62 52 67 73 79 79 84 86 84 82 82 82 82 82 81 76 73 70 70 69 67 68 70 68 68 70 72 74 77 77 76 76 77 77 72 54 42 40 39 36 33 31
60 60 61 61 63 67 76 84 87 87 82 81 81 83 82 84 83 77 74 72 70 70 71 72 70 72 71 74 77 77 74 74 74 72 51 39 39 38 37 34 32 30 29 28
68 64 62 63 64 67 74 85 87 85 76 75 80 82 83 84 83 78 76 75 74 73 73 71 73 74 73 70 70 71 72 65 44 38 38 38 37 34 32 31 30 28 27 25
68 66 67 66 69 73 77 83 90 82 78 75 77 80 82 88 86 82 79 78 78 77 74 74 74 72 66 67 66 59 47 39 39 39 38 37 35 32 31 30 28 27 25 24
60 61 62 63 68 69 73 76 89 83 79 77 76 85 89 91 88 88 83 81 81 76 73 70 68 67 64 56 54 47 42 42 41 39 38 36 34 33 31 29 28 26 25 25
59 64 65 66 66 67 68 74 82 83 80 80 74 81 89 92 93 92 88 86 80 78 75 74 72 64 54 52 48 47 45 44 43 42 41 37 35 33 31 29 28 28 28 28
57 60 65 67 67 65 69 72 83 85 81 80 79 72 79 87 91 93 92 91 87 82 77 76 71 61 57 50 47 47 46 45 44 46 42 39 37 35 32 31 31 31 31 31
61 63 64 65 65 64 66 70 74 81 83 81 80 79 74 74 84 91 95 92 91 89 83 76 70 60 57 54 50 49 47 47 47 47 43 41 40 37 33 33 34 35 34 32
69 70 67 68 67 65 66 68 70 76 77 78 80 80 79 77 74 80 91 94 94 93 89 86 80 71 58 56 54 51 50 50 51 49 46 44 41 37 34 35 37 37 36 34
78 79 78 74 72 68 65 65 68 73 77 75 79 80 79 79 75 78 85 93 98 97 96 93 90 81 69 63 61 57 53 53 54 51 47 46 43 38 36 38 40 39 38 36
83 82 79 76 72 70 68 66 63 65 69 75 77 77 78 76 76 80 84 92 97 98 98 98 96 90 80 71 66 61 57 56 56 53 50 48 45 39 40 42 42 41 39 37
87 87 85 83 80 77 75 72 67 65 68 72 74 76 76 74 76 82 88 95 97 98 98 98 98 98 92 80 73 66 60 59 59 55 51 49 46 42 44 45 43 41 39 37
88 87 89 89 86 84 81 76 72 68 71 73 76 76 77 78 80 87 97 97 98 99 99 99 98 98 96 86 77 72 63 63 63 55 51 48 47 46 48 46 44 42 41 38
93 93 93 93 93 93 89 84 80 76 73 73 78 82 81 81 82 88 93 97 98 99 98 99 99 98 94 87 85 74 67 69 60 54 50 49 50 50 50 48 46 45 44 42
98 98 97 96 97 97 96 95 93 90 87 86 86 86 85 85 86 89 92 97 98 98 98 99 98 98 97 93 88 81 74 63 57 53 51 51 52 51 50 51 50 49 48 46
95 98 98 98 98 98 99 98 98 96 95 95 94 93 92 92 92 92 93 96 97 98 98 98 98 98 97 91 90 83 66 59 57 55 53 52 52 51 51 53 54 54 53 50
82 83 85 92 96 98 98 98 98 98 98 99 99 98 97 97 98 98 98 98 97 97 97 98 98 98 96 93 87 75 63 60 59 57 55 54 54 52 53 55 58 58 57 54
75 74 70 71 77 88 88 96 96 94 96 98 98 98 98 98 98 98 98 98 98 98 98 98 98 97 90 84 80 72 64 63 62 61 60 60 58 57 63 64 62 64 60 54
61 57 56 56 57 60 75 80 82 89 92 94 94 96 98 97 97 96 95 96 97 96 96 96 91 87 85 83 79 73 69 68 67 65 64 65 64 68 68 64 67 65 58 53
44 42 39 36 34 34 40 53 62 71 77 83 87 89 91 94 97 98 97 94 94 93 92 94 92 92 89 84 82 79 76 75 74 72 70 73 76 71 69 64 66 63 55 50

GFSNGP_prec_cthk_072.txt.gz
RH
59 59 59 66 68 72 75 70 73 58 51 48 44 42 41 44 45 47 49 50 50 51 51 51 51 49 47 43 40 41 39 38 37 34 34 35 35 34 34 33 34 36 40 46
64 56 56 59 60 61 67 68 65 60 55 44 43 43 44 46 49 54 55 55 54 56 56 54 54 52 51 47 46 45 43 41 41 41 39 38 38 38 38 39 42 44 47 51
70 57 58 64 57 58 60 59 59 62 54 49 48 45 47 49 55 58 59 60 58 56 58 57 58 56 56 51 49 49 48 48 47 46 45 43 40 40 42 44 45 49 52 55
69 59 73 59 56 57 59 59 56 52 50 50 47 47 49 56 58 59 62 64 61 62 62 61 61 59 59 57 55 55 54 52 51 51 48 44 44 45 47 48 50 54 57 59
67 63 56 63 58 59 59 59 54 54 52 52 52 58 61 59 63 66 69 67 66 65 64 64 65 62 60 60 59 59 60 57 57 54 49 48 49 50 53 55 57 59 60 63
67 65 63 69 65 61 61 73 54 52 54 58 64 69 70 75 73 73 72 72 69 67 67 65 65 64 61 61 61 62 62 61 59 56 56 54 55 57 58 59 58 58 47 32
62 66 60 58 63 67 77 80 67 61 62 66 70 75 75 75 76 77 77 75 71 69 69 68 67 65 63 63 66 67 63 62 60 60 60 61 61 61 57 43 32 28 25 24
60 66 64 53 60 63 72 74 74 73 75 76 79 79 79 79 80 80 81 78 74 73 71 71 69 66 66 68 69 69 65 64 63 64 64 62 48 37 33 30 26 24 24 23
56 57 53 56 60 61 65 69 77 78 78 80 84 84 83 83 84 84 83 78 75 73 71 71 70 69 68 70 71 71 69 70 69 67 51 36 34 32 29 27 26 25 24 22
62 58 58 58 59 60 61 63 70 77 83 85 86 83 82 83 84 84 84 80 79 75 74 72 71 70 71 72 73 72 72 72 64 42 36 36 33 31 28 27 27 25 23 22
64 64 63 62 61 63 64 65 68 74 81 87 88 84 81 83 86 87 84 81 79 78 75 74 72 72 75 74 72 69 66 59 40 38 38 37 34 32 30 29 28 27 25 24
68 64 63 65 65 65 65 66 67 67 71 78 89 85 81 81 87 89 88 84 81 81 78 76 76 76 74 71 66 63 57 39 39 40 40 38 37 35 34 32 30 29 28 27
54 55 55 56 57 59 60 61 62 65 66 69 83 86 82 78 86 89 88 89 85 83 80 77 74 73 70 66 63 55 40 39 42 43 42 41 41 39 37 35 34 33 32 30
52 52 51 51 53 54 55 58 61 61 63 70 77 89 85 80 80 90 90 91 91 88 82 81 76 74 74 70 62 48 40 41 42 43 44 44 43 41 41 39 38 37 35 33
54 54 55 55 55 54 52 53 57 59 61 66 71 82 89 86 82 79 88 88 88 91 90 85 82 79 79 72 59 49 44 43 43 44 46 45 44 44 44 43 41 40 38 37
59 56 55 57 57 56 55 56 56 59 60 62 67 70 82 86 86 86 82 80 81 85 92 91 88 82 79 72 65 55 45 44 46 46 47 48 46 45 45 44 43 42 42 40
63 60 58 60 60 62 62 63 65 63 63 62 63 68 70 79 83 83 82 84 83 80 76 86 93 93 88 79 72 65 59 49 46 49 51 51 50 49 46 45 44 44 44 42
67 65 63 63 63 64 67 69 71 70 67 66 65 64 67 72 79 82 81 82 85 85 81 80 82 94 97 92 85 79 70 62 56 54 55 55 54 52 50 47 46 46 44 44
72 69 68 68 68 69 72 73 74 75 73 69 68 66 65 67 73 78 81 83 85 86 87 82 82 86 95 97 96 91 83 73 66 60 60 61 58 56 54 50 48 47 46 47
80 77 74 73 73 74 76 78 78 80 80 76 71 68 69 68 68 70 75 79 83 85 89 84 85 88 93 97 97 97 95 87 77 68 64 64 62 60 58 53 50 48 48 49
88 87 87 87 87 86 85 85 84 86 87 82 78 73 71 71 72 72 74 77 82 85 85 85 86 92 98 98 98 99 98 97 90 77 70 72 66 65 62 54 51 50 49 48
97 96 94 95 96 96 94 93 93 95 95 92 87 82 77 75 77 78 79 81 84 85 86 87 89 93 96 99 98 99 98 98 95 86 88 80 70 71 62 55 53 52 50 49
91 86 83 81 81 86 89 97 98 97 98 98 96 94 92 90 86 83 83 84 87 88 89 89 91 94 94 97 98 98 98 98 97 93 97 82 79 71 61 58 55 54 51 52
85 82 79 75 73 72 72 75 84 97 98 98 98 98 97 96 95 94 94 93 92 93 93 94 95 97 97 98 98 98 98 98 97 97 97 89 77 70 66 62 58 56 55 61
73 74 70 64 60 59 60 61 64 70 83 95 97 98 98 98 98 98 98 98 97 97 97 97 98 98 97 98 97 97 97 97 97 97 97 85 81 78 69 65 63 61 62 67
61 56 52 48 45 43 43 43 45 47 51 61 79 90 91 96 98 98 98 98 98 98 98 98 97 96 96 96 96 96 97 97 97 97 94 89 83 75 70 68 68 67 71 74
60 52 44 37 33 30 28 26 25 26 28 23 33 55 72 80 86 93 96 97 98 98 98 97 97 98 97 96 96 96 97 98 98 98 96 88 82 79 78 80 78 77 80 79

GFSNGP_prec_cthk_075.txt.gz
RH
59 62 65 69 73 77 77 75 76 68 65 63 56 50 46 47 50 51 52 52 51 51 51 50 49 48 48 46 44 42 39 38 37 36 34 34 33 35 34 34 32 31 33 37
60 54 56 59 62 67 72 72 70 68 61 54 59 53 47 45 47 48 49 54 54 54 54 55 54 54 53 52 48 45 43 42 41 41 40 39 38 38 39 35 35 37 41 45
68 58 59 64 58 59 62 61 64 67 60 57 56 56 53 52 52 51 56 58 58 60 58 58 57 56 56 55 53 49 47 47 48 46 45 44 44 42 38 39 43 44 45 49
69 61 71 55 54 56 57 56 57 57 58 56 57 55 51 49 49 57 60 60 64 64 61 61 61 61 60 59 57 54 54 54 52 51 50 50 45 41 41 44 48 52 53 53
68 68 57 58 58 58 60 59 56 56 55 55 54 50 50 51 58 60 63 66 67 67 66 66 65 65 62 61 61 60 60 58 57 56 54 50 46 46 46 51 56 55 55 55
69 70 66 64 61 58 61 68 58 54 55 58 58 60 60 65 65 70 72 71 71 72 70 69 68 67 65 63 60 61 61 61 60 58 55 54 53 54 55 58 58 49 30 24
68 68 55 57 62 64 77 70 62 53 55 59 64 68 68 71 73 74 73 75 77 75 73 71 69 66 66 64 64 63 63 64 62 59 57 58 59 61 59 45 30 27 24 22
61 61 63 57 64 69 70 73 71 69 63 65 68 73 76 76 74 76 77 81 80 76 73 71 70 69 69 67 67 67 67 65 62 62 61 63 60 42 33 30 27 25 23 22
58 58 53 57 60 65 69 69 77 76 74 75 77 79 79 81 80 81 82 84 80 77 75 73 73 72 70 70 70 70 68 67 65 66 65 44 37 33 30 27 26 25 24 24
63 60 59 59 61 63 65 64 67 72 79 81 82 82 83 82 80 82 84 84 80 79 77 75 74 74 73 71 71 72 72 71 71 67 40 38 35 33 30 29 27 27 27 26
68 66 66 64 65 65 65 66 67 70 76 80 85 87 87 85 84 88 87 86 82 81 79 76 75 73 73 74 74 75 74 74 66 41 38 37 36 34 33 33 32 31 29 29
76 69 68 70 69 68 68 69 69 69 69 70 74 82 88 86 85 88 88 88 86 81 80 77 77 77 77 78 77 74 68 63 45 38 39 39 38 36 37 37 36 33 32 33
59 62 62 63 65 65 63 62 63 64 66 70 70 73 86 90 86 86 88 90 90 85 83 80 77 76 74 74 71 68 63 50 38 40 41 41 40 39 41 39 38 37 37 37
55 55 56 57 55 53 54 55 57 59 63 64 65 71 78 91 89 83 88 91 90 90 88 82 80 78 75 71 69 66 59 44 40 41 43 44 43 42 42 41 40 40 39 39
59 58 56 56 56 56 57 55 54 54 55 61 65 66 73 84 93 89 84 88 90 89 90 90 84 82 79 78 76 69 56 47 45 45 46 46 44 43 43 43 42 40 40 41
62 61 60 58 56 55 56 56 55 55 56 57 60 64 67 72 84 93 89 85 82 86 88 91 93 87 82 80 80 71 59 51 46 45 45 46 47 46 47 46 45 43 43 43
65 66 65 63 62 60 59 60 60 60 61 62 61 62 63 68 71 76 84 85 85 81 81 81 83 91 94 89 82 76 68 60 56 51 46 47 51 52 49 49 48 47 46 46
68 68 68 68 67 63 60 61 62 63 67 69 70 67 66 63 66 70 76 82 83 83 83 85 84 80 80 89 93 90 81 70 66 62 56 54 54 55 53 52 51 52 50 48
76 74 72 70 69 67 66 66 66 66 68 71 71 71 70 68 67 66 70 75 82 84 84 87 90 90 85 82 86 92 94 86 80 75 66 60 58 59 61 56 54 56 54 51
87 82 78 76 74 72 71 70 68 69 71 73 76 77 76 73 70 69 68 69 76 80 86 86 86 90 91 86 85 87 92 97 92 88 81 72 66 62 68 65 59 59 58 54
92 90 88 85 83 82 79 77 76 76 77 80 81 82 82 80 75 70 69 69 72 75 78 82 87 89 91 87 87 90 96 99 98 97 91 86 78 67 70 73 65 63 62 56
98 94 91 87 86 88 88 92 94 92 91 89 90 92 90 85 80 74 73 74 77 76 77 80 85 89 90 89 87 92 97 98 99 98 98 96 91 79 84 83 73 72 63 56
94 89 85 81 77 76 76 78 80 93 98 98 97 97 97 95 92 88 82 80 81 82 82 84 87 89 90 89 89 92 95 97 98 98 98 97 95 96 93 83 84 72 62 59
85 84 80 76 72 68 64 64 64 68 73 93 98 98 98 98 98 96 95 94 93 91 89 89 89 89 90 92 93 97 98 98 98 98 98 97 97 97 93 92 81 71 66 66
73 69 63 60 59 59 56 50 51 51 56 58 66 87 97 97 98 98 98 98 98 98 97 96 95 95 95 96 96 96 98 98 97 97 97 97 97 97 96 87 82 80 75 69
70 65 60 54 48 42 38 39 38 35 35 40 42 48 60 82 92 95 97 98 98 98 98 98 98 98 98 98 98 97 97 97 97 97 97 97 97 97 95 90 87 81 75 72
68 63 56 49 41 36 33 29 27 26 24 23 25 26 25 33 53 75 82 89 96 97 97 98 98 98 98 98 98 97 96 96 96 96 97 97 97 97 96 91 85 81 80 81

GFSNGP_prec_cthk_078.txt.gz
RH
69 70 71 78 77 78 80 74 77 68 66 64 65 64 63 54 55 57 55 55 54 54 55 51 51 47 46 45 44 43 42 41 40 39 37 36 34 33 32 31 32 33 33 30
61 55 59 61 65 72 73 72 73 71 68 63 65 63 54 50 53 55 55 54 55 56 56 54 53 52 50 50 50 49 47 44 43 42 42 40 37 36 37 37 37 35 34 36
67 59 60 63 54 59 63 65 69 72 65 61 61 61 62 49 48 49 50 51 56 59 59 59 58 56 55 55 56 55 52 48 47 47 47 45 43 42 41 41 38 39 41 42
71 65 73 49 53 54 56 55 57 58 59 58 57 60 60 59 55 55 55 57 60 60 62 64 62 61 60 60 59 58 56 53 52 52 53 52 50 48 45 41 42 43 46 48
71 70 55 54 56 58 59 58 53 54 56 57 58 60 62 57 54 52 56 61 63 64 66 66 65 65 65 65 62 62 61 60 58 58 57 55 52 49 46 45 46 49 52 51
70 70 67 61 59 60 59 66 57 54 56 58 61 62 58 53 52 57 62 66 69 70 70 70 69 68 68 67 65 64 64 64 63 61 61 58 54 52 52 54 54 51 37 27
67 70 58 51 60 63 74 68 62 57 55 57 62 60 59 61 67 69 70 72 73 72 74 73 71 70 69 68 68 65 63 64 64 63 63 60 58 57 59 57 43 29 25 24
64 66 63 53 62 69 71 72 73 64 59 59 60 64 72 71 71 73 73 73 74 78 78 75 75 73 71 70 69 68 67 66 67 66 64 63 63 64 53 35 28 27 25 24
61 61 53 57 61 65 74 74 80 78 75 73 73 75 76 77 76 77 77 77 80 81 80 78 77 76 76 75 73 73 72 72 71 67 67 67 63 40 32 29 28 26 26 25
64 59 58 58 63 69 73 76 71 77 82 82 82 82 82 79 82 82 82 82 82 83 82 81 79 77 77 77 76 77 75 75 72 70 71 57 37 34 32 30 28 28 28 27
68 64 64 64 66 67 68 67 70 70 74 80 84 87 88 87 87 88 89 88 88 86 85 83 81 79 78 77 76 76 75 76 74 74 56 38 37 35 33 32 32 32 32 31
77 71 68 68 69 70 71 71 71 71 71 71 70 75 80 84 88 88 90 92 90 89 86 84 82 80 78 78 78 77 79 78 78 68 41 39 38 37 35 34 34 35 36 35
65 69 71 70 70 70 69 67 63 62 63 64 68 71 72 75 83 90 90 92 94 93 88 85 82 81 81 80 81 81 81 76 68 46 40 41 41 40 38 37 37 38 38 38
59 59 61 62 62 63 60 56 55 55 56 58 61 63 66 72 76 89 91 90 91 93 92 91 86 83 80 78 76 75 72 69 62 42 42 43 43 42 41 40 40 40 39 38
62 61 59 59 59 57 57 56 55 54 53 53 53 57 64 66 73 81 93 93 89 92 93 92 92 85 85 83 78 73 72 69 56 45 45 45 45 45 44 43 42 44 41 41
63 64 61 61 60 58 57 56 55 54 55 54 54 54 55 62 65 72 83 95 94 87 91 92 92 93 89 88 85 82 78 70 58 50 48 47 47 47 45 43 44 46 45 44
67 68 68 66 66 64 62 60 60 57 56 57 57 57 58 58 61 66 71 75 87 91 87 86 91 90 93 94 88 85 84 79 64 55 53 51 48 48 47 46 47 48 47 47
72 68 66 67 66 66 65 65 63 59 57 57 59 62 65 66 64 63 66 67 70 78 84 87 88 87 85 86 89 95 92 86 77 65 60 59 57 54 54 54 53 52 51 51
81 80 78 74 69 68 67 67 66 65 62 62 63 64 66 68 68 70 69 66 66 69 78 83 86 88 87 88 89 86 89 92 93 88 77 71 69 64 61 58 57 55 56 54
86 85 83 81 79 76 73 72 71 69 68 67 66 66 69 71 71 72 72 71 71 70 72 79 86 88 91 94 93 95 94 90 87 88 89 85 82 77 70 64 63 61 65 67
94 93 92 90 87 83 79 77 77 76 74 72 71 71 72 73 75 78 79 78 77 73 72 73 78 82 89 91 91 93 95 95 89 91 93 94 92 89 83 76 71 68 77 74
98 96 94 90 83 79 76 76 73 74 81 84 83 83 82 84 87 87 86 83 77 73 73 74 77 81 82 84 88 91 95 95 93 91 96 98 98 97 94 87 82 77 86 86
98 93 89 84 79 73 70 67 69 70 74 77 93 97 98 98 97 94 94 91 86 80 79 81 83 83 84 84 86 89 92 95 96 94 94 97 98 98 97 97 89 93 94 88
88 85 80 76 72 69 67 65 60 56 55 57 64 66 85 97 98 97 98 97 95 93 92 89 88 88 88 88 89 90 92 94 96 96 97 98 97 97 97 97 97 97 95 96
80 75 70 65 60 55 50 47 45 46 46 41 41 47 56 59 79 96 97 98 98 98 98 97 96 96 95 94 94 94 95 96 97 97 98 98 97 97 97 97 97 97 96 88
82 78 70 64 57 52 47 42 37 35 32 34 31 32 33 41 45 55 77 93 97 98 98 98 98 98 98 98 98 98 98 98 98 98 97 97 97 97 97 97 97 97 94 89
79 72 63 56 51 45 39 31 27 24 23 23 25 26 24 23 27 25 29 42 68 80 92 97 98 98 98 98 98 97 97 97 97 97 97 97 96 96 96 97 97 96 92 84

GFSNGP_prec_cthk_081.txt.gz
RH
61 63 72 74 74 78 77 71 74 65 64 58 59 59 63 67 73 70 65 58 54 51 52 54 61 63 60 56 53 47 44 42 42 40 39 39 38 37 37 37 35 35 34 33
81 75 74 75 82 84 83 80 75 69 67 62 61 63 67 62 61 63 63 61 56 55 55 55 55 61 57 57 58 53 50 48 44 43 42 41 41 40 39 38 37 37 38 37
67 62 61 62 60 66 67 68 70 72 66 67 64 67 66 62 58 59 59 61 62 57 59 60 59 60 62 56 58 56 53 52 50 47 46 46 47 46 44 43 42 40 40 40
72 66 68 45 52 53 52 53 58 59 61 65 64 61 63 66 63 57 55 57 58 60 64 64 65 64 65 61 61 59 58 56 55 53 51 52 52 51 48 45 44 44 43 46
71 72 57 49 53 58 59 55 53 51 52 56 60 61 63 64 63 63 64 61 58 61 64 64 66 67 70 69 65 63 62 60 59 58 57 56 56 55 52 50 48 47 47 49
77 75 66 58 60 57 59 64 56 53 51 54 58 62 64 66 65 63 57 53 61 64 68 71 70 69 70 69 67 66 64 64 63 63 61 62 61 57 54 52 50 50 48 40
79 75 59 53 60 61 69 65 64 60 54 56 60 59 59 58 59 56 55 65 67 68 72 72 74 75 73 71 70 69 67 66 65 66 66 64 62 59 57 56 55 43 37 30
77 71 64 53 60 61 67 70 70 62 60 58 58 60 62 63 64 70 73 74 74 73 73 75 79 77 77 76 73 71 70 69 66 66 66 66 64 62 61 56 44 37 27 24
66 62 54 61 59 60 69 73 76 77 70 65 63 64 68 73 75 77 76 75 76 77 77 81 81 80 79 77 76 74 72 70 69 68 69 67 66 65 58 45 34 27 26 25
66 63 61 60 60 65 72 80 77 78 83 82 79 77 77 79 80 78 79 79 80 80 82 84 85 83 81 81 81 79 76 76 74 74 70 69 69 60 42 32 29 28 27 26
69 67 66 64 65 68 73 76 77 77 74 81 86 87 88 88 85 83 87 90 90 88 88 86 87 85 83 81 81 80 80 79 77 75 73 73 60 41 33 32 31 29 29 30
74 69 71 69 69 71 72 75 77 75 77 76 76 77 81 82 84 88 90 91 91 92 90 88 88 86 84 82 81 80 81 78 78 76 75 63 45 37 35 33 32 32 32 34
72 69 72 74 75 75 76 75 73 69 66 65 66 66 69 71 74 78 84 89 91 93 94 93 88 86 84 84 82 82 80 80 80 79 78 51 41 39 37 36 35 35 36 37
71 72 75 74 74 75 74 71 66 62 60 58 58 58 61 64 66 72 74 86 94 93 95 94 94 88 85 83 83 84 84 84 83 80 70 43 42 41 40 39 39 40 39 39
66 67 67 67 68 67 65 63 60 58 55 54 55 55 55 56 63 66 73 78 91 96 93 94 94 93 89 87 84 81 79 79 77 72 58 43 44 43 43 43 42 43 44 42
63 64 66 65 65 65 64 62 60 57 56 55 54 55 55 54 54 59 67 71 80 94 97 92 92 93 95 92 90 88 82 77 74 73 59 46 45 45 45 45 45 45 45 43
69 69 67 67 67 67 66 65 63 62 60 58 55 53 54 55 56 58 59 65 69 76 89 96 95 91 94 95 96 92 92 87 81 78 67 54 52 51 49 47 47 45 45 45
70 68 70 71 69 68 68 67 67 65 63 61 58 55 56 57 59 62 62 61 64 67 71 75 87 92 92 92 93 95 94 93 91 88 78 64 57 55 54 54 54 53 50 49
84 79 77 76 75 73 69 67 66 66 65 64 63 61 60 60 60 62 65 66 69 69 70 69 74 78 86 91 93 90 91 93 92 92 92 85 72 67 65 64 63 61 60 57
91 87 84 82 82 82 80 79 76 71 68 67 67 67 66 65 64 65 64 66 69 72 73 74 73 73 79 85 89 91 93 93 94 94 95 92 88 81 77 79 79 76 71 69
93 92 88 84 80 77 76 74 71 68 69 71 74 73 71 70 70 69 69 69 71 74 78 79 76 76 75 79 84 88 92 94 96 97 98 98 98 94 86 82 84 85 79 74
99 98 97 94 85 76 70 67 64 65 63 63 63 73 81 80 80 80 79 80 80 82 84 83 79 78 77 77 79 82 85 90 92 93 95 97 98 98 94 91 95 96 89 83
98 96 90 84 80 77 76 72 68 64 60 58 57 60 65 74 90 94 94 94 94 93 92 90 86 81 79 78 80 84 86 86 87 89 93 97 98 98 97 96 97 98 97 90
88 86 82 79 76 71 65 59 56 55 52 54 52 48 46 48 59 68 88 97 98 97 96 97 95 92 89 88 88 89 90 90 90 90 90 92 94 97 98 98 98 98 97 97
89 88 83 77 71 65 60 55 52 48 44 40 38 37 40 37 38 42 53 59 85 97 98 98 98 98 96 95 95 95 94 94 93 92 92 94 95 97 98 98 98 97 97 97
89 86 82 76 71 64 56 49 44 39 33 28 26 25 25 28 31 32 33 37 43 58 83 95 97 97 98 98 98 98 98 98 97 97 98 98 98 98 98 97 97 97 97 97
81 80 78 71 65 57 49 40 36 29 23 21 19 20 19 18 20 25 27 25 29 26 32 48 72 87 97 97 97 97 97 97 97 97 97 97 97 97 97 97 97 97 97 97

GFSNGP_prec_cthk_084.txt.gz
RH
77 75 77 77 75 74 72 66 65 53 54 48 48 51 55 58 64 68 73 67 67 64 60 55 54 54 58 62 59 53 48 43 42 41 40 40 41 42 41 38 37 35 34 34
77 69 67 62 67 68 63 57 64 61 56 55 58 59 60 64 68 70 74 78 69 66 61 60 58 57 60 65 66 68 59 56 53 46 44 43 44 46 44 39 38 38 36 36
75 70 70 69 67 72 77 75 70 70 58 61 64 67 65 69 68 66 65 66 69 70 66 65 64 61 59 61 63 63 62 59 59 56 53 49 48 47 45 42 42 41 40 41
82 71 69 50 53 52 57 61 63 60 58 62 70 70 68 67 67 64 62 66 67 69 68 67 67 65 64 64 63 64 66 62 63 64 59 53 53 51 49 48 47 45 44 44
72 69 56 52 53 55 57 53 52 49 48 51 61 68 67 64 70 67 66 67 65 65 65 69 71 71 69 68 67 65 71 65 62 63 59 58 57 55 55 54 52 50 49 50
76 72 64 57 61 58 57 62 57 56 54 53 55 61 64 64 68 67 67 67 69 65 66 67 68 69 70 69 70 72 70 70 69 64 63 63 62 60 60 58 57 56 54 51
74 78 67 55 55 61 68 63 63 61 56 55 58 57 59 64 66 69 71 69 66 67 74 75 73 74 72 72 73 72 72 71 70 67 66 67 66 64 65 64 61 57 50 42
78 81 76 56 58 62 64 69 69 67 63 60 61 63 64 66 68 66 64 66 69 71 70 70 72 73 78 79 76 76 75 73 73 72 69 67 69 69 69 66 61 51 44 38
74 73 63 62 62 63 64 69 74 76 69 67 65 63 64 65 68 70 74 75 77 77 76 76 77 78 80 79 79 78 77 75 74 74 72 71 71 71 70 67 56 47 39 31
76 72 71 67 64 65 68 73 74 76 80 81 78 75 71 72 73 75 78 79 78 78 80 79 80 82 85 86 85 82 80 79 78 76 74 74 74 74 71 61 48 40 32 27
78 72 70 68 67 71 72 73 75 80 80 85 86 88 89 88 89 87 84 83 85 86 88 87 86 86 89 88 86 86 86 85 82 82 81 78 77 76 66 52 42 33 29 29
80 73 69 72 72 73 73 75 77 79 79 79 81 80 83 86 86 85 87 88 89 93 92 92 89 88 89 89 88 85 86 85 85 84 83 80 80 74 53 42 36 33 32 30
81 78 70 71 76 78 78 80 79 79 75 70 68 71 73 72 71 76 80 82 89 94 94 94 95 93 90 89 88 88 86 85 85 85 83 82 81 60 47 40 36 35 33 33
79 79 79 77 75 77 80 80 79 75 70 66 64 63 61 60 61 65 69 74 76 85 95 96 95 96 95 90 89 88 88 87 86 85 85 84 74 53 46 40 38 37 37 37
74 76 78 78 79 80 79 79 76 73 70 64 61 59 58 57 57 58 61 68 70 78 86 97 96 94 94 95 91 89 87 86 87 87 88 86 76 50 44 42 40 40 41 42
71 73 72 73 74 74 76 76 74 70 66 61 59 57 54 53 53 54 56 56 62 70 75 85 96 95 93 94 96 93 91 89 86 85 82 79 69 48 45 44 43 43 43 43
65 72 71 71 71 70 71 71 70 68 67 65 62 59 57 54 52 51 52 55 57 59 68 73 81 92 97 96 94 97 96 95 93 88 80 76 73 55 48 48 47 47 46 46
71 70 70 71 71 71 72 71 68 67 65 64 62 61 59 59 57 55 55 57 60 61 62 67 70 72 75 89 95 94 95 97 97 95 93 87 82 71 58 56 56 56 55 54
91 90 85 79 78 77 76 75 74 72 69 67 65 64 64 63 62 60 60 60 61 63 66 69 72 72 72 73 77 85 93 92 96 97 97 96 94 90 75 63 61 63 63 63
88 89 91 91 90 88 84 82 80 76 73 72 71 73 70 66 66 66 66 67 66 66 64 65 68 72 74 76 75 75 80 88 96 95 95 97 96 94 91 85 73 68 66 67
97 96 93 90 84 80 77 71 66 63 61 58 55 56 66 77 76 72 72 72 70 69 69 69 70 72 73 76 77 76 76 79 85 91 93 97 97 96 97 99 98 92 85 81
98 98 98 97 92 84 77 74 70 66 62 59 57 54 52 53 60 74 80 80 78 77 77 78 79 78 78 78 79 79 78 79 79 82 87 92 93 96 97 99 98 98 98 93
98 98 95 88 82 79 77 74 73 70 66 63 59 56 53 51 51 49 54 67 81 88 89 90 89 87 88 87 84 82 81 81 81 82 84 86 88 90 92 94 96 97 98 98
91 90 88 85 81 81 77 71 65 59 56 53 50 47 42 38 40 45 43 45 47 56 76 94 95 96 95 95 94 93 89 87 86 86 87 87 88 89 89 90 91 93 95 98
94 90 89 88 87 80 73 68 63 56 50 45 41 35 30 29 27 25 26 31 35 36 42 52 71 96 97 97 97 97 96 95 94 93 92 91 91 92 93 93 94 94 95 96
90 89 87 83 79 75 71 66 61 54 44 37 30 26 23 22 21 20 20 20 21 28 31 34 39 49 76 93 97 97 98 98 98 98 97 97 96 96 96 97 97 98 97 97
79 80 78 75 73 69 67 62 56 47 39 30 24 22 21 20 19 19 19 18 18 19 25 30 32 29 29 43 68 91 97 97 97 97 97 97 97 97 97 97 97 97 97 97

GFSNGP_prec_cthk_090.txt.gz
RH
77 74 76 74 76 80 82 77 80 64 62 53 51 47 43 42 41 46 50 50 51 52 53 54 54 56 58 60 60 58 56 54 54 51 53 54 53 53 50 50 51 49 47 48
79 76 76 74 72 73 76 75 70 65 60 57 50 45 43 43 43 43 45 53 55 55 55 57 59 60 60 61 62 61 61 59 59 55 54 59 59 57 54 50 49 49 50 48
80 73 68 66 65 71 71 71 66 66 57 56 52 49 47 46 46 47 50 54 56 58 58 62 66 68 69 67 67 67 65 65 64 61 58 58 60 63 63 56 52 50 44 43
75 68 62 57 58 58 59 58 59 58 59 56 54 52 53 52 48 49 54 57 60 61 61 62 63 73 74 73 72 71 70 67 66 66 65 64 67 67 67 66 61 56 52 49
75 68 61 62 61 57 56 58 58 59 57 56 52 49 51 54 56 53 57 61 65 64 62 62 64 68 76 77 77 75 72 70 68 66 64 66 70 72 72 70 65 63 60 56
76 71 58 59 57 62 63 66 63 59 56 56 56 53 46 49 60 60 61 66 66 66 66 67 68 67 72 78 80 79 77 74 73 69 67 67 66 66 70 71 69 65 66 64
70 72 58 56 58 59 62 66 64 61 58 54 54 53 53 51 53 62 64 64 67 67 67 70 70 73 70 74 78 80 79 79 80 81 80 77 74 73 74 73 73 69 68 63
60 62 64 56 61 62 63 62 61 61 60 58 59 58 59 58 56 59 63 65 67 70 71 72 74 73 77 81 82 79 78 79 79 80 80 78 77 76 77 77 78 78 75 70
60 56 55 58 63 64 65 64 65 65 65 63 65 66 64 64 66 67 68 70 72 73 74 75 75 77 87 86 82 84 84 84 88 88 85 82 80 84 83 81 81 81 78 74
72 69 68 68 68 67 67 72 68 68 72 73 78 77 76 74 72 69 70 69 70 71 72 75 79 81 82 85 86 87 85 87 88 90 88 87 85 85 86 86 86 85 83 71
80 76 73 74 74 72 73 79 76 72 73 78 82 84 84 85 82 77 75 75 75 76 81 84 87 88 87 86 86 87 89 91 92 91 90 92 91 89 87 86 85 85 77 64
81 81 80 75 74 76 78 77 76 77 77 77 78 79 80 80 82 84 86 87 85 85 95 90 87 87 89 91 93 93 92 93 95 94 92 92 93 91 89 87 87 84 69 60
76 78 81 80 80 80 83 82 81 82 82 80 77 76 75 73 73 79 78 77 78 83 86 86 87 90 91 94 95 95 95 94 95 95 95 93 92 93 92 91 90 81 70 59
74 71 74 78 82 84 84 87 87 86 86 83 81 76 73 72 74 72 68 64 66 69 70 74 77 81 83 93 96 96 97 97 95 95 94 96 93 93 94 94 92 79 64 55
66 66 69 74 83 85 87 89 89 88 87 84 81 79 76 74 71 67 63 61 60 60 59 62 65 70 77 83 91 95 97 97 98 98 96 95 96 97 95 94 94 75 60 52
75 67 62 71 81 87 89 90 89 88 89 86 85 82 80 79 73 67 60 55 54 52 52 53 57 60 62 71 79 87 95 97 97 98 98 96 94 96 98 97 96 75 58 53
92 85 71 70 76 87 88 87 84 80 78 78 76 75 73 70 65 60 58 57 56 56 55 52 54 57 58 60 64 75 83 90 98 98 98 98 98 96 97 97 96 82 63 57
86 94 94 86 79 79 82 83 80 78 74 73 73 72 69 66 65 64 62 61 60 60 60 61 59 58 60 61 64 65 70 73 78 84 96 98 98 98 98 96 95 94 78 55
87 96 99 98 97 92 82 77 75 77 79 77 71 67 62 58 60 63 69 69 67 65 64 64 65 66 64 66 67 68 71 73 74 75 75 79 93 98 98 98 98 96 92 82
95 96 98 98 98 98 96 92 89 85 76 67 62 58 54 51 47 45 49 58 67 71 71 70 70 71 71 70 70 71 71 72 71 72 74 77 78 77 86 98 98 98 98 98
98 98 98 97 92 88 84 81 78 76 77 74 70 66 63 59 54 49 44 43 46 49 55 68 76 76 75 73 72 72 71 71 72 71 70 71 73 77 79 79 83 96 98 98
97 98 98 98 98 97 94 86 80 79 77 75 72 67 64 59 55 52 48 43 40 39 39 38 41 51 68 78 80 80 80 79 78 78 77 77 77 77 78 79 81 83 84 92
97 98 97 92 90 90 92 91 88 85 81 76 70 64 57 50 46 42 37 33 29 27 26 26 27 29 33 39 48 66 81 87 87 86 86 85 84 85 84 83 83 85 87 87
95 98 98 97 94 92 89 85 82 82 81 81 77 63 53 49 44 39 36 32 28 25 22 20 19 18 18 19 23 27 37 50 72 89 91 90 93 94 94 93 91 90 90 90
89 91 97 97 94 88 84 78 74 71 69 65 61 62 57 50 45 39 36 32 30 27 25 22 20 19 18 17 16 16 17 24 34 42 72 92 95 95 96 96 97 96 95 94
67 81 83 86 90 89 85 78 72 68 62 54 49 45 44 43 43 41 38 35 32 30 28 27 24 21 19 19 18 18 17 18 20 23 37 47 76 94 97 97 97 97 97 97
51 57 71 74 75 79 78 73 68 63 56 48 44 45 47 49 49 48 44 40 35 32 31 30 28 26 25 24 23 22 21 20 19 19 24 35 35 38 71 95 97 97 97 97

GFSNGP_prec_cthk_093.txt.gz
RH
79 75 73 75 78 76 80 72 78 68 65 59 55 53 49 44 41 41 46 44 42 43 44 44 46 48 47 48 51 53 54 55 54 54 53 56 58 60 59 56 52 52 49 49
81 73 72 73 70 72 73 72 72 71 66 60 56 51 48 46 43 42 44 48 48 48 49 49 51 52 53 54 55 57 58 58 59 58 56 54 54 54 55 57 59 54 51 49
85 74 72 74 71 68 68 67 67 71 64 60 57 52 50 47 46 44 45 45 45 47 50 52 54 55 55 56 60 61 62 63 62 62 62 60 58 58 58 61 62 59 58 52
71 69 72 64 60 63 66 59 57 59 59 58 56 55 53 50 46 44 44 47 49 51 54 56 57 57 58 58 62 66 68 68 67 67 68 66 65 63 59 59 61 62 63 61
75 65 64 64 62 59 59 58 55 55 54 54 55 52 51 51 51 52 48 51 53 56 58 60 58 58 59 62 64 70 74 73 73 72 72 69 66 65 64 64 66 70 68 68
75 72 60 66 60 60 58 64 60 60 56 53 52 54 50 47 46 52 53 57 60 61 64 65 63 62 63 65 66 70 77 78 78 77 74 72 70 69 67 66 68 70 72 72
74 75 65 58 57 57 65 79 66 60 57 53 54 54 55 52 49 50 56 61 67 69 69 69 71 70 69 70 68 69 74 78 81 80 79 77 78 78 76 73 70 67 69 71
66 70 72 65 65 67 68 62 62 59 56 60 59 58 58 55 53 52 57 61 65 66 67 68 69 72 72 73 71 74 76 79 78 78 76 77 81 80 78 78 77 75 74 75
61 61 56 60 64 63 62 63 68 64 60 63 64 65 67 64 62 61 60 63 65 66 68 71 73 74 74 76 74 83 84 82 83 82 80 84 86 84 85 82 81 81 80 80
73 69 65 64 64 64 64 69 71 71 70 72 74 74 75 74 72 69 69 70 70 72 75 78 77 75 73 76 79 81 84 86 84 84 84 85 87 87 86 86 86 86 87 87
76 77 75 74 73 73 74 75 80 78 75 75 78 79 83 83 82 79 76 74 74 75 75 73 75 80 84 85 87 87 87 86 86 88 89 93 92 92 92 91 90 89 90 90
92 81 80 78 76 75 77 81 82 81 80 76 76 74 75 79 81 82 85 86 84 84 82 83 86 90 91 86 87 86 89 91 91 92 93 94 96 94 94 94 92 90 90 91
82 79 77 78 78 80 82 83 86 86 83 81 80 76 75 77 74 75 76 77 77 77 79 82 84 87 86 87 88 89 90 93 94 95 95 95 96 98 95 94 96 94 93 92
80 81 77 77 77 80 84 86 87 91 90 89 85 84 80 76 73 73 74 72 68 66 67 68 70 71 71 74 78 82 89 95 96 96 97 96 96 96 97 96 96 97 97 95
75 78 74 72 72 75 83 87 90 91 92 91 89 87 84 81 78 76 73 71 68 65 63 62 62 62 64 66 69 74 80 89 94 97 98 98 98 97 97 98 98 97 97 94
82 82 82 77 74 71 79 88 91 93 92 91 90 88 84 80 77 75 73 70 66 62 56 54 52 52 54 58 59 61 67 76 84 91 97 98 98 98 97 98 98 98 98 95
83 84 90 87 81 77 78 83 91 90 88 84 79 76 77 76 75 75 73 71 66 61 57 56 55 55 54 55 57 57 60 65 69 78 86 93 98 98 97 97 98 98 98 98
90 84 84 95 97 94 86 81 81 87 85 76 73 74 74 71 65 61 61 61 65 64 62 61 60 60 61 61 61 61 62 65 67 67 71 75 80 88 97 98 98 98 98 98
84 91 88 92 98 97 98 94 85 78 72 69 70 69 63 55 52 50 50 53 56 59 67 69 67 66 65 65 66 67 68 69 70 70 71 72 73 74 75 81 94 98 98 98
94 94 94 95 96 98 98 98 96 90 84 76 67 62 60 59 57 54 51 49 49 50 51 52 62 69 71 70 70 70 71 72 72 72 72 72 72 71 73 76 78 79 85 95
94 96 98 98 98 96 90 89 83 84 87 85 79 76 74 71 67 62 57 52 49 42 38 35 36 40 45 57 69 74 76 76 76 75 75 73 72 72 71 71 71 74 78 80
89 96 97 97 97 98 98 96 89 84 85 83 81 79 74 66 59 55 50 46 42 37 33 30 29 30 30 32 35 40 50 63 72 79 81 81 80 79 79 79 79 78 77 77
79 89 94 97 97 97 97 97 97 95 90 88 85 82 75 67 59 50 45 41 37 33 29 26 24 23 22 20 19 18 19 23 32 44 57 70 82 87 86 86 86 86 86 86
78 84 89 93 97 98 96 91 87 83 81 79 75 69 65 64 62 56 49 44 41 38 34 32 31 28 24 22 20 19 17 17 17 18 21 27 41 55 70 85 90 91 91 93
51 65 82 88 90 93 96 92 87 83 78 73 66 61 57 52 49 51 51 51 50 46 41 38 34 32 30 28 26 24 22 19 17 17 17 17 18 23 34 49 76 92 94 95
50 57 56 68 82 85 87 88 86 82 78 71 63 55 51 50 51 52 54 55 55 53 49 43 37 33 32 31 29 28 27 25 23 22 21 20 19 19 19 23 34 54 84 94
61 65 64 61 59 68 76 79 76 76 74 69 58 49 44 45 48 51 53 55 56 57 56 52 46 41 38 36 35 34 33 32 32 32 30 29 25 23 22 20 21 32 39 44

GFSNGP_prec_cthk_096.txt.gz
RH
83 79 75 76 77 78 82 78 82 77 72 68 62 58 52 49 45 42 40 39 41 41 41 42 41 41 41 42 44 45 47 49 52 53 53 54 53 53 55 56 63 65 63 61
87 76 76 79 78 74 74 73 71 70 72 68 65 60 58 54 48 45 44 44 47 46 45 45 45 45 46 47 48 49 50 52 54 56 56 58 58 58 55 52 52 56 59 60
91 74 74 82 74 75 72 72 71 77 74 70 66 62 58 56 54 49 45 47 48 49 49 48 49 49 49 52 54 54 54 57 60 61 62 63 63 62 62 61 58 56 55 58
81 73 77 68 61 63 65 63 62 63 65 65 63 60 60 57 54 52 49 49 49 48 50 48 49 51 52 52 53 53 55 58 61 63 66 68 67 65 65 64 63 60 58 59
81 70 68 63 61 59 62 62 59 59 60 59 56 57 57 56 54 52 50 50 50 50 51 53 55 54 54 53 54 57 59 62 66 69 71 73 72 71 70 69 66 66 66 63
80 81 71 76 62 61 59 68 60 58 58 55 52 59 60 57 52 50 54 57 58 57 57 59 59 58 56 56 57 60 64 67 68 70 73 76 76 75 72 70 69 68 67 66
83 82 73 67 62 64 71 81 72 65 59 58 59 58 58 57 54 49 49 57 62 66 67 66 66 63 65 65 66 67 69 69 70 71 72 75 78 77 77 76 75 75 73 72
70 78 81 72 69 71 72 73 69 63 58 57 59 59 60 59 56 55 53 56 62 69 73 74 72 71 71 70 70 69 70 71 72 78 80 79 78 77 74 77 80 79 78 77
69 72 65 67 72 73 68 63 65 65 64 61 62 64 64 64 62 62 60 59 64 66 68 69 69 69 69 70 72 72 73 78 81 82 82 82 83 82 83 84 83 84 85 81
79 78 70 67 66 66 68 71 71 69 70 69 70 71 70 71 73 71 70 70 69 69 70 70 71 73 74 77 75 73 78 80 81 82 83 83 84 86 86 86 89 90 88 88
80 84 85 80 76 73 73 75 76 77 77 78 80 75 75 76 76 76 75 73 72 76 76 76 77 76 77 76 75 83 85 86 86 86 86 86 87 89 90 94 93 93 94 91
96 87 89 85 84 82 81 80 82 83 82 82 81 78 75 75 74 76 80 81 82 79 78 79 80 79 81 82 85 88 89 86 86 87 88 89 91 94 95 95 95 95 95 96
84 88 85 83 83 84 85 87 87 87 88 86 85 84 80 78 76 74 73 73 74 75 74 75 76 81 84 84 84 88 87 84 83 89 91 93 95 95 95 96 96 96 95 96
83 85 86 84 80 80 82 87 90 92 90 92 93 92 85 82 80 77 74 72 72 73 71 69 67 68 70 71 73 71 72 75 79 82 88 94 96 96 96 97 97 96 96 96
85 83 82 81 82 78 77 79 84 92 94 94 94 93 90 88 85 82 77 75 74 73 72 70 67 66 65 66 67 69 71 73 71 73 79 88 91 95 96 97 97 96 96 96
75 82 87 84 85 84 78 81 82 84 96 97 96 94 91 88 84 81 77 74 73 72 72 72 68 64 62 58 57 60 62 62 62 62 68 73 80 88 93 96 96 97 97 97
77 80 81 80 85 92 92 91 86 82 88 95 92 88 84 78 76 77 73 70 71 72 75 76 70 63 57 57 57 57 60 59 60 61 65 66 68 76 83 88 93 97 98 97
78 77 81 86 84 86 96 97 93 88 84 81 88 87 79 72 68 60 54 54 57 62 63 66 68 66 64 62 63 64 64 64 66 66 67 68 66 66 68 70 74 80 90 97
79 83 84 86 87 87 94 98 98 98 95 82 72 66 66 64 60 57 56 55 52 52 56 58 56 57 66 71 71 70 69 69 69 69 70 70 70 71 72 72 72 73 75 79
69 78 83 89 92 93 93 97 98 97 96 89 79 71 64 63 64 65 65 63 57 54 48 44 41 42 47 48 56 65 72 75 74 73 73 73 74 74 74 73 72 72 73 73
54 63 74 85 92 93 95 96 93 91 94 93 89 85 82 81 79 73 67 63 58 52 47 43 39 36 33 31 30 32 38 45 53 65 73 76 78 79 78 77 77 76 76 75
60 63 68 71 83 92 94 96 97 95 94 96 97 95 89 84 76 71 64 56 51 45 41 38 34 30 27 25 24 24 23 22 22 26 33 44 54 63 72 78 82 82 82 82
52 61 68 72 76 82 90 96 97 97 94 90 88 85 80 72 68 66 62 57 52 47 43 39 36 32 29 26 25 24 23 22 20 19 18 18 19 23 30 37 50 63 76 85
42 47 52 64 74 77 83 90 96 93 90 86 82 75 69 64 60 55 51 50 53 56 55 50 47 44 40 37 36 34 32 30 28 26 23 21 19 18 18 18 21 25 34 50
39 44 47 53 58 64 79 87 91 89 89 87 84 76 68 62 57 56 56 59 60 61 63 63 65 67 62 57 50 44 40 36 35 33 30 28 25 23 21 20 19 19 21 25
43 44 46 52 62 68 68 66 78 88 87 80 79 76 67 60 57 54 52 53 55 57 58 59 58 57 54 50 47 44 41 39 37 36 35 34 34 33 31 30 28 24 21 20
41 44 48 53 60 68 71 72 69 71 78 80 78 69 62 53 49 51 54 54 53 54 57 59 58 58 56 52 49 46 45 43 42 41 41 40 40 40 39 39 38 38 37 34

GFSNGP_prec_cthk_102.txt.gz
RH
77 76 72 72 73 77 82 83 89 84 79 72 62 58 57 55 49 44 38 39 42 43 40 44 45 45 44 44 43 42 40 42 46 51 55 57 57 57 57 54 52 51 50 51
74 69 72 73 70 74 81 78 86 91 85 79 74 66 64 59 56 53 47 38 37 43 45 42 39 40 41 40 41 39 40 43 45 47 48 49 50 50 51 52 53 55 56 57
81 71 71 80 80 77 79 83 81 86 81 78 75 70 63 63 64 62 57 55 47 42 44 46 45 45 44 43 43 44 44 45 46 46 48 50 51 53 53 54 56 57 58 59
84 73 81 77 76 81 81 82 81 80 80 79 77 76 73 71 68 64 62 60 58 55 54 51 51 51 48 48 50 51 50 52 52 52 53 53 53 54 54 56 59 61 62 64
87 84 74 74 76 76 78 84 83 81 80 78 75 74 74 75 74 73 69 63 58 56 54 52 56 55 56 58 57 56 55 55 54 54 55 55 56 58 60 63 65 66 67 68
82 85 81 81 71 71 69 84 80 79 74 71 69 70 69 68 67 66 66 68 67 68 64 62 61 60 60 60 59 55 54 56 58 58 58 59 60 60 62 65 67 66 66 67
79 85 79 75 73 73 74 77 79 74 69 67 64 61 63 66 65 62 61 63 65 67 70 74 75 73 68 65 63 62 61 60 60 60 62 63 63 65 68 69 70 70 71 73
78 79 82 77 80 79 78 81 80 77 73 70 67 65 65 65 65 62 61 61 66 68 71 74 74 74 75 75 71 67 66 67 67 68 67 68 70 74 76 74 73 73 74 76
79 79 74 76 75 80 80 77 77 76 74 73 71 69 69 70 69 68 65 62 63 68 73 77 80 81 82 83 78 77 77 77 76 75 77 80 78 76 75 74 73 76 78 79
75 82 83 83 81 76 78 81 84 86 84 78 76 77 78 75 73 72 72 72 70 68 70 74 78 81 82 80 79 81 82 83 84 83 81 79 75 74 76 77 78 81 82 85
80 81 82 84 86 86 84 81 80 83 87 90 91 90 89 83 78 76 76 76 76 77 78 78 78 77 77 78 80 82 82 82 82 82 80 78 78 81 81 80 80 82 84 86
80 81 85 86 88 86 87 87 89 89 87 90 90 89 87 84 79 77 75 74 74 76 77 77 79 81 83 84 84 84 83 80 79 79 80 85 86 88 87 85 84 85 86 88
69 75 81 82 85 92 87 87 88 92 94 94 94 94 91 87 85 85 82 78 75 73 73 74 77 80 79 77 77 81 84 87 90 90 86 81 79 80 77 77 79 84 89 92
55 57 63 72 79 84 84 83 87 87 91 93 95 97 97 94 95 95 90 85 82 79 77 76 76 77 77 76 77 77 76 76 76 78 78 75 74 79 77 76 75 79 86 90
50 53 58 61 65 71 77 84 85 85 86 88 86 87 92 95 95 95 92 87 82 78 76 74 74 74 73 73 74 74 75 74 72 70 72 75 77 74 73 73 71 71 75 80
50 55 59 62 65 68 69 73 79 89 92 92 91 92 93 95 99 93 89 86 82 78 74 74 73 72 71 73 75 75 75 75 74 70 70 72 72 71 65 64 65 66 66 66
47 47 48 55 60 66 70 74 76 82 82 93 97 97 98 94 96 93 87 80 73 66 62 62 67 70 73 74 73 79 82 81 79 78 72 70 70 67 65 67 68 69 69 67
40 39 41 44 50 55 63 72 79 81 82 86 95 98 97 94 89 81 68 64 64 65 66 66 64 62 60 62 63 65 68 80 82 82 76 71 70 71 71 71 71 70 70 70
37 38 41 45 49 53 56 63 72 81 86 89 94 97 98 96 87 78 73 69 67 66 68 66 64 61 56 52 48 46 47 52 66 70 72 76 76 75 75 74 73 72 72 72
35 35 37 42 47 53 59 63 67 72 81 92 94 97 93 88 84 82 82 82 79 76 69 59 55 53 50 48 46 43 41 39 37 36 41 51 58 63 64 66 68 71 74 76
34 35 36 41 45 48 54 59 63 69 72 78 88 93 94 95 97 98 97 93 88 81 72 63 57 52 49 48 47 43 40 37 34 32 30 29 28 27 25 25 29 33 35 42
32 32 36 39 43 46 49 54 58 63 70 74 82 85 94 97 94 89 86 78 72 68 63 60 59 60 60 58 53 48 45 42 38 35 32 30 28 27 26 24 23 22 24 26
33 34 35 38 41 44 47 52 57 62 65 70 73 79 81 85 84 78 74 70 66 65 66 67 68 68 68 68 67 66 64 61 58 57 53 48 45 43 41 39 37 34 31 30
34 34 37 38 41 45 49 52 54 60 62 64 71 76 85 94 88 88 84 81 78 75 70 67 66 66 66 68 68 66 65 64 62 59 57 55 52 51 49 47 46 45 44 42
36 34 35 38 42 44 48 53 56 61 64 69 74 77 81 79 81 80 74 69 64 61 62 63 62 61 59 56 53 52 53 55 57 57 54 52 49 48 47 46 45 44 43 44
34 33 33 36 39 43 46 48 53 57 63 65 70 76 80 84 84 80 74 68 62 57 51 43 37 35 36 39 38 37 38 38 39 38 38 38 39 41 43 44 44 45 45 45
29 28 27 30 33 37 39 41 43 46 52 60 67 78 84 88 79 76 65 52 43 39 37 35 32 31 32 32 33 34 33 32 32 32 32 34 34 34 33 33 36 39 41 42

GFSNGP_prec_cthk_108.txt.gz
RH
77 75 79 78 77 75 75 74 69 70 67 65 63 62 59 54 50 49 50 50 48 52 50 51 54 54 57 58 57 53 51 48 48 48 51 50 51 53 50 49 49 51 53 52
75 73 75 75 75 78 78 74 71 70 69 64 62 60 58 56 53 49 47 45 44 48 55 54 57 58 57 54 54 61 56 53 51 53 49 48 52 49 46 47 51 52 52 48
73 70 74 75 70 74 76 74 77 74 74 71 69 65 63 60 56 52 50 48 45 47 49 54 53 57 59 62 61 61 57 53 52 52 48 45 45 45 46 48 52 47 47 45
75 66 79 68 74 74 79 81 80 79 81 79 75 74 74 71 68 63 58 57 52 47 45 46 50 50 51 53 55 59 53 48 48 46 44 44 47 47 47 48 46 48 48 47
76 78 71 79 81 91 85 85 84 84 81 80 79 78 77 76 74 71 67 64 63 61 59 55 51 48 48 49 48 45 46 46 46 48 50 50 49 48 48 49 51 53 50 48
77 77 80 79 74 77 85 93 88 84 80 78 76 75 75 74 74 75 74 69 64 67 67 66 62 58 53 52 55 56 56 57 58 60 58 56 59 63 56 53 55 54 52 52
70 76 72 72 74 76 77 76 83 81 79 78 77 76 75 72 72 70 71 73 72 67 70 74 75 71 70 67 63 62 64 65 63 61 61 62 61 60 56 57 57 54 55 56
68 72 73 69 70 72 78 83 84 80 77 76 75 74 73 73 73 72 70 70 70 69 77 83 84 81 80 78 74 74 72 73 69 70 70 68 66 62 59 61 59 60 60 61
59 62 68 72 73 72 74 74 75 76 76 76 76 76 75 75 75 75 72 70 69 71 74 79 85 87 88 88 88 87 86 85 84 81 80 79 76 72 68 67 69 68 68 67
56 60 62 65 68 71 73 73 71 74 76 76 77 79 84 83 80 76 74 74 73 75 73 75 78 82 90 92 93 95 95 94 92 89 86 83 80 77 79 80 77 75 73 68
53 55 56 59 63 66 69 72 73 75 75 75 78 82 84 84 86 83 79 77 77 76 73 75 76 78 83 87 90 94 95 94 94 90 89 88 87 87 86 83 78 76 72 71
49 48 52 56 60 63 65 67 68 71 73 76 80 83 86 87 84 83 83 83 80 76 75 77 78 79 81 84 86 88 89 90 90 89 88 87 85 83 80 77 74 75 76 79
44 48 50 52 55 58 60 62 65 69 75 77 80 83 86 87 88 89 87 86 86 85 85 81 81 79 77 78 79 79 79 79 81 84 85 84 82 82 82 82 82 81 80 73
41 42 43 44 44 46 49 53 57 60 65 72 79 80 81 83 87 89 91 96 95 95 93 90 87 83 80 78 78 78 77 78 80 81 81 80 80 80 79 77 77 78 78 74
39 39 39 38 38 41 44 46 48 50 52 57 63 73 82 86 87 89 88 86 93 96 96 92 88 85 82 79 77 74 72 72 73 75 76 76 75 74 75 76 75 74 78 76
38 38 38 38 38 39 41 44 46 48 51 54 57 62 69 74 80 87 90 93 92 95 98 94 86 80 76 74 74 72 72 71 69 68 68 71 75 76 75 76 77 79 80 77
36 38 38 38 35 33 35 38 40 42 45 50 55 60 64 70 75 78 83 91 98 96 91 85 80 74 68 67 70 72 71 70 69 68 70 69 77 81 83 83 84 85 86 86
38 38 37 36 35 34 36 38 40 43 47 51 54 57 60 63 68 76 83 87 86 88 87 87 82 73 69 68 63 62 66 63 60 59 60 67 69 76 77 81 86 87 87 89
40 40 38 35 34 35 37 39 41 44 45 49 52 54 56 60 64 69 76 83 86 91 91 88 82 77 74 72 69 67 64 60 59 56 54 51 49 55 69 73 74 77 79 80
42 41 39 36 35 35 36 40 42 44 46 48 48 51 56 58 60 61 62 66 72 84 94 93 90 86 80 77 70 65 61 58 53 50 47 47 46 45 44 43 40 41 44 46
43 42 40 38 36 35 38 41 42 42 46 48 48 48 52 54 55 57 61 64 67 67 75 80 83 80 82 83 83 81 78 72 68 64 61 56 47 43 41 41 40 37 36 35
45 42 39 39 36 37 39 41 42 43 44 47 50 52 53 55 56 56 54 55 55 56 64 79 79 86 87 86 85 84 83 81 79 77 78 76 74 72 69 65 63 59 55 53
44 40 36 40 41 41 41 42 43 45 47 48 52 54 55 56 56 58 63 65 64 65 65 75 89 92 90 89 85 82 79 75 72 73 74 73 71 71 70 69 68 66 64 61
44 40 38 41 45 44 43 43 44 48 49 51 55 59 59 61 63 65 64 66 67 66 64 65 73 80 82 80 76 69 62 64 64 61 57 57 55 55 55 55 55 54 54 53
44 43 43 43 43 41 41 42 44 47 49 53 56 60 61 62 61 65 63 67 69 70 68 64 71 74 70 60 51 47 50 54 52 47 43 44 44 46 46 46 45 42 42 41
46 45 43 43 42 41 41 43 43 43 47 49 52 52 54 54 52 54 59 63 68 62 57 56 58 59 54 48 46 45 46 47 43 39 35 36 36 37 37 37 38 38 37 34
47 46 43 40 37 34 34 34 35 35 35 35 36 36 35 36 37 39 41 41 40 38 39 43 41 40 43 44 42 40 39 36 34 34 34 33 33 32 32 30 28 27 27 27

GFSNGP_prec_cthk_111.txt.gz
RH
79 80 75 76 73 72 73 75 75 75 77 75 70 68 66 65 61 60 60 58 62 64 62 64 68 67 66 64 63 61 58 59 56 54 58 62 63 63 62 61 60 57 53 49
76 77 74 71 72 72 74 72 71 70 67 65 64 64 61 59 56 58 57 56 55 58 62 61 60 61 62 64 67 66 63 59 52 49 47 48 47 49 56 56 50 50 51 52
70 69 71 71 71 71 72 74 73 76 72 67 62 62 62 59 58 55 51 50 51 52 56 64 66 64 63 63 64 65 63 59 55 53 50 52 50 49 49 51 51 51 54 51
70 60 72 68 76 75 78 77 72 73 71 71 72 70 63 60 57 53 49 47 47 46 47 50 57 62 63 64 66 70 67 64 61 58 55 57 55 50 48 49 50 52 49 43
70 72 68 72 77 82 80 83 78 74 69 69 68 66 67 68 64 57 54 52 49 45 45 43 44 48 49 51 55 60 64 65 65 62 58 54 51 50 50 49 49 52 55 57
71 73 76 73 70 78 80 90 81 74 71 71 66 66 67 66 62 58 60 61 61 57 56 57 55 53 49 48 49 50 51 50 49 49 49 51 52 52 52 53 56 60 62 60
64 70 67 66 69 71 70 76 83 80 78 74 70 68 67 65 64 62 59 61 65 65 63 65 69 69 66 63 59 56 55 58 59 59 57 55 57 57 58 61 65 67 68 64
60 63 66 62 63 64 69 75 77 74 72 71 70 69 68 71 71 68 67 66 66 67 69 71 71 75 75 76 75 71 69 64 65 68 68 68 66 67 68 70 69 68 64 66
51 51 55 60 62 64 66 66 67 69 71 71 72 72 72 73 72 71 70 70 69 70 73 76 77 81 84 84 85 86 83 80 78 76 76 78 76 74 72 72 75 78 79 76
52 54 56 56 57 60 63 64 66 67 66 67 70 73 73 74 76 76 73 72 73 75 74 74 79 80 81 87 92 93 92 92 92 90 90 88 86 86 87 89 90 87 87 88
49 51 52 52 52 55 58 60 61 64 67 70 73 75 75 79 81 81 80 78 75 74 76 77 79 79 82 85 89 96 98 99 98 97 96 98 97 96 95 94 92 94 96 93
43 43 46 48 52 53 55 55 57 60 62 67 69 75 79 84 86 86 87 85 85 86 84 82 81 81 81 81 83 88 92 93 96 96 99 95 98 99 97 98 98 97 94 89
39 40 43 46 48 51 52 52 52 52 54 60 64 70 75 79 82 87 89 91 93 93 94 93 91 89 86 84 81 81 82 83 84 88 92 97 96 95 95 94 93 91 89 89
37 39 43 44 45 44 43 44 46 47 47 49 52 56 62 68 76 83 87 88 92 96 98 98 99 98 94 91 88 85 84 82 82 83 84 85 85 86 86 86 86 87 87 85
36 36 37 38 38 38 38 39 40 41 42 43 45 49 52 57 62 68 77 84 87 87 89 93 96 97 96 92 88 85 82 79 77 77 77 77 76 76 79 81 82 84 83 81
34 35 36 36 36 35 34 34 34 35 38 40 42 43 47 51 54 58 64 69 75 80 89 93 92 94 95 87 81 79 78 78 76 75 74 74 73 71 73 77 81 83 83 82
33 36 35 35 36 34 32 34 35 38 38 39 40 44 48 50 52 55 58 61 66 71 78 85 89 92 92 84 79 72 70 68 69 73 74 73 73 74 72 77 80 83 84 85
34 35 36 36 35 33 32 33 35 37 39 39 41 44 46 49 50 51 54 57 60 63 67 72 78 80 82 80 77 74 71 69 67 63 61 63 62 65 70 73 79 77 79 83
36 39 39 38 36 34 33 35 36 39 41 42 43 44 46 48 49 54 56 57 57 56 59 64 69 79 87 91 91 88 82 77 73 70 66 60 59 59 56 53 57 66 72 75
40 41 42 41 38 37 37 36 37 40 42 43 44 45 46 50 52 52 52 52 53 55 58 60 64 67 71 81 90 86 83 79 76 72 68 64 59 54 51 50 49 48 47 45
42 42 44 43 40 38 38 37 39 41 43 45 45 46 49 51 53 53 54 55 56 56 54 53 53 52 55 60 71 80 90 91 89 85 83 80 76 70 65 59 54 49 47 47
42 43 45 44 41 41 40 40 42 43 44 45 47 49 51 55 57 58 57 56 55 54 53 52 54 58 65 68 77 87 88 88 87 84 82 81 81 80 81 81 78 75 71 69
42 43 43 43 42 43 44 44 43 44 46 46 51 54 56 58 60 62 63 66 65 61 61 61 62 65 72 78 78 82 86 81 78 80 84 80 70 70 74 76 75 73 71 70
42 42 42 44 45 45 44 44 46 44 46 50 51 54 57 60 63 66 67 67 63 62 61 60 59 61 61 64 68 71 72 67 64 63 68 69 66 64 64 63 60 53 53 52
43 43 45 48 47 46 45 46 45 44 45 48 52 56 57 59 60 64 62 61 59 59 61 62 59 54 53 53 56 60 56 61 60 58 56 52 50 49 49 50 50 50 49 47
45 46 48 49 47 46 45 44 42 41 42 43 45 47 48 48 49 50 49 47 49 51 48 42 38 37 37 42 52 58 58 54 50 46 45 45 44 43 43 40 38 36 35 34
51 51 50 50 48 43 41 39 38 37 38 37 36 38 37 36 36 38 40 42 44 45 40 35 34 34 35 38 42 40 42 45 43 39 37 36 35 35 35 34 34 32 30 27

GFSNGP_prec_cthk_114.txt.gz
RH
78 76 81 76 75 70 76 68 72 72 73 71 69 69 68 66 67 68 70 80 78 83 82 84 82 82 78 82 82 78 79 78 77 73 71 75 80 81 80 81 80 75 72 66
76 71 70 70 71 69 67 65 66 67 69 67 67 68 68 66 62 60 62 63 68 72 72 74 77 75 77 79 83 82 78 76 71 66 63 66 69 72 77 78 74 71 67 64
71 66 64 65 69 71 69 66 62 62 63 62 59 60 61 60 59 58 56 55 56 58 62 67 67 62 65 69 74 75 76 78 76 71 66 62 62 63 59 58 58 56 55 56
57 55 65 71 73 72 67 68 65 62 61 59 60 58 56 55 54 55 55 53 49 47 49 51 58 64 63 61 64 69 72 71 75 73 70 65 62 62 60 58 55 55 55 55
56 56 62 66 70 75 73 72 66 63 63 60 58 56 55 52 51 50 49 49 47 46 45 44 46 54 59 63 68 66 65 69 75 76 76 74 66 63 63 61 56 54 54 53
58 59 61 57 64 69 69 74 68 63 61 59 57 54 58 58 55 52 51 53 51 48 47 47 49 47 45 47 51 56 59 64 68 69 70 71 68 65 62 62 59 57 56 55
50 52 53 55 58 58 57 67 69 67 66 64 62 63 61 60 58 58 56 54 54 56 53 54 56 57 56 56 54 55 55 57 59 60 60 61 62 61 60 60 61 63 64 65
47 50 53 52 56 56 58 68 68 67 66 67 69 69 66 66 63 61 58 58 59 58 60 64 65 64 65 67 67 67 65 64 65 64 65 68 70 72 73 74 71 68 67 70
42 42 48 50 52 54 56 58 61 62 62 62 64 66 68 69 70 67 64 61 62 63 65 69 73 76 76 75 75 77 79 79 82 81 79 77 77 76 77 80 79 79 77 75
46 47 51 51 52 52 51 52 52 53 54 54 56 56 55 55 59 62 64 65 69 70 71 69 72 75 78 82 84 86 88 88 89 90 91 90 88 88 86 86 85 86 85 87
41 45 49 49 49 50 49 49 49 49 50 51 53 54 55 59 63 66 68 68 68 68 68 71 74 77 79 84 85 88 88 88 92 93 93 95 96 96 98 98 97 96 95 93
33 34 39 41 43 44 47 48 47 48 48 49 51 52 54 57 58 62 64 68 71 72 74 77 77 77 77 79 81 84 85 87 92 99 98 99 98 99 99 96 98 98 99 98
30 32 37 39 40 42 44 44 45 44 44 45 49 49 49 52 53 55 58 62 66 72 77 81 86 87 88 86 84 81 81 81 80 82 86 88 91 95 96 97 98 99 98 97
31 32 37 38 39 39 41 40 39 39 39 40 42 45 47 47 48 50 51 54 59 62 66 72 76 82 88 90 92 92 90 87 85 84 83 81 83 84 88 90 93 94 95 94
32 33 34 36 37 36 35 34 34 34 35 37 38 41 42 45 48 50 53 55 55 56 58 60 65 70 77 85 91 95 96 95 92 88 83 81 80 80 81 80 79 81 84 87
33 34 35 35 34 33 32 31 31 31 33 35 37 39 39 41 45 47 50 52 53 55 56 59 62 62 63 71 81 88 90 89 86 84 84 82 80 79 78 78 77 79 80 82
33 35 35 36 33 33 32 30 29 31 34 37 39 40 43 44 46 50 51 52 54 54 56 58 57 59 63 66 70 76 82 82 80 77 74 72 74 80 82 81 80 80 83 86
32 34 35 35 34 34 32 30 32 33 36 39 41 43 45 46 48 49 50 52 53 55 56 56 56 53 50 49 51 56 65 73 81 78 75 72 69 67 64 70 83 81 86 87
35 34 36 37 36 36 34 34 35 36 39 41 43 43 45 45 45 49 52 53 56 57 56 56 55 54 53 51 54 59 61 65 75 85 85 82 80 76 70 64 60 63 70 80
35 36 38 38 38 38 36 36 38 39 41 43 45 46 46 46 48 51 52 52 51 53 58 59 57 56 54 53 54 55 56 61 64 68 79 83 82 80 75 67 63 57 54 54
35 37 38 38 39 40 38 39 40 41 43 46 47 47 48 49 49 50 53 55 56 56 56 56 55 55 52 50 54 58 61 66 67 68 79 82 83 85 85 83 78 72 65 61
36 37 38 38 38 38 40 42 44 44 46 48 49 49 49 51 52 54 56 57 56 58 58 58 58 56 59 62 64 65 67 71 74 73 74 82 90 92 88 89 89 87 87 85
38 38 38 36 35 39 44 47 48 48 48 50 52 52 52 53 56 59 61 61 64 66 63 60 60 58 58 63 65 64 62 65 62 65 64 69 79 88 91 88 81 77 82 85
42 40 39 38 41 45 47 48 48 49 50 50 53 53 52 54 57 60 63 64 65 63 59 58 57 56 57 56 52 50 53 54 55 63 73 76 76 68 65 66 68 71 76 72
43 42 41 43 47 50 50 50 49 48 49 49 50 50 50 52 53 58 59 59 59 60 60 58 57 56 52 42 36 37 43 48 56 56 62 60 54 58 66 61 58 58 59 58
43 45 46 49 52 53 51 49 46 46 45 44 44 45 44 44 45 47 47 49 51 49 48 51 50 50 44 37 34 35 36 40 49 56 56 52 52 54 47 48 51 49 45 42
48 51 55 55 55 54 52 49 46 43 42 41 41 42 40 39 38 39 40 41 42 44 50 51 51 51 49 44 39 38 37 37 39 41 45 46 41 38 38 39 38 36 37 37

GFSNGP_prec_cthk_117.txt.gz
RH
75 72 73 80 75 72 73 74 81 80 78 79 75 73 76 72 78 84 84 92 93 92 87 86 94 95 93 90 88 88 87 86 81 82 80 81 87 88 91 93 93 87 81 78
70 67 66 73 73 71 67 71 74 76 76 77 74 71 62 64 65 65 70 75 86 90 90 90 86 84 89 93 91 89 86 81 80 79 79 77 72 76 85 87 86 83 79 76
69 63 61 66 71 68 66 66 67 71 70 66 67 66 65 61 56 57 56 62 66 72 78 79 80 81 80 83 90 89 88 87 85 83 81 78 75 79 82 80 79 84 85 81
57 55 62 66 70 68 65 64 62 60 62 61 59 56 58 60 58 55 54 54 54 58 61 70 74 73 74 73 78 84 89 91 93 91 88 83 79 75 72 72 72 71 65 61
62 59 63 67 70 74 74 67 59 56 56 55 55 57 55 53 52 52 50 51 51 49 49 48 51 64 71 73 73 72 72 74 81 83 79 79 79 76 73 71 65 64 62 59
57 62 62 56 61 62 64 73 61 59 55 52 50 53 55 54 52 51 52 52 51 51 53 53 53 53 54 58 67 77 79 77 75 74 78 81 83 83 81 76 71 69 67 63
49 51 54 55 60 62 69 71 62 59 57 55 53 54 55 55 54 52 49 51 54 52 56 58 61 64 65 62 57 56 56 59 65 69 72 72 75 76 74 70 67 65 64 65
40 43 52 52 54 57 57 60 58 57 55 53 52 53 54 53 52 51 49 48 51 52 54 59 62 67 70 70 71 68 67 65 62 61 60 62 62 64 63 63 64 63 64 65
38 40 42 45 48 49 51 54 53 52 50 49 49 50 50 50 49 50 52 51 54 55 55 54 56 60 65 69 76 81 80 78 79 80 78 77 75 75 74 74 74 72 72 74
36 38 41 44 45 45 45 43 43 43 43 44 44 45 45 44 44 44 46 48 51 54 56 58 61 63 65 71 72 77 82 86 87 85 89 91 93 93 92 90 88 84 84 84
33 36 38 39 40 39 40 40 41 41 42 42 41 42 42 44 45 46 48 48 50 51 54 56 59 62 65 69 72 76 78 85 92 93 94 96 96 97 97 95 95 94 96 95
26 25 29 32 34 37 38 37 38 40 41 40 40 42 43 44 43 43 45 47 48 50 53 56 58 62 67 69 73 78 78 80 84 92 97 94 97 98 98 98 98 98 99 99
24 25 28 30 33 33 36 36 37 37 38 39 38 40 40 40 40 39 40 41 42 45 48 49 51 55 60 63 68 76 79 82 84 86 86 85 87 94 97 97 97 98 98 98
25 26 30 31 31 31 34 35 36 35 35 35 36 36 38 39 39 39 40 41 43 45 46 47 48 50 51 52 56 62 71 83 89 91 91 91 90 89 90 92 93 94 96 98
27 27 27 30 31 31 33 33 33 33 32 31 32 34 35 36 37 38 40 41 42 45 46 48 48 50 51 51 50 53 58 63 71 83 91 92 91 90 87 85 83 84 86 85
29 29 29 30 31 32 31 30 29 31 31 32 33 33 34 34 36 35 37 40 42 44 46 47 49 49 48 50 51 53 53 54 55 56 65 78 86 90 91 87 85 84 83 81
29 31 32 32 32 31 30 30 31 32 31 32 34 36 37 38 40 40 40 40 43 45 46 47 48 50 50 50 48 47 47 50 53 58 60 63 69 75 75 76 81 85 90 86
27 30 32 32 32 32 33 33 32 32 33 35 37 39 40 41 42 43 43 43 43 45 48 51 53 52 51 50 50 49 50 50 51 52 55 57 61 72 77 78 75 72 78 86
29 30 32 33 33 34 35 35 34 35 36 37 39 41 42 44 45 45 45 45 46 49 50 49 50 51 51 53 55 57 58 54 52 49 50 52 54 56 62 77 80 79 76 66
31 32 32 32 34 35 35 36 38 41 42 42 42 43 47 49 49 48 49 48 48 47 49 51 53 53 54 55 53 53 54 54 56 60 63 63 62 58 57 60 68 81 80 72
32 33 33 35 34 35 36 36 37 41 45 46 46 48 49 51 52 52 52 50 51 52 54 54 55 54 54 54 54 57 59 60 60 61 62 64 65 66 72 75 77 81 81 82
35 35 37 37 37 38 36 35 39 44 48 51 50 52 53 54 55 54 55 56 57 57 57 59 60 59 57 56 55 58 60 63 64 65 64 60 54 54 58 66 83 87 89 91
39 40 41 41 41 37 35 39 44 50 52 53 53 54 56 57 57 56 56 59 60 62 64 67 65 62 60 58 57 59 65 61 52 51 51 50 55 66 72 75 78 79 87 93
45 46 45 44 41 38 41 46 49 52 53 53 54 55 57 55 54 54 56 57 61 64 65 66 65 62 61 59 59 60 55 46 41 42 46 45 60 65 69 73 73 69 73 77
49 48 48 44 40 42 46 51 53 54 52 51 51 51 50 50 49 50 51 54 56 58 59 62 61 58 55 55 53 51 48 44 38 37 43 51 57 59 63 61 59 71 68 67
50 50 47 44 44 48 51 54 55 52 50 48 48 46 46 45 44 44 45 45 44 44 46 51 50 49 55 57 53 51 50 48 44 41 40 42 47 51 50 50 58 51 56 57
51 49 49 50 52 53 54 57 56 54 52 50 48 45 43 43 42 40 39 39 41 41 40 42 48 48 51 52 53 53 53 53 54 48 43 41 40 40 48 51 41 49 47 44

GFSNGP_prec_cthk_120.txt.gz
RH
80 81 80 81 84 82 78 80 88 87 85 87 83 81 82 87 91 95 97 95 93 93 90 94 94 92 89 92 89 89 94 93 90 92 94 93 91 89 85 88 87 90 87 87
69 73 75 77 82 85 87 86 80 83 80 78 71 69 68 73 73 76 91 95 94 94 89 88 91 95 92 89 87 89 86 89 85 86 86 87 91 96 95 92 93 90 94 97
66 60 62 73 83 76 74 71 71 73 73 71 68 64 61 60 58 62 63 68 86 90 94 94 93 93 95 96 90 89 90 86 86 84 82 80 81 81 86 91 94 96 99 96
67 60 73 68 73 74 69 68 68 67 64 64 66 58 56 55 53 52 54 54 57 63 70 73 74 73 77 84 85 86 87 88 91 92 90 88 84 84 86 89 91 95 96 93
65 65 69 70 69 71 71 69 66 64 62 63 64 59 56 53 51 49 49 47 49 49 48 51 59 65 64 67 73 79 84 86 92 90 93 93 89 88 89 88 87 89 90 91
55 61 66 64 62 62 67 75 68 64 63 62 61 61 64 55 50 47 45 41 40 42 46 46 46 46 47 57 67 67 68 72 72 79 89 88 87 91 91 89 85 83 82 79
51 57 52 50 55 57 64 69 66 60 57 53 55 59 60 59 56 49 47 46 45 44 43 46 48 49 52 52 49 49 53 62 70 73 78 81 85 87 89 88 86 87 86 79
43 45 55 45 48 54 58 56 53 52 53 52 51 53 56 58 59 57 55 52 48 45 44 45 46 47 50 55 58 58 58 57 54 54 56 60 66 73 79 81 82 83 84 78
42 43 38 39 42 44 49 49 49 47 46 46 45 46 44 43 45 50 53 54 51 50 53 52 49 48 47 52 55 57 61 68 69 68 67 65 65 64 64 65 67 70 71 72
34 36 38 38 39 41 42 42 40 41 41 42 42 42 41 41 40 38 39 42 46 48 49 47 47 49 51 51 55 57 61 65 66 68 75 80 81 84 82 80 80 83 85 86
32 34 36 36 37 37 36 36 37 38 38 37 38 37 37 39 38 38 38 39 39 39 40 42 44 47 50 52 51 52 53 57 65 70 75 78 83 88 92 90 92 94 97 97
27 24 26 27 30 31 32 33 33 34 35 35 35 36 36 35 36 35 35 35 37 39 40 40 40 41 43 46 49 53 58 59 59 61 68 80 87 92 98 99 96 97 99 98
23 23 25 26 28 30 30 30 31 32 33 34 32 33 34 34 35 35 35 35 36 38 39 40 42 44 44 44 46 49 53 56 59 61 65 70 77 83 87 92 92 92 98 98
21 21 26 25 26 28 29 29 30 31 31 30 29 30 32 33 33 34 35 37 38 38 38 41 43 44 44 44 44 46 49 54 57 60 63 64 67 75 83 89 93 95 96 95
23 22 23 25 26 27 29 30 31 30 29 28 28 29 29 30 32 34 35 36 36 37 37 38 40 43 44 45 45 46 49 50 51 55 59 62 65 69 72 80 91 95 93 92
23 25 26 26 26 28 29 30 30 29 28 29 30 29 29 32 33 34 35 37 38 39 38 39 41 42 44 45 46 47 49 50 51 51 53 52 50 50 51 57 66 80 93 94
24 26 27 28 28 29 31 31 31 31 31 30 32 33 35 36 39 40 40 41 42 43 43 43 43 44 46 48 48 47 47 47 49 50 51 52 52 51 49 48 54 61 72 83
24 25 27 28 29 31 32 32 33 33 32 32 34 37 40 40 41 41 42 44 46 47 47 47 48 49 48 48 48 50 52 53 55 56 60 60 58 57 55 52 51 52 57 68
26 26 27 29 30 31 32 33 33 33 33 34 38 40 41 42 43 44 47 48 48 48 49 48 47 47 49 51 52 53 53 53 54 54 61 65 65 62 62 58 55 56 55 56
28 27 27 29 30 30 32 32 32 32 33 35 38 40 43 44 46 48 50 50 51 51 50 50 50 51 51 51 52 54 52 54 55 57 61 61 61 63 62 61 63 67 67 66
28 29 30 30 31 32 32 32 33 33 34 36 39 42 45 47 49 51 52 52 53 52 52 53 52 51 51 53 55 55 55 56 57 59 59 60 60 56 50 49 49 51 62 73
29 30 32 33 35 36 36 35 34 33 36 39 42 45 49 50 51 51 53 53 55 54 54 55 55 57 59 60 61 57 55 54 58 64 65 55 50 45 42 46 57 63 67 68
34 35 37 38 40 39 39 36 34 36 39 42 44 47 48 49 51 51 52 54 53 53 54 56 58 60 62 62 60 56 57 58 60 61 56 49 42 41 41 48 53 61 69 69
39 39 41 42 43 43 40 38 39 41 45 47 47 47 48 48 49 51 51 49 48 48 50 54 56 57 58 58 59 54 51 54 55 49 47 46 43 39 46 50 55 63 64 64
41 43 46 47 47 46 41 41 44 48 50 50 48 46 46 48 49 47 46 44 45 45 44 47 49 49 50 49 52 50 49 53 51 48 48 49 48 45 41 47 51 52 54 61
46 49 51 51 50 45 45 47 50 52 53 53 51 48 48 48 46 45 44 43 41 40 39 38 37 39 43 44 49 53 52 52 50 49 51 53 54 51 45 40 40 48 53 56
54 54 53 53 51 51 52 54 55 55 57 57 55 54 53 49 46 43 41 39 38 38 38 37 36 39 45 49 51 54 51 53 53 52 56 58 58 57 52 44 41 42 50 48

GFSNGP_prec_cthk_126.txt.gz
RH
87 85 84 86 84 79 82 86 94 97 96 98 97 97 98 98 98 98 98 98 99 99 98 98 96 97 98 98 96 97 96 95 94 95 95 97 95 96 97 98 99 96 93 94
75 77 75 79 75 71 70 71 81 86 91 93 94 96 97 98 98 98 98 98 98 99 98 96 96 97 97 99 98 99 96 95 93 88 87 91 92 91 95 95 94 96 97 97
64 59 56 64 68 64 68 67 68 78 84 78 78 83 95 97 98 98 96 97 95 98 96 99 98 99 98 98 98 98 95 92 90 90 93 94 92 92 94 95 96 96 97 98
61 53 60 57 60 59 62 63 61 63 68 69 63 71 70 78 80 87 91 93 97 95 95 94 93 93 92 88 87 88 88 89 90 92 91 92 90 91 94 94 97 96 96 96
55 61 56 54 58 55 56 59 57 54 54 50 55 62 59 61 62 63 61 64 69 74 80 81 79 81 80 75 80 81 83 82 84 82 83 86 86 85 91 90 92 97 96 95
49 54 57 48 49 54 48 54 52 48 48 48 44 51 57 52 50 49 49 50 50 48 47 44 44 47 52 52 56 61 65 70 72 77 81 83 84 83 84 83 84 85 88 91
47 50 43 43 46 49 56 48 47 43 42 40 41 44 46 46 45 44 43 41 40 40 36 36 39 38 36 38 36 37 39 41 44 50 56 63 72 79 81 82 84 87 90 91
43 42 37 35 40 43 42 44 39 35 35 35 35 36 36 37 37 38 39 40 41 39 35 33 33 34 33 32 35 36 36 36 36 37 37 39 42 46 51 55 60 69 80 88
33 32 31 32 33 34 35 37 36 33 33 32 31 32 33 32 32 32 32 31 29 28 28 31 29 29 27 28 32 30 29 30 30 32 34 37 38 40 44 47 47 48 52 57
30 26 30 32 33 30 31 30 29 30 32 32 30 30 32 32 32 32 31 28 29 31 34 30 30 30 27 26 25 27 31 30 28 29 31 32 36 38 39 42 44 47 52 55
27 27 29 29 31 31 31 30 28 28 28 27 28 28 29 28 29 30 29 28 29 28 29 29 30 30 28 25 25 24 24 27 28 30 33 34 35 36 38 40 43 45 47 51
22 19 21 22 25 29 31 29 28 29 30 28 27 27 27 27 27 26 25 26 27 29 29 29 28 26 26 27 26 26 23 24 24 26 30 35 36 36 38 42 45 47 49 50
15 17 19 20 23 26 28 28 27 27 28 29 29 30 29 27 27 27 27 28 29 28 28 27 28 28 29 29 27 27 26 27 27 29 31 33 36 39 44 48 47 48 50 53
16 18 22 21 22 26 27 27 28 30 31 31 31 32 32 33 34 34 33 33 33 33 33 33 32 32 31 30 31 32 32 34 35 36 35 36 37 37 39 40 44 49 53 56
17 18 18 19 24 26 27 27 29 30 30 31 30 29 30 32 32 33 34 35 36 36 37 36 35 35 35 35 35 35 36 38 38 38 39 39 39 40 41 42 43 45 46 46
19 20 21 21 23 26 27 28 28 29 31 31 30 30 30 30 31 33 34 34 35 36 37 38 38 38 38 38 39 39 39 38 39 40 41 44 45 46 47 48 48 48 48 49
21 23 23 24 24 25 25 26 29 31 33 32 30 29 29 31 33 35 36 37 39 39 41 42 42 41 42 43 43 42 43 44 45 46 45 46 45 46 47 49 50 52 51 51
20 19 19 19 22 25 27 28 29 31 31 30 30 30 30 30 31 33 36 39 41 42 43 44 44 44 45 44 44 46 48 48 49 47 47 48 48 50 51 51 51 52 50 48
22 21 22 23 24 25 26 28 29 30 30 29 29 29 29 30 32 35 38 40 44 45 46 45 44 45 45 46 48 49 48 49 49 48 48 50 49 50 49 51 52 49 44 41
23 23 24 24 25 26 26 28 31 31 30 31 30 30 30 31 34 37 42 42 46 49 48 47 47 48 49 50 50 49 48 48 48 48 47 46 46 49 50 53 52 51 47 44
26 25 26 25 26 27 28 29 30 30 32 31 32 31 31 34 37 39 43 43 49 49 48 47 47 49 51 51 49 49 48 48 48 45 42 44 46 49 54 58 55 54 51 42
33 31 29 28 27 28 30 31 31 32 33 34 34 33 35 37 39 42 45 47 51 50 48 48 50 51 51 51 50 50 51 51 49 45 47 49 48 48 51 52 47 43 42 40
39 38 36 34 32 32 34 34 34 34 36 37 36 38 40 41 43 46 48 50 50 49 49 49 49 48 47 46 45 46 48 45 44 48 52 52 50 50 53 51 45 46 48 46
48 46 44 43 42 42 39 37 38 39 40 41 42 44 45 46 48 50 52 51 50 50 49 48 47 46 45 42 40 39 36 37 41 43 50 52 53 54 53 49 52 55 54 52
51 53 51 51 51 49 47 46 45 44 46 47 50 51 51 53 54 55 54 53 51 50 48 45 44 42 40 39 36 33 34 38 42 45 50 53 52 53 52 49 56 58 59 61
50 53 56 57 56 56 56 54 52 52 51 53 56 57 58 61 61 61 59 55 53 51 47 45 42 39 37 35 35 35 35 41 45 46 51 54 52 54 54 59 64 66 68 68
52 54 59 62 66 65 61 60 59 57 56 61 63 65 67 67 65 62 58 56 53 49 45 42 38 37 35 34 36 37 37 41 45 46 50 52 55 57 67 71 73 77 76 67

GFSNGP_prec_cthk_129.txt.gz
RH
85 85 82 79 80 78 82 87 94 95 97 96 97 97 98 98 98 97 96 98 98 99 99 98 99 98 97 97 98 99 99 99 96 95 99 99 99 97 95 95 94 87 84 84
77 73 69 68 70 72 74 79 83 89 95 94 94 97 98 98 98 98 99 98 98 99 99 99 98 99 99 99 99 99 96 97 98 97 96 97 97 95 99 98 96 97 95 92
62 58 57 59 62 60 66 71 73 79 86 89 88 94 97 98 98 98 99 97 98 98 97 97 99 99 99 98 98 93 91 97 95 95 97 94 93 96 97 96 95 95 98 95
60 51 51 47 50 56 59 64 63 56 67 73 82 83 88 94 96 96 95 96 96 95 96 97 96 92 91 92 90 88 88 85 87 88 89 90 91 91 88 91 95 94 94 96
54 56 46 45 46 51 51 54 53 48 53 58 61 64 67 70 75 80 79 80 80 79 82 87 88 87 85 85 90 92 91 88 91 92 91 90 90 83 84 89 92 90 94 96
49 50 47 36 42 44 48 52 48 42 42 47 41 44 47 47 54 60 59 54 52 52 52 49 49 52 48 49 53 55 60 63 66 67 70 74 79 81 82 84 86 86 86 88
45 47 37 33 40 41 42 39 40 38 36 34 34 36 36 37 39 40 39 39 38 34 34 36 37 37 35 35 34 36 36 38 37 37 38 39 44 46 52 61 72 78 79 81
42 39 31 31 34 36 31 35 34 33 32 32 31 32 32 32 32 31 30 30 29 29 31 32 31 31 33 29 30 31 31 32 32 32 32 32 31 32 34 35 36 36 43 52
31 26 23 28 30 30 29 29 29 28 31 30 30 32 31 32 31 30 29 28 26 27 26 25 24 23 24 25 29 27 25 27 28 29 30 31 29 31 32 33 35 38 40 41
28 22 23 25 26 27 28 27 25 26 27 27 26 27 28 29 28 28 28 28 28 27 26 26 27 26 23 24 24 23 23 23 25 27 28 30 28 28 30 32 33 35 37 39
25 22 23 22 23 25 25 27 25 24 24 24 24 25 26 26 26 27 27 28 28 26 27 28 26 25 26 28 28 26 25 26 25 24 25 26 27 28 30 31 34 34 37 38
20 15 15 15 16 22 23 23 23 22 23 24 25 26 27 27 28 28 28 28 28 28 28 29 28 27 28 28 28 28 27 26 25 25 26 27 28 30 29 31 33 35 37 39
12 12 15 15 15 20 21 24 24 23 24 25 25 26 28 29 30 29 29 29 30 30 30 30 30 29 28 27 27 28 27 27 27 27 29 28 27 26 27 30 31 34 37 41
13 14 17 16 16 18 20 22 23 23 24 25 27 27 28 29 29 29 29 30 30 31 32 31 31 33 32 32 32 32 30 29 30 30 28 26 26 26 27 29 32 36 37 36
15 15 15 16 17 19 22 25 25 25 25 26 26 27 27 27 26 26 27 27 28 28 28 29 30 33 34 35 36 35 34 35 34 31 30 29 29 30 31 32 35 37 38 39
16 17 18 19 18 19 21 24 25 26 27 28 29 30 30 28 27 27 29 31 33 35 38 38 38 40 40 39 38 39 39 38 37 36 35 34 34 34 34 36 37 37 37 37
21 22 20 19 19 21 22 23 22 24 26 28 29 30 29 27 27 28 30 33 35 36 37 38 41 43 43 42 42 42 41 40 40 39 39 38 38 37 38 40 39 37 37 37
20 20 21 21 20 21 23 25 27 27 27 28 31 29 27 26 26 28 29 31 33 35 38 40 42 43 43 43 43 42 43 43 42 42 41 39 38 40 40 39 38 40 41 40
21 22 22 23 25 24 24 25 26 27 29 30 30 28 27 27 27 28 29 31 35 37 40 44 45 45 45 45 45 46 47 45 44 44 44 42 41 40 40 41 42 44 45 45
24 25 27 26 26 27 27 27 28 30 30 32 32 30 29 29 30 30 33 34 37 40 43 47 48 48 48 48 49 49 47 46 45 44 43 44 41 39 41 44 47 50 51 51
29 28 28 29 28 28 28 29 30 30 31 32 31 30 31 32 32 33 36 38 41 46 49 51 52 52 52 52 52 50 48 48 47 46 46 46 44 43 44 48 50 49 47 48
31 33 33 33 32 32 32 32 33 34 35 34 33 32 33 33 35 37 41 44 48 53 56 56 55 56 55 54 52 51 50 49 48 47 45 46 47 47 48 49 49 46 48 47
32 34 37 41 39 36 37 39 39 39 39 38 36 37 36 36 38 43 47 51 54 57 58 58 58 58 55 52 51 50 46 43 42 42 42 42 43 43 45 50 50 46 47 47
36 36 43 47 47 48 48 46 45 46 45 43 42 42 42 41 42 47 51 55 58 60 60 59 59 57 53 50 48 46 44 42 40 39 39 39 42 44 45 48 48 45 48 48
50 49 48 52 54 55 55 55 53 51 50 48 48 47 47 47 50 52 58 62 64 64 61 60 59 55 51 47 43 40 40 39 39 37 36 37 44 45 46 48 45 50 54 62
66 69 60 59 56 57 57 58 59 59 57 56 55 52 50 53 55 63 68 73 70 65 63 61 57 51 48 44 42 40 38 38 38 37 35 40 45 46 47 46 47 58 64 69
57 64 69 75 76 67 62 63 62 60 60 63 61 55 54 59 67 77 79 75 72 66 64 60 54 49 45 42 41 39 38 37 37 36 38 42 44 44 47 54 61 64 65 66

GFSNGP_prec_cthk_132.txt.gz
RH
78 77 70 70 69 71 80 81 87 90 94 93 97 97 98 98 97 98 98 96 98 98 98 99 97 97 98 99 99 99 98 98 97 99 99 99 98 96 98 98 98 97 98 96
69 66 62 62 61 63 69 75 77 85 86 89 93 96 98 98 98 98 98 98 98 98 99 98 98 99 99 99 99 97 97 98 99 99 98 99 99 99 98 99 98 96 97 97
62 56 53 53 56 62 61 68 70 81 77 81 88 95 97 98 98 98 99 99 99 99 99 98 98 98 98 98 97 97 97 98 98 99 98 98 98 98 99 98 98 96 96 94
56 48 49 42 48 54 59 58 61 69 70 67 75 84 89 92 95 95 93 95 95 94 95 96 98 96 96 93 94 96 94 96 96 92 92 94 95 94 96 98 98 95 96 97
50 52 41 43 42 48 51 48 50 60 60 57 57 62 71 73 80 77 77 78 78 74 74 75 76 79 79 86 90 89 91 90 89 93 88 89 87 86 85 86 89 87 87 91
47 49 40 32 37 40 44 46 42 42 45 44 41 48 53 57 59 55 56 51 51 50 46 42 41 43 43 45 47 47 49 49 52 55 55 57 63 68 69 71 73 79 82 86
46 49 35 30 35 41 41 32 32 29 28 30 34 35 35 36 36 35 34 34 33 31 29 29 28 28 28 30 30 33 33 33 34 33 32 33 35 37 39 39 40 45 48 53
43 43 29 28 35 37 27 30 27 26 25 24 27 30 30 30 30 30 30 29 29 28 25 25 24 24 24 24 26 26 27 25 24 27 28 29 28 28 29 30 31 31 32 34
31 26 20 26 26 27 27 28 27 26 24 24 24 26 27 28 28 28 28 28 28 26 26 25 25 24 22 22 22 22 22 21 21 22 24 24 23 23 24 26 27 29 30 31
26 19 20 20 23 25 27 26 26 25 25 25 24 26 26 27 26 27 27 27 26 25 25 25 24 24 25 23 22 23 21 19 19 19 20 20 21 22 24 25 26 26 27 28
26 20 19 18 18 21 24 26 26 24 25 26 26 26 26 25 25 26 26 27 28 28 28 28 26 24 24 25 24 23 22 22 21 21 21 21 20 22 24 24 25 25 26 28
16 12 14 13 14 19 22 23 25 24 24 26 28 26 25 26 27 27 28 29 29 29 29 29 28 28 28 29 27 27 28 26 25 25 26 25 25 25 26 26 26 26 26 27
11 11 11 12 13 16 19 22 24 24 25 26 28 28 27 27 27 28 29 30 30 30 30 31 30 30 30 30 29 28 27 26 26 26 26 26 25 25 26 26 27 26 27 27
14 14 14 12 13 14 17 20 22 23 23 25 25 26 27 28 29 30 30 31 31 31 31 31 31 30 29 29 29 29 29 29 30 30 29 28 29 30 30 30 30 30 29 29
14 16 16 14 14 15 18 20 21 22 22 23 24 25 27 28 28 28 28 28 29 30 31 31 32 32 32 32 33 33 33 33 34 33 32 32 33 33 32 32 32 32 33 35
19 18 18 17 16 18 18 21 21 22 23 23 25 26 27 27 26 25 25 24 25 26 28 31 33 35 36 37 37 37 38 39 39 38 38 39 39 38 36 36 36 35 35 34
20 21 21 21 20 18 18 20 20 21 22 23 22 24 25 24 23 22 22 24 25 25 27 29 32 35 38 40 40 41 43 43 43 44 44 43 40 39 38 38 38 38 37 36
18 18 20 20 21 23 22 21 21 23 25 25 27 28 27 26 24 24 23 24 25 26 29 33 36 40 43 44 46 47 47 48 48 47 46 44 42 40 40 39 39 39 39 38
23 21 20 23 22 22 24 25 25 25 27 29 30 29 28 29 27 27 26 26 27 29 31 35 39 43 47 50 51 50 50 52 52 50 47 45 43 43 41 39 40 41 39 39
21 23 23 23 26 27 26 26 26 28 30 32 32 32 31 30 29 29 28 28 29 32 35 38 41 47 51 54 54 54 54 55 53 50 48 46 45 44 42 41 41 42 40 40
24 25 27 28 29 31 30 29 30 31 32 33 33 33 32 34 31 29 29 29 29 35 38 43 45 52 56 56 56 57 57 56 54 51 49 48 46 44 43 42 42 40 39 40
33 31 27 26 28 29 31 32 32 34 35 36 37 37 38 36 33 31 31 30 31 34 38 42 49 57 61 60 59 59 57 55 52 49 46 44 44 42 41 41 40 39 41 42
42 43 42 37 32 31 33 32 33 37 40 41 41 40 41 40 37 35 34 34 35 37 41 46 53 66 67 63 61 59 57 53 49 46 45 44 42 42 40 37 39 41 41 42
43 45 48 48 49 48 42 39 40 41 42 46 49 50 50 46 42 40 39 38 39 40 44 48 65 73 66 64 63 59 56 52 49 46 44 42 40 41 38 40 43 43 42 42
40 43 47 50 52 50 50 48 47 48 52 54 56 58 56 55 52 49 47 46 44 45 49 63 78 72 69 64 61 57 53 50 47 43 41 39 39 37 39 43 43 41 43 50
48 47 48 51 54 56 58 59 58 58 57 56 62 64 61 55 53 56 56 54 51 53 63 81 79 74 67 63 58 54 52 48 45 43 39 38 38 39 42 42 40 44 50 55
43 41 40 42 48 55 63 65 68 69 69 68 68 68 65 64 61 61 60 60 66 72 79 86 78 73 68 60 55 52 48 44 42 40 37 38 39 40 41 42 46 48 52 53

GFSNGP_prec_cthk_135.txt.gz
RH
68 65 67 68 70 75 77 84 89 84 89 89 96 95 97 98 98 98 96 95 96 98 98 97 95 93 92 95 93 89 90 86 86 83 90 92 88 69 68 80 71 58 57 66
62 58 60 60 63 67 68 76 82 78 81 86 92 96 98 98 98 98 98 98 99 98 99 98 98 99 98 98 92 95 98 92 93 91 93 96 98 99 89 82 82 82 78 79
58 52 51 47 46 57 60 67 76 71 73 77 81 91 93 96 97 98 98 98 98 98 94 98 99 99 99 99 98 97 97 96 97 98 99 99 98 98 99 99 99 98 98 98
54 46 48 30 43 52 56 57 66 63 63 66 70 79 80 80 83 86 84 83 84 86 87 90 95 93 97 98 97 98 99 99 99 99 99 98 99 98 99 98 96 95 95 97
53 51 36 33 36 46 53 48 57 59 50 54 59 62 69 72 69 64 61 55 54 51 50 51 54 60 65 66 75 79 85 91 93 94 95 96 96 94 94 98 92 92 93 93
50 51 40 27 36 41 45 52 49 41 41 41 44 45 51 47 46 40 36 34 31 30 30 29 29 30 29 29 31 34 40 43 48 51 56 62 64 65 68 69 70 70 70 67
47 49 35 26 34 39 41 31 35 27 25 27 30 30 32 32 32 32 32 31 29 26 23 23 22 21 20 21 21 24 26 27 27 28 30 31 32 33 35 37 38 38 38 41
43 44 33 24 30 32 24 25 24 23 22 22 24 26 27 27 28 28 28 28 27 24 23 22 20 18 17 16 18 17 17 18 19 19 20 22 23 24 24 25 26 27 27 28
30 26 18 21 22 23 23 23 21 20 20 20 21 23 24 25 26 25 26 25 25 24 24 22 20 21 20 21 21 19 17 16 16 17 17 19 19 20 21 21 21 21 21 22
24 15 18 18 20 21 23 24 22 20 20 20 20 22 23 23 23 24 25 25 25 25 24 22 20 20 21 22 21 20 19 19 19 19 19 19 19 19 20 21 22 22 23 24
24 17 17 15 15 17 21 23 23 22 21 20 20 20 22 22 23 24 25 25 25 25 25 25 25 26 26 26 26 25 23 23 23 22 22 21 21 22 21 21 22 21 22 22
19 13 13 11 12 14 17 20 21 21 21 22 22 22 23 24 25 25 26 26 27 27 28 28 28 28 28 28 27 26 25 25 25 24 24 24 24 24 24 24 25 25 25 24
15 15 14 14 13 12 14 18 20 21 21 21 22 23 24 24 25 27 27 28 29 30 30 30 30 29 28 29 29 28 27 27 27 27 26 26 26 26 26 26 26 27 26 26
13 14 15 14 13 13 14 17 21 22 23 22 23 25 25 25 26 26 26 27 27 28 29 30 30 31 32 32 31 30 30 30 30 30 30 30 30 30 29 29 29 29 29 29
15 16 15 15 16 15 16 18 21 22 22 23 23 24 24 25 25 25 26 26 26 26 27 28 30 32 32 33 35 35 35 35 36 36 35 35 35 33 33 32 32 33 32 32
21 22 19 17 18 19 19 21 22 22 22 23 22 23 23 25 26 26 25 25 23 23 24 26 28 30 31 33 36 37 37 37 40 41 41 40 39 38 37 36 36 35 35 35
26 22 21 21 20 22 22 22 21 21 23 25 24 24 26 26 26 25 25 24 22 22 23 25 28 29 31 35 37 39 39 43 46 47 47 46 45 43 42 40 39 39 38 39
23 24 24 21 21 21 23 24 26 26 27 25 26 28 28 28 28 29 28 25 23 22 24 26 27 31 34 37 39 42 43 47 50 51 51 51 50 48 46 44 42 40 41 40
21 20 21 21 21 24 24 23 25 27 29 30 33 33 31 30 30 31 31 28 25 24 25 26 28 31 36 40 43 45 50 54 58 59 58 56 54 51 49 48 46 43 41 39
27 25 25 25 24 23 23 26 26 25 27 30 33 37 38 37 36 35 34 32 28 26 26 26 27 30 35 41 45 47 51 58 66 66 63 60 58 55 54 52 50 46 43 40
29 30 31 33 33 31 31 32 31 29 28 30 31 33 35 38 40 39 39 36 33 31 29 28 28 31 36 43 47 51 58 67 70 68 66 64 59 57 55 53 50 47 43 40
30 32 38 39 38 38 36 35 33 33 35 35 35 34 35 38 41 42 42 41 40 36 34 33 33 35 38 44 50 59 73 73 71 69 66 61 58 56 54 52 49 44 40 39
33 33 35 39 42 43 44 44 42 39 34 32 34 37 40 42 44 45 45 48 46 42 41 41 41 41 43 45 54 69 79 77 72 69 67 61 60 56 53 49 46 42 40 39
34 34 36 37 37 40 44 48 49 49 49 49 44 40 40 41 49 55 56 55 50 49 48 50 48 51 56 61 62 77 84 77 72 69 66 62 59 54 52 47 43 40 38 36
34 35 36 38 38 37 38 38 43 48 51 53 56 58 55 49 52 60 65 64 57 53 55 58 59 61 67 68 78 81 79 76 70 67 62 57 56 53 49 45 43 38 37 37
45 45 43 41 39 37 37 38 40 43 46 49 53 60 67 73 72 65 68 68 64 60 58 56 55 63 79 84 84 83 80 73 69 66 58 58 54 52 49 46 40 37 38 39
39 34 30 26 24 26 28 31 32 31 36 40 45 56 65 74 85 93 87 73 68 68 70 71 73 79 82 87 86 83 74 69 65 59 56 56 52 52 49 44 39 41 39 36

GFSNGP_prec_cthk_138.txt.gz
RH
60 58 60 65 70 73 89 85 91 83 91 96 96 97 98 98 98 98 97 93 93 92 93 96 96 96 98 95 88 87 91 88 83 86 79 70 74 84 84 75 57 48 48 43
54 46 52 59 61 64 76 76 74 76 77 80 88 92 96 97 97 96 95 90 90 93 94 94 94 94 96 93 88 89 92 97 94 86 85 84 80 86 80 76 70 53 52 61
48 43 43 45 44 48 63 65 63 63 66 68 73 77 85 84 84 84 84 85 83 86 86 89 88 90 91 95 88 88 93 96 98 94 88 83 83 83 89 95 94 88 85 78
45 39 41 31 43 46 52 59 59 56 55 65 66 70 68 68 64 59 55 52 50 46 46 53 62 73 80 84 97 93 93 97 98 98 95 93 93 98 98 98 99 99 99 94
46 42 29 28 35 42 47 50 49 48 46 50 53 58 52 50 39 33 32 31 29 28 27 28 28 32 36 48 61 78 88 94 96 97 95 98 97 99 98 98 97 94 93 92
47 48 33 24 34 41 47 46 41 40 36 38 40 38 31 29 28 27 26 25 24 22 20 19 19 20 20 21 23 26 31 36 46 56 70 79 87 88 86 84 81 80 76 76
41 41 27 24 33 41 41 27 28 23 22 24 28 24 25 25 24 24 24 22 20 19 18 17 17 17 15 14 15 18 19 20 21 24 27 31 35 40 42 44 44 44 44 44
36 39 32 19 30 30 20 22 22 21 20 20 22 22 22 23 23 23 22 21 20 19 17 18 18 17 16 15 17 16 16 16 16 16 17 18 19 21 22 23 24 25 26 26
23 19 16 17 18 20 20 20 21 21 18 18 19 20 21 21 21 22 23 23 22 21 22 21 20 20 19 18 18 17 16 16 16 16 16 17 17 17 18 18 18 18 19 19
21 13 14 14 15 17 19 21 21 19 18 17 18 19 20 20 21 22 23 23 24 25 25 24 23 22 22 22 22 22 21 20 20 19 19 19 19 19 19 19 19 19 19 19
20 15 14 14 14 14 16 18 20 20 18 17 18 17 18 19 21 22 23 25 26 26 26 26 25 24 25 25 25 25 24 24 23 23 22 22 22 21 21 21 21 21 21 22
13 12 13 12 13 14 14 15 17 20 20 18 18 18 18 19 20 21 23 24 25 26 27 27 27 27 28 28 28 28 28 27 27 26 26 26 26 26 26 25 25 25 25 25
15 15 15 13 12 13 13 14 15 19 20 20 19 20 20 20 21 22 24 25 25 26 28 28 30 30 31 32 32 31 31 30 30 29 30 31 31 31 30 29 29 29 29 28
16 16 15 13 12 12 13 14 15 18 21 22 22 22 22 23 24 24 25 26 27 27 28 28 28 29 30 31 33 34 34 33 33 33 33 34 35 36 35 34 34 33 33 32
19 20 19 16 15 15 16 15 17 18 19 21 22 22 23 24 24 24 26 28 28 27 26 25 25 27 28 30 33 34 34 35 35 35 35 37 39 40 39 38 38 38 37 37
21 21 21 21 19 18 17 18 19 19 21 22 24 23 22 23 25 25 26 27 26 24 23 23 23 25 26 28 31 35 37 38 39 39 39 41 45 46 45 45 45 45 44 43
22 23 24 24 23 22 22 23 23 24 25 27 26 26 27 26 27 28 27 27 27 27 27 25 24 24 24 26 30 34 38 39 41 42 43 46 49 52 53 52 52 50 49 47
25 24 24 25 25 23 23 24 24 25 25 25 29 32 34 35 32 30 30 31 31 30 28 26 26 26 25 26 28 32 36 40 43 45 47 49 53 55 56 56 55 55 55 53
32 31 28 25 24 24 23 24 27 27 26 27 29 30 33 36 37 37 37 38 37 36 33 32 30 29 28 28 29 30 33 37 42 45 49 53 59 63 65 62 59 59 58 56
32 33 35 34 33 32 31 29 26 26 28 30 31 32 33 34 37 40 42 42 41 42 44 39 35 34 32 32 32 33 35 37 40 44 49 56 70 73 69 66 61 61 61 58
30 31 32 32 31 32 32 33 36 38 39 36 33 33 34 35 37 39 44 45 41 44 46 46 42 40 39 38 37 38 39 39 42 48 55 71 82 77 70 66 63 60 60 57
32 32 30 30 29 31 32 34 37 40 42 42 42 42 40 35 32 33 36 38 43 48 52 52 48 44 42 42 43 44 46 50 53 58 69 79 78 75 73 67 65 61 59 55
31 28 26 25 24 24 24 25 26 28 29 33 37 42 45 49 54 54 46 43 48 51 55 57 56 51 47 45 44 43 44 48 65 72 81 77 78 77 73 68 62 61 59 56
26 27 29 32 34 36 36 36 37 38 40 42 42 43 44 45 47 51 57 65 67 64 64 61 57 56 53 50 51 50 52 73 78 85 80 83 80 73 71 68 63 62 61 57
32 34 35 35 33 33 35 38 37 35 33 28 25 26 28 33 38 41 45 51 62 76 80 78 72 64 58 56 55 57 67 76 82 87 89 81 75 75 68 65 63 61 57 55
39 38 34 36 42 44 41 34 31 28 27 25 24 26 28 30 32 36 40 46 54 64 75 82 86 78 69 63 68 74 83 85 90 93 81 76 78 71 68 63 62 59 55 54
43 42 44 41 38 31 28 27 29 29 31 33 35 38 40 44 48 52 56 63 70 71 78 86 83 79 77 74 83 93 91 93 94 82 79 80 71 68 63 62 60 56 55 52

GFSNGP_prec_cthk_141.txt.gz
RH
53 49 55 60 67 74 86 83 87 80 87 83 93 97 98 98 96 96 94 95 93 89 86 87 88 85 79 78 79 78 85 91 89 86 87 88 73 59 63 83 76 65 59 63
50 43 47 53 57 68 70 69 73 71 72 78 78 87 86 88 83 80 77 74 70 73 68 80 80 84 81 84 86 89 95 92 88 87 86 89 92 80 73 81 89 89 83 68
44 41 42 45 41 52 56 53 55 64 63 63 66 71 73 62 60 52 48 40 38 41 51 59 64 73 83 86 89 90 96 95 90 91 91 94 90 88 88 88 92 89 81 72
45 38 41 36 36 43 49 49 49 49 52 57 60 60 55 46 35 30 28 27 28 30 30 37 44 48 52 59 69 78 82 89 90 89 91 94 93 92 89 85 93 93 88 86
48 41 30 28 31 41 49 44 40 42 45 44 48 41 35 30 27 26 24 23 22 21 20 19 20 23 26 29 33 36 46 67 82 84 86 85 94 97 95 93 96 97 97 98
46 49 34 25 29 37 40 41 33 32 30 31 29 28 25 24 21 21 20 19 17 16 16 15 16 15 16 18 21 24 28 33 44 64 75 77 86 85 91 94 97 95 94 89
40 48 31 25 30 31 32 25 22 22 20 22 22 22 23 19 19 19 19 18 17 17 15 15 15 16 15 14 15 19 21 23 27 32 39 51 63 67 67 66 69 69 70 69
33 35 35 22 25 26 21 18 19 18 17 18 19 21 20 20 20 20 19 19 18 17 17 16 16 17 17 16 16 17 16 17 19 20 22 24 25 26 28 29 30 31 32 33
20 20 18 16 16 18 18 19 19 18 17 17 16 18 18 18 18 18 18 18 18 18 18 18 18 19 19 19 19 20 20 19 19 19 19 20 20 20 20 20 19 19 19 19
20 13 13 13 14 15 17 19 21 21 19 18 17 18 18 18 18 18 18 19 20 20 20 20 20 20 20 20 21 21 22 21 21 21 21 21 21 22 22 22 22 21 21 21
19 15 13 12 13 14 15 17 19 21 22 21 19 19 19 20 19 19 19 19 20 21 22 23 23 22 23 23 23 24 24 24 24 24 24 24 24 24 24 25 25 25 25 24
15 14 13 13 13 14 14 15 16 19 21 21 20 20 20 20 20 20 20 21 21 23 24 25 25 25 25 26 27 28 29 29 28 28 28 28 28 28 29 30 31 31 30 30
16 15 15 13 13 12 13 14 16 17 18 21 21 21 21 20 21 21 21 22 23 24 25 26 25 25 25 25 27 28 29 30 30 30 31 31 31 31 31 33 33 35 36 36
18 18 16 16 15 15 14 15 15 15 17 20 22 23 22 22 22 22 22 23 25 26 26 27 27 26 25 26 26 27 28 29 30 31 32 33 33 33 34 35 38 41 42 42
19 20 21 21 21 19 18 17 17 16 19 20 22 23 24 23 22 22 23 25 25 26 26 27 27 25 25 25 25 26 27 28 30 32 34 35 35 36 37 38 40 42 45 46
17 17 20 23 23 22 22 21 21 21 23 24 25 24 25 27 27 26 26 27 27 25 27 28 27 26 26 26 26 26 27 28 30 32 35 37 39 39 40 42 44 46 48 48
21 22 21 21 22 24 23 22 23 23 24 26 26 28 30 31 32 32 30 29 28 29 30 30 28 28 27 26 27 27 28 29 30 31 32 35 38 41 43 45 47 50 52 55
31 30 29 28 26 25 24 23 24 24 24 23 23 24 26 27 28 31 34 37 37 36 36 36 36 35 33 32 32 32 33 33 34 34 34 34 36 39 41 44 49 61 69 67
31 31 31 31 32 32 31 30 29 28 27 26 25 26 26 26 27 27 30 35 37 38 37 40 42 45 43 40 38 38 38 39 39 39 40 40 41 43 46 51 63 71 69 69
29 29 30 31 33 35 34 33 32 32 32 31 31 32 33 34 34 33 33 33 33 33 37 40 44 47 47 46 44 41 41 42 43 44 44 44 47 49 51 60 74 72 69 70
25 25 27 30 31 29 26 23 22 23 25 27 29 31 33 34 36 38 41 42 41 42 43 45 46 47 47 46 45 43 41 40 41 43 44 44 44 46 56 71 77 73 74 72
30 30 29 28 24 21 20 20 21 21 21 22 24 26 28 30 34 37 39 41 43 47 48 50 55 59 61 61 58 55 52 50 48 46 44 44 46 50 63 80 79 78 77 75
35 32 28 24 23 23 24 25 26 26 25 26 27 29 32 33 35 36 37 37 36 36 36 37 43 53 64 71 72 67 62 58 59 59 55 52 51 65 82 89 87 81 77 71
35 31 24 24 27 29 29 27 28 30 31 33 33 30 31 30 24 20 21 22 25 27 30 34 39 46 55 60 67 75 76 71 70 69 64 62 67 84 91 93 83 80 77 70
33 28 28 31 34 32 33 36 36 38 37 35 32 29 26 26 26 24 25 27 29 33 37 42 51 62 68 73 80 84 80 79 81 77 72 76 85 92 95 84 81 80 75 71
32 30 35 41 43 40 43 46 42 37 32 26 21 22 24 27 30 32 33 35 40 45 48 50 57 66 73 82 95 96 95 89 83 80 86 91 97 95 85 85 83 77 73 70
36 43 48 49 42 46 47 42 38 31 28 28 29 29 31 32 34 37 40 44 45 48 53 59 65 72 80 85 93 97 97 94 90 95 97 98 94 88 87 82 78 73 72 72

GFSNGP_prec_cthk_144.txt.gz
RH
55 52 55 59 67 71 85 79 89 76 85 77 81 86 85 83 80 70 63 54 56 63 85 93 92 91 87 87 86 85 83 81 78 82 81 81 79 87 90 68 56 68 63 53
49 47 51 52 57 61 70 71 76 73 71 72 68 71 65 57 52 43 36 37 42 47 56 69 74 78 79 80 80 81 80 78 76 78 82 84 81 80 86 81 78 84 90 88
53 45 49 53 47 51 54 54 57 66 61 62 58 52 48 35 32 29 32 29 30 32 35 38 48 54 54 55 65 80 76 69 74 77 81 82 82 85 85 79 75 76 80 92
54 46 53 41 38 41 47 44 47 46 46 51 50 36 29 28 26 25 23 24 20 18 20 20 23 26 31 32 37 51 64 64 66 73 80 83 87 86 85 86 86 82 78 82
53 51 39 31 35 40 45 42 41 41 40 41 30 25 23 24 22 20 19 18 18 17 15 15 15 15 17 20 24 28 32 50 59 60 64 74 82 88 89 93 91 84 84 87
47 54 45 30 31 30 31 37 25 30 33 29 25 29 26 26 19 18 18 17 17 16 16 14 14 14 14 14 17 21 25 32 35 48 58 58 62 66 70 76 78 86 94 96
49 52 39 26 23 24 30 27 18 20 20 19 21 18 19 20 17 17 17 17 17 17 17 16 17 17 17 17 16 18 21 24 27 32 36 39 42 45 51 62 68 73 77 79
42 42 39 21 22 25 21 19 18 18 16 15 15 17 19 18 17 16 16 17 17 17 17 17 18 18 18 18 19 20 20 20 21 23 24 25 27 29 31 33 36 40 44 50
27 26 17 18 17 17 17 17 18 19 18 16 16 16 16 16 17 17 17 17 17 18 18 18 19 19 19 19 20 21 21 22 23 24 25 26 26 27 27 27 26 25 24 23
18 13 14 14 14 13 14 15 16 18 18 18 16 15 15 15 16 17 17 17 18 18 19 20 20 20 21 22 22 23 24 25 25 26 26 26 26 27 27 27 27 27 26 26
20 15 13 14 12 12 13 14 15 16 18 19 20 19 17 17 16 16 17 17 18 19 20 21 22 22 22 23 23 24 24 25 25 26 26 27 27 27 28 28 28 29 29 30
19 15 15 14 14 14 13 12 12 13 15 17 20 20 21 20 18 18 18 18 18 19 21 22 23 23 23 23 23 23 24 24 25 25 26 27 27 28 28 28 29 30 30 32
17 16 17 15 13 13 14 14 13 12 13 15 16 18 20 21 21 20 19 20 20 20 22 22 23 23 24 24 24 23 23 24 24 26 27 28 29 30 31 32 33 34 35 35
18 19 18 16 17 17 17 16 15 14 15 15 14 17 19 20 21 21 19 19 21 21 22 22 22 22 23 23 23 23 23 23 24 25 26 28 30 31 32 34 36 37 39 40
13 15 16 18 18 19 21 21 20 18 17 17 18 20 22 23 23 23 24 24 24 24 22 22 22 22 23 23 23 23 24 24 25 26 27 28 30 31 33 35 37 39 41 42
15 15 15 16 16 17 20 22 22 21 21 21 24 24 25 26 27 28 29 30 30 28 28 29 30 29 31 30 28 27 27 28 29 30 31 31 32 33 34 35 36 37 38 40
23 21 20 21 22 22 21 20 20 22 24 24 25 26 27 27 27 27 29 31 32 32 32 33 33 34 34 34 35 34 32 32 33 35 37 38 39 39 40 40 40 40 41 44
30 31 32 32 32 32 33 33 32 30 27 26 25 26 26 26 26 26 27 29 30 31 32 34 35 38 39 39 40 41 40 37 36 35 37 40 41 42 43 44 45 45 47 52
34 33 32 30 30 30 31 30 31 32 32 33 33 32 30 29 29 29 30 31 32 33 31 34 38 42 45 46 48 48 47 45 42 38 37 39 41 42 43 44 45 44 45 51
35 35 33 32 32 30 27 26 27 28 27 25 22 21 22 24 26 27 28 28 29 31 34 39 42 44 47 51 56 58 58 59 58 55 52 51 49 48 48 50 50 50 52 61
36 35 34 33 31 28 25 26 25 23 20 19 20 21 22 23 26 29 29 30 29 33 34 34 35 33 32 34 39 41 45 48 49 52 54 54 57 59 57 57 56 57 62 68
36 35 34 35 32 30 27 26 23 22 23 24 24 24 25 25 25 25 25 26 26 29 30 25 24 26 29 34 38 43 49 54 60 61 61 67 65 67 68 69 64 66 71 79
38 37 37 40 36 30 24 23 25 27 27 28 30 31 31 30 28 28 27 26 24 20 20 21 24 28 32 37 40 45 53 59 65 71 75 80 80 84 82 79 76 76 82 95
41 42 43 40 34 26 21 25 30 32 33 35 35 35 34 34 30 29 26 24 24 25 25 26 29 33 38 42 45 49 56 64 69 81 86 91 95 93 89 84 85 88 97 91
55 48 44 40 34 27 26 29 31 33 38 41 40 36 35 32 30 24 24 26 27 29 30 33 36 40 44 45 50 55 59 67 73 80 89 96 98 98 93 92 95 97 95 95
59 53 43 39 33 31 32 35 38 44 48 42 35 33 30 26 26 27 27 28 30 32 34 37 42 46 48 52 55 61 65 65 72 82 88 96 97 97 97 97 97 97 96 91
62 59 53 45 39 40 44 50 54 51 44 38 34 30 26 25 26 28 29 30 33 36 39 42 47 53 56 58 61 67 69 72 82 88 90 88 88 88 96 97 97 94 90 87